<?xml version="1.0" encoding="UTF-8" standalone="no" ?>
<gpx xmlns="http://www.topografix.com/GPX/1/1" xmlns:xsi="http://www.w3.org/2001/XMLSchema-instance" xsi:schemaLocation="http://www.topografix.com/GPX/1/1 http://www.topografix.com/GPX/1/1/gpx.xsd" version="1.1" creator="VisuGPX - https://www.visugpx.com">
  <metadata>
    <name>83 -M - SALERNES</name>
    <desc><![CDATA[SALERNES - Les Amourènes - le Pont Romain]]></desc>
  </metadata>
  <trk>
    <name><![CDATA[2025-04-09-Me-Salernes]]></name>
    <extensions>
      <line xmlns="http://www.topografix.com/GPX/gpx_style/0/2">
        <width>4</width>
      </line>
    </extensions>
    <trkseg>
      <trkpt lat="43.55145" lon="6.24444">
        <ele>219.2</ele>
        <time>2025-04-09T12:30:00.000Z</time>
      </trkpt>
      <trkpt lat="43.55145" lon="6.24444">
        <ele>219.2</ele>
        <time>2025-04-09T12:30:01.000Z</time>
      </trkpt>
      <trkpt lat="43.55148" lon="6.24449">
        <ele>219.2</ele>
        <time>2025-04-09T12:30:19.000Z</time>
      </trkpt>
      <trkpt lat="43.55149" lon="6.24449">
        <ele>219.2</ele>
        <time>2025-04-09T12:30:20.000Z</time>
      </trkpt>
      <trkpt lat="43.55149" lon="6.24448">
        <ele>219.1</ele>
        <time>2025-04-09T12:30:21.000Z</time>
      </trkpt>
      <trkpt lat="43.5515" lon="6.24448">
        <ele>219.2</ele>
        <time>2025-04-09T12:30:22.000Z</time>
      </trkpt>
      <trkpt lat="43.55151" lon="6.24447">
        <ele>219.1</ele>
        <time>2025-04-09T12:30:23.000Z</time>
      </trkpt>
      <trkpt lat="43.55152" lon="6.24446">
        <ele>219.2</ele>
        <time>2025-04-09T12:30:29.000Z</time>
      </trkpt>
      <trkpt lat="43.55152" lon="6.24446">
        <ele>219.2</ele>
        <time>2025-04-09T12:30:30.000Z</time>
      </trkpt>
      <trkpt lat="43.55154" lon="6.24445">
        <ele>219.1</ele>
        <time>2025-04-09T12:30:42.000Z</time>
      </trkpt>
      <trkpt lat="43.55154" lon="6.24445">
        <ele>219.1</ele>
        <time>2025-04-09T12:30:42.000Z</time>
      </trkpt>
      <trkpt lat="43.55153" lon="6.24445">
        <ele>219.1</ele>
        <time>2025-04-09T12:30:43.000Z</time>
      </trkpt>
      <trkpt lat="43.55153" lon="6.24445">
        <ele>219.1</ele>
        <time>2025-04-09T12:30:44.000Z</time>
      </trkpt>
      <trkpt lat="43.55153" lon="6.24445">
        <ele>219.1</ele>
        <time>2025-04-09T12:30:45.000Z</time>
      </trkpt>
      <trkpt lat="43.55154" lon="6.24446">
        <ele>219.1</ele>
        <time>2025-04-09T12:30:49.000Z</time>
      </trkpt>
      <trkpt lat="43.55154" lon="6.24446">
        <ele>219.1</ele>
        <time>2025-04-09T12:30:50.000Z</time>
      </trkpt>
      <trkpt lat="43.55154" lon="6.24446">
        <ele>219.1</ele>
        <time>2025-04-09T12:30:51.000Z</time>
      </trkpt>
      <trkpt lat="43.5516" lon="6.24441">
        <ele>219.3</ele>
        <time>2025-04-09T12:31:11.000Z</time>
      </trkpt>
      <trkpt lat="43.5516" lon="6.24441">
        <ele>219.3</ele>
        <time>2025-04-09T12:31:12.000Z</time>
      </trkpt>
      <trkpt lat="43.55161" lon="6.24441">
        <ele>219.3</ele>
        <time>2025-04-09T12:31:13.000Z</time>
      </trkpt>
      <trkpt lat="43.55161" lon="6.24441">
        <ele>219.3</ele>
        <time>2025-04-09T12:31:14.000Z</time>
      </trkpt>
      <trkpt lat="43.55162" lon="6.24441">
        <ele>219.3</ele>
        <time>2025-04-09T12:31:15.000Z</time>
      </trkpt>
      <trkpt lat="43.55163" lon="6.24441">
        <ele>219.3</ele>
        <time>2025-04-09T12:31:16.000Z</time>
      </trkpt>
      <trkpt lat="43.55173" lon="6.24439">
        <ele>219.4</ele>
        <time>2025-04-09T12:31:22.000Z</time>
      </trkpt>
      <trkpt lat="43.5518" lon="6.24431">
        <ele>219.6</ele>
        <time>2025-04-09T12:31:31.000Z</time>
      </trkpt>
      <trkpt lat="43.55189" lon="6.24426">
        <ele>219.9</ele>
        <time>2025-04-09T12:31:49.000Z</time>
      </trkpt>
      <trkpt lat="43.55199" lon="6.24423">
        <ele>220.2</ele>
        <time>2025-04-09T12:32:00.000Z</time>
      </trkpt>
      <trkpt lat="43.55207" lon="6.24418">
        <ele>220.4</ele>
        <time>2025-04-09T12:32:10.000Z</time>
      </trkpt>
      <trkpt lat="43.55217" lon="6.24416">
        <ele>220.4</ele>
        <time>2025-04-09T12:32:20.000Z</time>
      </trkpt>
      <trkpt lat="43.55225" lon="6.24412">
        <ele>220.3</ele>
        <time>2025-04-09T12:32:33.000Z</time>
      </trkpt>
      <trkpt lat="43.55234" lon="6.24407">
        <ele>219.9</ele>
        <time>2025-04-09T12:32:42.000Z</time>
      </trkpt>
      <trkpt lat="43.55243" lon="6.24404">
        <ele>219</ele>
        <time>2025-04-09T12:32:52.000Z</time>
      </trkpt>
      <trkpt lat="43.55252" lon="6.24407">
        <ele>218.3</ele>
        <time>2025-04-09T12:33:02.000Z</time>
      </trkpt>
      <trkpt lat="43.55261" lon="6.24408">
        <ele>218.2</ele>
        <time>2025-04-09T12:33:10.000Z</time>
      </trkpt>
      <trkpt lat="43.55271" lon="6.24406">
        <ele>218.2</ele>
        <time>2025-04-09T12:33:19.000Z</time>
      </trkpt>
      <trkpt lat="43.55281" lon="6.24409">
        <ele>218.4</ele>
        <time>2025-04-09T12:33:28.000Z</time>
      </trkpt>
      <trkpt lat="43.55287" lon="6.24419">
        <ele>218.4</ele>
        <time>2025-04-09T12:33:36.000Z</time>
      </trkpt>
      <trkpt lat="43.55291" lon="6.2443">
        <ele>218.3</ele>
        <time>2025-04-09T12:33:45.000Z</time>
      </trkpt>
      <trkpt lat="43.55296" lon="6.24441">
        <ele>218.2</ele>
        <time>2025-04-09T12:33:54.000Z</time>
      </trkpt>
      <trkpt lat="43.55303" lon="6.24451">
        <ele>218.2</ele>
        <time>2025-04-09T12:34:03.000Z</time>
      </trkpt>
      <trkpt lat="43.55309" lon="6.24461">
        <ele>218.1</ele>
        <time>2025-04-09T12:34:11.000Z</time>
      </trkpt>
      <trkpt lat="43.55316" lon="6.2447">
        <ele>218.1</ele>
        <time>2025-04-09T12:34:19.000Z</time>
      </trkpt>
      <trkpt lat="43.55323" lon="6.24479">
        <ele>218.1</ele>
        <time>2025-04-09T12:34:28.000Z</time>
      </trkpt>
      <trkpt lat="43.55331" lon="6.24488">
        <ele>218.2</ele>
        <time>2025-04-09T12:34:37.000Z</time>
      </trkpt>
      <trkpt lat="43.55339" lon="6.24496">
        <ele>218.2</ele>
        <time>2025-04-09T12:34:46.000Z</time>
      </trkpt>
      <trkpt lat="43.55346" lon="6.24505">
        <ele>218.3</ele>
        <time>2025-04-09T12:34:54.000Z</time>
      </trkpt>
      <trkpt lat="43.55353" lon="6.24514">
        <ele>218.4</ele>
        <time>2025-04-09T12:35:02.000Z</time>
      </trkpt>
      <trkpt lat="43.5536" lon="6.24522">
        <ele>218.4</ele>
        <time>2025-04-09T12:35:10.000Z</time>
      </trkpt>
      <trkpt lat="43.55368" lon="6.2453">
        <ele>218.5</ele>
        <time>2025-04-09T12:35:18.000Z</time>
      </trkpt>
      <trkpt lat="43.55375" lon="6.2454">
        <ele>218.6</ele>
        <time>2025-04-09T12:35:27.000Z</time>
      </trkpt>
      <trkpt lat="43.55377" lon="6.24543">
        <ele>218.8</ele>
        <time>2025-04-09T12:35:34.000Z</time>
      </trkpt>
      <trkpt lat="43.55377" lon="6.24543">
        <ele>218.8</ele>
        <time>2025-04-09T12:35:35.000Z</time>
      </trkpt>
      <trkpt lat="43.55377" lon="6.24543">
        <ele>218.8</ele>
        <time>2025-04-09T12:35:36.000Z</time>
      </trkpt>
      <trkpt lat="43.55377" lon="6.24542">
        <ele>219</ele>
        <time>2025-04-09T12:35:46.000Z</time>
      </trkpt>
      <trkpt lat="43.55377" lon="6.24542">
        <ele>219</ele>
        <time>2025-04-09T12:35:47.000Z</time>
      </trkpt>
      <trkpt lat="43.55378" lon="6.24542">
        <ele>219</ele>
        <time>2025-04-09T12:35:48.000Z</time>
      </trkpt>
      <trkpt lat="43.55378" lon="6.24541">
        <ele>219</ele>
        <time>2025-04-09T12:35:49.000Z</time>
      </trkpt>
      <trkpt lat="43.55378" lon="6.2454">
        <ele>219</ele>
        <time>2025-04-09T12:35:50.000Z</time>
      </trkpt>
      <trkpt lat="43.55378" lon="6.2454">
        <ele>219</ele>
        <time>2025-04-09T12:35:51.000Z</time>
      </trkpt>
      <trkpt lat="43.55379" lon="6.24539">
        <ele>219.1</ele>
        <time>2025-04-09T12:35:59.000Z</time>
      </trkpt>
      <trkpt lat="43.5538" lon="6.24538">
        <ele>219</ele>
        <time>2025-04-09T12:36:00.000Z</time>
      </trkpt>
      <trkpt lat="43.5538" lon="6.24538">
        <ele>219</ele>
        <time>2025-04-09T12:36:01.000Z</time>
      </trkpt>
      <trkpt lat="43.5538" lon="6.24538">
        <ele>219.1</ele>
        <time>2025-04-09T12:36:06.000Z</time>
      </trkpt>
      <trkpt lat="43.5538" lon="6.24538">
        <ele>219.1</ele>
        <time>2025-04-09T12:36:07.000Z</time>
      </trkpt>
      <trkpt lat="43.5538" lon="6.24538">
        <ele>219.1</ele>
        <time>2025-04-09T12:36:08.000Z</time>
      </trkpt>
      <trkpt lat="43.55382" lon="6.24537">
        <ele>219.1</ele>
        <time>2025-04-09T12:36:27.000Z</time>
      </trkpt>
      <trkpt lat="43.55382" lon="6.24537">
        <ele>219.1</ele>
        <time>2025-04-09T12:36:28.000Z</time>
      </trkpt>
      <trkpt lat="43.55382" lon="6.24537">
        <ele>219.1</ele>
        <time>2025-04-09T12:36:29.000Z</time>
      </trkpt>
      <trkpt lat="43.55382" lon="6.24537">
        <ele>219.1</ele>
        <time>2025-04-09T12:36:30.000Z</time>
      </trkpt>
      <trkpt lat="43.55382" lon="6.24538">
        <ele>219.1</ele>
        <time>2025-04-09T12:36:31.000Z</time>
      </trkpt>
      <trkpt lat="43.55382" lon="6.24538">
        <ele>219.1</ele>
        <time>2025-04-09T12:36:32.000Z</time>
      </trkpt>
      <trkpt lat="43.55382" lon="6.24538">
        <ele>219.1</ele>
        <time>2025-04-09T12:36:33.000Z</time>
      </trkpt>
      <trkpt lat="43.55382" lon="6.24538">
        <ele>219.1</ele>
        <time>2025-04-09T12:36:34.000Z</time>
      </trkpt>
      <trkpt lat="43.55382" lon="6.24538">
        <ele>219.1</ele>
        <time>2025-04-09T12:36:35.000Z</time>
      </trkpt>
      <trkpt lat="43.55383" lon="6.24537">
        <ele>219.1</ele>
        <time>2025-04-09T12:37:06.000Z</time>
      </trkpt>
      <trkpt lat="43.55383" lon="6.24537">
        <ele>219.1</ele>
        <time>2025-04-09T12:37:07.000Z</time>
      </trkpt>
      <trkpt lat="43.55383" lon="6.24536">
        <ele>219.1</ele>
        <time>2025-04-09T12:37:08.000Z</time>
      </trkpt>
      <trkpt lat="43.5538" lon="6.24536">
        <ele>219.1</ele>
        <time>2025-04-09T12:37:14.000Z</time>
      </trkpt>
      <trkpt lat="43.5538" lon="6.24536">
        <ele>219.1</ele>
        <time>2025-04-09T12:37:15.000Z</time>
      </trkpt>
      <trkpt lat="43.5538" lon="6.24536">
        <ele>219.1</ele>
        <time>2025-04-09T12:37:16.000Z</time>
      </trkpt>
      <trkpt lat="43.5538" lon="6.24536">
        <ele>219.1</ele>
        <time>2025-04-09T12:37:17.000Z</time>
      </trkpt>
      <trkpt lat="43.5538" lon="6.24536">
        <ele>219.1</ele>
        <time>2025-04-09T12:37:18.000Z</time>
      </trkpt>
      <trkpt lat="43.5538" lon="6.24536">
        <ele>219.2</ele>
        <time>2025-04-09T12:37:22.000Z</time>
      </trkpt>
      <trkpt lat="43.5538" lon="6.24536">
        <ele>219.2</ele>
        <time>2025-04-09T12:37:23.000Z</time>
      </trkpt>
      <trkpt lat="43.5538" lon="6.24536">
        <ele>219.2</ele>
        <time>2025-04-09T12:37:24.000Z</time>
      </trkpt>
      <trkpt lat="43.5538" lon="6.24536">
        <ele>219.2</ele>
        <time>2025-04-09T12:37:29.000Z</time>
      </trkpt>
      <trkpt lat="43.5538" lon="6.24536">
        <ele>219.2</ele>
        <time>2025-04-09T12:37:30.000Z</time>
      </trkpt>
      <trkpt lat="43.5538" lon="6.24536">
        <ele>219.2</ele>
        <time>2025-04-09T12:37:31.000Z</time>
      </trkpt>
      <trkpt lat="43.5538" lon="6.24536">
        <ele>219.2</ele>
        <time>2025-04-09T12:37:32.000Z</time>
      </trkpt>
      <trkpt lat="43.5538" lon="6.24536">
        <ele>219.2</ele>
        <time>2025-04-09T12:37:33.000Z</time>
      </trkpt>
      <trkpt lat="43.5538" lon="6.24536">
        <ele>219.2</ele>
        <time>2025-04-09T12:37:34.000Z</time>
      </trkpt>
      <trkpt lat="43.5538" lon="6.24536">
        <ele>219.2</ele>
        <time>2025-04-09T12:37:35.000Z</time>
      </trkpt>
      <trkpt lat="43.55381" lon="6.24538">
        <ele>219.2</ele>
        <time>2025-04-09T12:37:36.000Z</time>
      </trkpt>
      <trkpt lat="43.55388" lon="6.24539">
        <ele>219.4</ele>
        <time>2025-04-09T12:37:49.000Z</time>
      </trkpt>
      <trkpt lat="43.55388" lon="6.24539">
        <ele>219.4</ele>
        <time>2025-04-09T12:37:50.000Z</time>
      </trkpt>
      <trkpt lat="43.55388" lon="6.24539">
        <ele>219.4</ele>
        <time>2025-04-09T12:37:51.000Z</time>
      </trkpt>
      <trkpt lat="43.55389" lon="6.24539">
        <ele>219.6</ele>
        <time>2025-04-09T12:37:54.000Z</time>
      </trkpt>
      <trkpt lat="43.55389" lon="6.24539">
        <ele>219.6</ele>
        <time>2025-04-09T12:37:55.000Z</time>
      </trkpt>
      <trkpt lat="43.55389" lon="6.24539">
        <ele>219.6</ele>
        <time>2025-04-09T12:37:56.000Z</time>
      </trkpt>
      <trkpt lat="43.55389" lon="6.24539">
        <ele>219.7</ele>
        <time>2025-04-09T12:37:57.000Z</time>
      </trkpt>
      <trkpt lat="43.55389" lon="6.24539">
        <ele>219.7</ele>
        <time>2025-04-09T12:37:58.000Z</time>
      </trkpt>
      <trkpt lat="43.5539" lon="6.24537">
        <ele>219.8</ele>
        <time>2025-04-09T12:38:04.000Z</time>
      </trkpt>
      <trkpt lat="43.5539" lon="6.24537">
        <ele>219.8</ele>
        <time>2025-04-09T12:38:05.000Z</time>
      </trkpt>
      <trkpt lat="43.5539" lon="6.24537">
        <ele>219.9</ele>
        <time>2025-04-09T12:38:06.000Z</time>
      </trkpt>
      <trkpt lat="43.55391" lon="6.24539">
        <ele>220</ele>
        <time>2025-04-09T12:38:09.000Z</time>
      </trkpt>
      <trkpt lat="43.55391" lon="6.24539">
        <ele>220.1</ele>
        <time>2025-04-09T12:38:10.000Z</time>
      </trkpt>
      <trkpt lat="43.5539" lon="6.2454">
        <ele>220.4</ele>
        <time>2025-04-09T12:38:19.000Z</time>
      </trkpt>
      <trkpt lat="43.55389" lon="6.2454">
        <ele>220.4</ele>
        <time>2025-04-09T12:38:20.000Z</time>
      </trkpt>
      <trkpt lat="43.5538" lon="6.24538">
        <ele>220.3</ele>
        <time>2025-04-09T12:38:29.000Z</time>
      </trkpt>
      <trkpt lat="43.55383" lon="6.2455">
        <ele>219.8</ele>
        <time>2025-04-09T12:38:43.000Z</time>
      </trkpt>
      <trkpt lat="43.55387" lon="6.24554">
        <ele>219.8</ele>
        <time>2025-04-09T12:38:51.000Z</time>
      </trkpt>
      <trkpt lat="43.55387" lon="6.24554">
        <ele>219.8</ele>
        <time>2025-04-09T12:38:52.000Z</time>
      </trkpt>
      <trkpt lat="43.55387" lon="6.24554">
        <ele>219.8</ele>
        <time>2025-04-09T12:38:53.000Z</time>
      </trkpt>
      <trkpt lat="43.55388" lon="6.24554">
        <ele>219.8</ele>
        <time>2025-04-09T12:38:56.000Z</time>
      </trkpt>
      <trkpt lat="43.55388" lon="6.24554">
        <ele>219.8</ele>
        <time>2025-04-09T12:38:57.000Z</time>
      </trkpt>
      <trkpt lat="43.55388" lon="6.24554">
        <ele>219.8</ele>
        <time>2025-04-09T12:38:58.000Z</time>
      </trkpt>
      <trkpt lat="43.55388" lon="6.24554">
        <ele>219.7</ele>
        <time>2025-04-09T12:38:59.000Z</time>
      </trkpt>
      <trkpt lat="43.55388" lon="6.24554">
        <ele>219.7</ele>
        <time>2025-04-09T12:39:00.000Z</time>
      </trkpt>
      <trkpt lat="43.55388" lon="6.24553">
        <ele>219.7</ele>
        <time>2025-04-09T12:39:09.000Z</time>
      </trkpt>
      <trkpt lat="43.55389" lon="6.24554">
        <ele>219.7</ele>
        <time>2025-04-09T12:39:10.000Z</time>
      </trkpt>
      <trkpt lat="43.55389" lon="6.24555">
        <ele>219.7</ele>
        <time>2025-04-09T12:39:11.000Z</time>
      </trkpt>
      <trkpt lat="43.55398" lon="6.24561">
        <ele>219.7</ele>
        <time>2025-04-09T12:39:20.000Z</time>
      </trkpt>
      <trkpt lat="43.55405" lon="6.24571">
        <ele>219.7</ele>
        <time>2025-04-09T12:39:29.000Z</time>
      </trkpt>
      <trkpt lat="43.55413" lon="6.24578">
        <ele>219.7</ele>
        <time>2025-04-09T12:39:38.000Z</time>
      </trkpt>
      <trkpt lat="43.5542" lon="6.24588">
        <ele>219.7</ele>
        <time>2025-04-09T12:39:49.000Z</time>
      </trkpt>
      <trkpt lat="43.55427" lon="6.24596">
        <ele>219.9</ele>
        <time>2025-04-09T12:39:59.000Z</time>
      </trkpt>
      <trkpt lat="43.55435" lon="6.24604">
        <ele>220.1</ele>
        <time>2025-04-09T12:40:07.000Z</time>
      </trkpt>
      <trkpt lat="43.5544" lon="6.24614">
        <ele>220.4</ele>
        <time>2025-04-09T12:40:16.000Z</time>
      </trkpt>
      <trkpt lat="43.55446" lon="6.24623">
        <ele>220.5</ele>
        <time>2025-04-09T12:40:27.000Z</time>
      </trkpt>
      <trkpt lat="43.5545" lon="6.24635">
        <ele>220.8</ele>
        <time>2025-04-09T12:40:39.000Z</time>
      </trkpt>
      <trkpt lat="43.55453" lon="6.24648">
        <ele>221.3</ele>
        <time>2025-04-09T12:40:51.000Z</time>
      </trkpt>
      <trkpt lat="43.55455" lon="6.24661">
        <ele>222.4</ele>
        <time>2025-04-09T12:41:04.000Z</time>
      </trkpt>
      <trkpt lat="43.55455" lon="6.24674">
        <ele>224</ele>
        <time>2025-04-09T12:41:18.000Z</time>
      </trkpt>
      <trkpt lat="43.55458" lon="6.24687">
        <ele>225.4</ele>
        <time>2025-04-09T12:41:29.000Z</time>
      </trkpt>
      <trkpt lat="43.5546" lon="6.24699">
        <ele>226.6</ele>
        <time>2025-04-09T12:41:39.000Z</time>
      </trkpt>
      <trkpt lat="43.55461" lon="6.24712">
        <ele>229.2</ele>
        <time>2025-04-09T12:41:57.000Z</time>
      </trkpt>
      <trkpt lat="43.55459" lon="6.24725">
        <ele>231.6</ele>
        <time>2025-04-09T12:42:12.000Z</time>
      </trkpt>
      <trkpt lat="43.55459" lon="6.24737">
        <ele>233.2</ele>
        <time>2025-04-09T12:42:24.000Z</time>
      </trkpt>
      <trkpt lat="43.55458" lon="6.2475">
        <ele>234.4</ele>
        <time>2025-04-09T12:42:34.000Z</time>
      </trkpt>
      <trkpt lat="43.5546" lon="6.24762">
        <ele>236</ele>
        <time>2025-04-09T12:42:49.000Z</time>
      </trkpt>
      <trkpt lat="43.55459" lon="6.24775">
        <ele>237.5</ele>
        <time>2025-04-09T12:42:59.000Z</time>
      </trkpt>
      <trkpt lat="43.5546" lon="6.24788">
        <ele>239.1</ele>
        <time>2025-04-09T12:43:12.000Z</time>
      </trkpt>
      <trkpt lat="43.55459" lon="6.24801">
        <ele>240.8</ele>
        <time>2025-04-09T12:43:25.000Z</time>
      </trkpt>
      <trkpt lat="43.55457" lon="6.24813">
        <ele>242.9</ele>
        <time>2025-04-09T12:43:43.000Z</time>
      </trkpt>
      <trkpt lat="43.55448" lon="6.24819">
        <ele>244.4</ele>
        <time>2025-04-09T12:43:56.000Z</time>
      </trkpt>
      <trkpt lat="43.55446" lon="6.24832">
        <ele>246.5</ele>
        <time>2025-04-09T12:44:11.000Z</time>
      </trkpt>
      <trkpt lat="43.55438" lon="6.24841">
        <ele>249.5</ele>
        <time>2025-04-09T12:44:30.000Z</time>
      </trkpt>
      <trkpt lat="43.55429" lon="6.24839">
        <ele>251.8</ele>
        <time>2025-04-09T12:44:44.000Z</time>
      </trkpt>
      <trkpt lat="43.5542" lon="6.24836">
        <ele>253</ele>
        <time>2025-04-09T12:44:59.000Z</time>
      </trkpt>
      <trkpt lat="43.55412" lon="6.24831">
        <ele>254.9</ele>
        <time>2025-04-09T12:45:12.000Z</time>
      </trkpt>
      <trkpt lat="43.55403" lon="6.24831">
        <ele>257.9</ele>
        <time>2025-04-09T12:45:32.000Z</time>
      </trkpt>
      <trkpt lat="43.55394" lon="6.24825">
        <ele>260.1</ele>
        <time>2025-04-09T12:45:49.000Z</time>
      </trkpt>
      <trkpt lat="43.55385" lon="6.24826">
        <ele>261.6</ele>
        <time>2025-04-09T12:46:03.000Z</time>
      </trkpt>
      <trkpt lat="43.55378" lon="6.24817">
        <ele>262.9</ele>
        <time>2025-04-09T12:46:13.000Z</time>
      </trkpt>
      <trkpt lat="43.55368" lon="6.24819">
        <ele>265</ele>
        <time>2025-04-09T12:46:27.000Z</time>
      </trkpt>
      <trkpt lat="43.55371" lon="6.24831">
        <ele>267.3</ele>
        <time>2025-04-09T12:46:44.000Z</time>
      </trkpt>
      <trkpt lat="43.55374" lon="6.24843">
        <ele>269.4</ele>
        <time>2025-04-09T12:47:00.000Z</time>
      </trkpt>
      <trkpt lat="43.55365" lon="6.24848">
        <ele>271</ele>
        <time>2025-04-09T12:47:12.000Z</time>
      </trkpt>
      <trkpt lat="43.5536" lon="6.2486">
        <ele>272</ele>
        <time>2025-04-09T12:47:22.000Z</time>
      </trkpt>
      <trkpt lat="43.55355" lon="6.24871">
        <ele>272.6</ele>
        <time>2025-04-09T12:47:34.000Z</time>
      </trkpt>
      <trkpt lat="43.55347" lon="6.24878">
        <ele>273.3</ele>
        <time>2025-04-09T12:47:44.000Z</time>
      </trkpt>
      <trkpt lat="43.55343" lon="6.2489">
        <ele>274.2</ele>
        <time>2025-04-09T12:47:57.000Z</time>
      </trkpt>
      <trkpt lat="43.55338" lon="6.249">
        <ele>276.5</ele>
        <time>2025-04-09T12:48:12.000Z</time>
      </trkpt>
      <trkpt lat="43.55337" lon="6.24913">
        <ele>278.3</ele>
        <time>2025-04-09T12:48:23.000Z</time>
      </trkpt>
      <trkpt lat="43.55328" lon="6.2492">
        <ele>280.2</ele>
        <time>2025-04-09T12:48:40.000Z</time>
      </trkpt>
      <trkpt lat="43.55326" lon="6.24934">
        <ele>281.5</ele>
        <time>2025-04-09T12:48:50.000Z</time>
      </trkpt>
      <trkpt lat="43.55322" lon="6.24945">
        <ele>283</ele>
        <time>2025-04-09T12:49:03.000Z</time>
      </trkpt>
      <trkpt lat="43.55312" lon="6.2495">
        <ele>286.7</ele>
        <time>2025-04-09T12:49:28.000Z</time>
      </trkpt>
      <trkpt lat="43.55303" lon="6.24951">
        <ele>288.9</ele>
        <time>2025-04-09T12:49:43.000Z</time>
      </trkpt>
      <trkpt lat="43.55306" lon="6.24964">
        <ele>291.6</ele>
        <time>2025-04-09T12:50:06.000Z</time>
      </trkpt>
      <trkpt lat="43.55306" lon="6.24977">
        <ele>292.3</ele>
        <time>2025-04-09T12:50:17.000Z</time>
      </trkpt>
      <trkpt lat="43.55307" lon="6.2499">
        <ele>292.6</ele>
        <time>2025-04-09T12:50:24.000Z</time>
      </trkpt>
      <trkpt lat="43.5531" lon="6.25003">
        <ele>292.9</ele>
        <time>2025-04-09T12:50:30.000Z</time>
      </trkpt>
      <trkpt lat="43.5531" lon="6.25016">
        <ele>293.3</ele>
        <time>2025-04-09T12:50:39.000Z</time>
      </trkpt>
      <trkpt lat="43.5531" lon="6.25029">
        <ele>294.2</ele>
        <time>2025-04-09T12:50:51.000Z</time>
      </trkpt>
      <trkpt lat="43.55305" lon="6.25039">
        <ele>295.3</ele>
        <time>2025-04-09T12:51:03.000Z</time>
      </trkpt>
      <trkpt lat="43.55304" lon="6.25051">
        <ele>297.7</ele>
        <time>2025-04-09T12:51:15.000Z</time>
      </trkpt>
      <trkpt lat="43.55295" lon="6.25049">
        <ele>300</ele>
        <time>2025-04-09T12:51:39.000Z</time>
      </trkpt>
      <trkpt lat="43.55289" lon="6.25039">
        <ele>302.5</ele>
        <time>2025-04-09T12:51:56.000Z</time>
      </trkpt>
      <trkpt lat="43.55282" lon="6.25029">
        <ele>305.5</ele>
        <time>2025-04-09T12:52:13.000Z</time>
      </trkpt>
      <trkpt lat="43.55275" lon="6.25022">
        <ele>307.8</ele>
        <time>2025-04-09T12:52:32.000Z</time>
      </trkpt>
      <trkpt lat="43.55273" lon="6.2501">
        <ele>309.5</ele>
        <time>2025-04-09T12:52:44.000Z</time>
      </trkpt>
      <trkpt lat="43.55271" lon="6.24997">
        <ele>312.1</ele>
        <time>2025-04-09T12:53:02.000Z</time>
      </trkpt>
      <trkpt lat="43.55264" lon="6.24988">
        <ele>313.6</ele>
        <time>2025-04-09T12:53:14.000Z</time>
      </trkpt>
      <trkpt lat="43.55255" lon="6.24986">
        <ele>314.2</ele>
        <time>2025-04-09T12:53:22.000Z</time>
      </trkpt>
      <trkpt lat="43.55247" lon="6.24993">
        <ele>315</ele>
        <time>2025-04-09T12:53:32.000Z</time>
      </trkpt>
      <trkpt lat="43.55241" lon="6.25004">
        <ele>317.2</ele>
        <time>2025-04-09T12:53:49.000Z</time>
      </trkpt>
      <trkpt lat="43.55238" lon="6.25016">
        <ele>319.6</ele>
        <time>2025-04-09T12:54:06.000Z</time>
      </trkpt>
      <trkpt lat="43.55235" lon="6.25028">
        <ele>321.2</ele>
        <time>2025-04-09T12:54:18.000Z</time>
      </trkpt>
      <trkpt lat="43.55233" lon="6.25041">
        <ele>322.4</ele>
        <time>2025-04-09T12:54:28.000Z</time>
      </trkpt>
      <trkpt lat="43.55229" lon="6.25052">
        <ele>324.1</ele>
        <time>2025-04-09T12:54:40.000Z</time>
      </trkpt>
      <trkpt lat="43.55226" lon="6.25065">
        <ele>325.4</ele>
        <time>2025-04-09T12:54:52.000Z</time>
      </trkpt>
      <trkpt lat="43.55222" lon="6.25076">
        <ele>327.4</ele>
        <time>2025-04-09T12:55:05.000Z</time>
      </trkpt>
      <trkpt lat="43.55218" lon="6.25088">
        <ele>330.6</ele>
        <time>2025-04-09T12:55:26.000Z</time>
      </trkpt>
      <trkpt lat="43.55211" lon="6.25097">
        <ele>332.4</ele>
        <time>2025-04-09T12:55:39.000Z</time>
      </trkpt>
      <trkpt lat="43.55202" lon="6.25101">
        <ele>334.3</ele>
        <time>2025-04-09T12:55:53.000Z</time>
      </trkpt>
      <trkpt lat="43.55199" lon="6.25113">
        <ele>335.9</ele>
        <time>2025-04-09T12:56:06.000Z</time>
      </trkpt>
      <trkpt lat="43.55193" lon="6.25123">
        <ele>337.2</ele>
        <time>2025-04-09T12:56:16.000Z</time>
      </trkpt>
      <trkpt lat="43.55186" lon="6.25131">
        <ele>338.2</ele>
        <time>2025-04-09T12:56:27.000Z</time>
      </trkpt>
      <trkpt lat="43.55182" lon="6.25143">
        <ele>339.3</ele>
        <time>2025-04-09T12:56:40.000Z</time>
      </trkpt>
      <trkpt lat="43.55182" lon="6.25149">
        <ele>340.1</ele>
        <time>2025-04-09T12:56:52.000Z</time>
      </trkpt>
      <trkpt lat="43.55182" lon="6.2515">
        <ele>340.1</ele>
        <time>2025-04-09T12:56:53.000Z</time>
      </trkpt>
      <trkpt lat="43.55182" lon="6.2515">
        <ele>340.2</ele>
        <time>2025-04-09T12:56:54.000Z</time>
      </trkpt>
      <trkpt lat="43.55182" lon="6.2515">
        <ele>340.3</ele>
        <time>2025-04-09T12:56:55.000Z</time>
      </trkpt>
      <trkpt lat="43.55182" lon="6.2515">
        <ele>340.4</ele>
        <time>2025-04-09T12:56:56.000Z</time>
      </trkpt>
      <trkpt lat="43.55183" lon="6.25155">
        <ele>340.7</ele>
        <time>2025-04-09T12:57:04.000Z</time>
      </trkpt>
      <trkpt lat="43.55183" lon="6.25155">
        <ele>340.7</ele>
        <time>2025-04-09T12:57:05.000Z</time>
      </trkpt>
      <trkpt lat="43.55182" lon="6.25155">
        <ele>340.6</ele>
        <time>2025-04-09T12:57:06.000Z</time>
      </trkpt>
      <trkpt lat="43.55182" lon="6.25155">
        <ele>340.6</ele>
        <time>2025-04-09T12:57:07.000Z</time>
      </trkpt>
      <trkpt lat="43.55182" lon="6.25155">
        <ele>340.6</ele>
        <time>2025-04-09T12:57:08.000Z</time>
      </trkpt>
      <trkpt lat="43.55182" lon="6.25155">
        <ele>340.7</ele>
        <time>2025-04-09T12:57:09.000Z</time>
      </trkpt>
      <trkpt lat="43.55182" lon="6.25155">
        <ele>340.7</ele>
        <time>2025-04-09T12:57:12.000Z</time>
      </trkpt>
      <trkpt lat="43.55182" lon="6.25155">
        <ele>340.7</ele>
        <time>2025-04-09T12:57:13.000Z</time>
      </trkpt>
      <trkpt lat="43.55182" lon="6.25156">
        <ele>340.7</ele>
        <time>2025-04-09T12:57:19.000Z</time>
      </trkpt>
      <trkpt lat="43.55182" lon="6.25156">
        <ele>340.7</ele>
        <time>2025-04-09T12:57:20.000Z</time>
      </trkpt>
      <trkpt lat="43.55183" lon="6.25155">
        <ele>340.7</ele>
        <time>2025-04-09T12:57:21.000Z</time>
      </trkpt>
      <trkpt lat="43.55182" lon="6.25157">
        <ele>340.7</ele>
        <time>2025-04-09T12:57:27.000Z</time>
      </trkpt>
      <trkpt lat="43.55182" lon="6.25157">
        <ele>340.6</ele>
        <time>2025-04-09T12:57:28.000Z</time>
      </trkpt>
      <trkpt lat="43.55182" lon="6.25157">
        <ele>340.6</ele>
        <time>2025-04-09T12:57:29.000Z</time>
      </trkpt>
      <trkpt lat="43.55183" lon="6.25155">
        <ele>340.5</ele>
        <time>2025-04-09T12:57:41.000Z</time>
      </trkpt>
      <trkpt lat="43.55184" lon="6.25155">
        <ele>340.4</ele>
        <time>2025-04-09T12:57:42.000Z</time>
      </trkpt>
      <trkpt lat="43.55184" lon="6.25155">
        <ele>340.4</ele>
        <time>2025-04-09T12:57:43.000Z</time>
      </trkpt>
      <trkpt lat="43.55183" lon="6.25155">
        <ele>340.4</ele>
        <time>2025-04-09T12:57:44.000Z</time>
      </trkpt>
      <trkpt lat="43.55184" lon="6.25155">
        <ele>340.4</ele>
        <time>2025-04-09T12:57:45.000Z</time>
      </trkpt>
      <trkpt lat="43.55184" lon="6.25157">
        <ele>340.3</ele>
        <time>2025-04-09T12:58:02.000Z</time>
      </trkpt>
      <trkpt lat="43.55184" lon="6.25157">
        <ele>340.3</ele>
        <time>2025-04-09T12:58:03.000Z</time>
      </trkpt>
      <trkpt lat="43.55185" lon="6.25158">
        <ele>340.2</ele>
        <time>2025-04-09T12:58:15.000Z</time>
      </trkpt>
      <trkpt lat="43.55185" lon="6.25158">
        <ele>340.2</ele>
        <time>2025-04-09T12:58:16.000Z</time>
      </trkpt>
      <trkpt lat="43.55184" lon="6.25159">
        <ele>340.2</ele>
        <time>2025-04-09T12:58:22.000Z</time>
      </trkpt>
      <trkpt lat="43.55183" lon="6.25159">
        <ele>340.2</ele>
        <time>2025-04-09T12:58:23.000Z</time>
      </trkpt>
      <trkpt lat="43.55186" lon="6.25154">
        <ele>340.1</ele>
        <time>2025-04-09T12:58:41.000Z</time>
      </trkpt>
      <trkpt lat="43.55186" lon="6.25154">
        <ele>340.1</ele>
        <time>2025-04-09T12:58:42.000Z</time>
      </trkpt>
      <trkpt lat="43.55186" lon="6.25154">
        <ele>340.1</ele>
        <time>2025-04-09T12:58:43.000Z</time>
      </trkpt>
      <trkpt lat="43.55186" lon="6.25154">
        <ele>340.1</ele>
        <time>2025-04-09T12:58:52.000Z</time>
      </trkpt>
      <trkpt lat="43.55186" lon="6.25153">
        <ele>340.1</ele>
        <time>2025-04-09T12:58:53.000Z</time>
      </trkpt>
      <trkpt lat="43.55186" lon="6.25153">
        <ele>340.1</ele>
        <time>2025-04-09T12:58:59.000Z</time>
      </trkpt>
      <trkpt lat="43.55186" lon="6.25153">
        <ele>340.1</ele>
        <time>2025-04-09T12:59:00.000Z</time>
      </trkpt>
      <trkpt lat="43.55186" lon="6.25153">
        <ele>340.1</ele>
        <time>2025-04-09T12:59:16.000Z</time>
      </trkpt>
      <trkpt lat="43.55186" lon="6.25153">
        <ele>340.1</ele>
        <time>2025-04-09T12:59:17.000Z</time>
      </trkpt>
      <trkpt lat="43.55186" lon="6.25154">
        <ele>340.1</ele>
        <time>2025-04-09T12:59:18.000Z</time>
      </trkpt>
      <trkpt lat="43.55186" lon="6.25154">
        <ele>340.1</ele>
        <time>2025-04-09T12:59:19.000Z</time>
      </trkpt>
      <trkpt lat="43.55186" lon="6.25154">
        <ele>340.1</ele>
        <time>2025-04-09T12:59:20.000Z</time>
      </trkpt>
      <trkpt lat="43.55185" lon="6.25154">
        <ele>340</ele>
        <time>2025-04-09T12:59:54.000Z</time>
      </trkpt>
      <trkpt lat="43.55184" lon="6.25154">
        <ele>340</ele>
        <time>2025-04-09T12:59:55.000Z</time>
      </trkpt>
      <trkpt lat="43.55176" lon="6.25161">
        <ele>340</ele>
        <time>2025-04-09T13:00:11.000Z</time>
      </trkpt>
      <trkpt lat="43.55174" lon="6.25175">
        <ele>342</ele>
        <time>2025-04-09T13:00:26.000Z</time>
      </trkpt>
      <trkpt lat="43.55171" lon="6.25186">
        <ele>344.9</ele>
        <time>2025-04-09T13:00:43.000Z</time>
      </trkpt>
      <trkpt lat="43.55165" lon="6.25196">
        <ele>346</ele>
        <time>2025-04-09T13:00:53.000Z</time>
      </trkpt>
      <trkpt lat="43.55162" lon="6.25208">
        <ele>347.6</ele>
        <time>2025-04-09T13:01:03.000Z</time>
      </trkpt>
      <trkpt lat="43.55158" lon="6.25219">
        <ele>350.6</ele>
        <time>2025-04-09T13:01:23.000Z</time>
      </trkpt>
      <trkpt lat="43.55151" lon="6.25227">
        <ele>353</ele>
        <time>2025-04-09T13:01:40.000Z</time>
      </trkpt>
      <trkpt lat="43.55143" lon="6.25235">
        <ele>355.4</ele>
        <time>2025-04-09T13:01:58.000Z</time>
      </trkpt>
      <trkpt lat="43.55136" lon="6.25243">
        <ele>357.7</ele>
        <time>2025-04-09T13:02:12.000Z</time>
      </trkpt>
      <trkpt lat="43.55135" lon="6.25242">
        <ele>358.2</ele>
        <time>2025-04-09T13:02:17.000Z</time>
      </trkpt>
      <trkpt lat="43.55135" lon="6.25241">
        <ele>358.2</ele>
        <time>2025-04-09T13:02:18.000Z</time>
      </trkpt>
      <trkpt lat="43.55135" lon="6.25241">
        <ele>358.3</ele>
        <time>2025-04-09T13:02:19.000Z</time>
      </trkpt>
      <trkpt lat="43.55135" lon="6.25241">
        <ele>358.3</ele>
        <time>2025-04-09T13:02:20.000Z</time>
      </trkpt>
      <trkpt lat="43.55135" lon="6.25241">
        <ele>358.3</ele>
        <time>2025-04-09T13:02:21.000Z</time>
      </trkpt>
      <trkpt lat="43.55135" lon="6.25241">
        <ele>358.3</ele>
        <time>2025-04-09T13:02:22.000Z</time>
      </trkpt>
      <trkpt lat="43.55135" lon="6.25241">
        <ele>358.4</ele>
        <time>2025-04-09T13:02:23.000Z</time>
      </trkpt>
      <trkpt lat="43.55135" lon="6.25242">
        <ele>358.4</ele>
        <time>2025-04-09T13:02:27.000Z</time>
      </trkpt>
      <trkpt lat="43.55135" lon="6.25242">
        <ele>358.4</ele>
        <time>2025-04-09T13:02:28.000Z</time>
      </trkpt>
      <trkpt lat="43.55135" lon="6.25243">
        <ele>358.4</ele>
        <time>2025-04-09T13:02:29.000Z</time>
      </trkpt>
      <trkpt lat="43.55137" lon="6.25243">
        <ele>358.5</ele>
        <time>2025-04-09T13:02:39.000Z</time>
      </trkpt>
      <trkpt lat="43.55137" lon="6.25243">
        <ele>358.5</ele>
        <time>2025-04-09T13:02:40.000Z</time>
      </trkpt>
      <trkpt lat="43.55137" lon="6.25243">
        <ele>358.5</ele>
        <time>2025-04-09T13:02:49.000Z</time>
      </trkpt>
      <trkpt lat="43.55137" lon="6.25243">
        <ele>358.5</ele>
        <time>2025-04-09T13:02:50.000Z</time>
      </trkpt>
      <trkpt lat="43.55137" lon="6.25243">
        <ele>358.5</ele>
        <time>2025-04-09T13:02:51.000Z</time>
      </trkpt>
      <trkpt lat="43.55137" lon="6.25243">
        <ele>358.5</ele>
        <time>2025-04-09T13:02:52.000Z</time>
      </trkpt>
      <trkpt lat="43.55137" lon="6.25243">
        <ele>358.5</ele>
        <time>2025-04-09T13:02:53.000Z</time>
      </trkpt>
      <trkpt lat="43.55137" lon="6.25242">
        <ele>358.4</ele>
        <time>2025-04-09T13:03:01.000Z</time>
      </trkpt>
      <trkpt lat="43.55137" lon="6.25242">
        <ele>358.3</ele>
        <time>2025-04-09T13:03:02.000Z</time>
      </trkpt>
      <trkpt lat="43.55137" lon="6.25242">
        <ele>358.3</ele>
        <time>2025-04-09T13:03:03.000Z</time>
      </trkpt>
      <trkpt lat="43.55137" lon="6.25242">
        <ele>358.5</ele>
        <time>2025-04-09T13:03:07.000Z</time>
      </trkpt>
      <trkpt lat="43.55137" lon="6.25242">
        <ele>358.5</ele>
        <time>2025-04-09T13:03:08.000Z</time>
      </trkpt>
      <trkpt lat="43.55137" lon="6.25242">
        <ele>358.5</ele>
        <time>2025-04-09T13:03:09.000Z</time>
      </trkpt>
      <trkpt lat="43.55137" lon="6.25242">
        <ele>358.5</ele>
        <time>2025-04-09T13:03:10.000Z</time>
      </trkpt>
      <trkpt lat="43.55137" lon="6.25242">
        <ele>358.5</ele>
        <time>2025-04-09T13:03:11.000Z</time>
      </trkpt>
      <trkpt lat="43.55137" lon="6.25242">
        <ele>358.5</ele>
        <time>2025-04-09T13:03:12.000Z</time>
      </trkpt>
      <trkpt lat="43.55137" lon="6.25242">
        <ele>358.6</ele>
        <time>2025-04-09T13:03:13.000Z</time>
      </trkpt>
      <trkpt lat="43.55137" lon="6.25242">
        <ele>358.6</ele>
        <time>2025-04-09T13:03:22.000Z</time>
      </trkpt>
      <trkpt lat="43.55137" lon="6.25243">
        <ele>358.6</ele>
        <time>2025-04-09T13:03:23.000Z</time>
      </trkpt>
      <trkpt lat="43.55136" lon="6.25243">
        <ele>358.6</ele>
        <time>2025-04-09T13:03:24.000Z</time>
      </trkpt>
      <trkpt lat="43.55136" lon="6.25243">
        <ele>358.5</ele>
        <time>2025-04-09T13:03:31.000Z</time>
      </trkpt>
      <trkpt lat="43.55136" lon="6.25244">
        <ele>358.4</ele>
        <time>2025-04-09T13:03:32.000Z</time>
      </trkpt>
      <trkpt lat="43.55136" lon="6.25245">
        <ele>358.4</ele>
        <time>2025-04-09T13:03:33.000Z</time>
      </trkpt>
      <trkpt lat="43.55136" lon="6.25246">
        <ele>358.4</ele>
        <time>2025-04-09T13:03:34.000Z</time>
      </trkpt>
      <trkpt lat="43.55136" lon="6.25248">
        <ele>358.4</ele>
        <time>2025-04-09T13:03:35.000Z</time>
      </trkpt>
      <trkpt lat="43.55134" lon="6.2526">
        <ele>358.5</ele>
        <time>2025-04-09T13:03:46.000Z</time>
      </trkpt>
      <trkpt lat="43.55136" lon="6.25272">
        <ele>359.5</ele>
        <time>2025-04-09T13:03:59.000Z</time>
      </trkpt>
      <trkpt lat="43.55134" lon="6.25284">
        <ele>361.9</ele>
        <time>2025-04-09T13:04:15.000Z</time>
      </trkpt>
      <trkpt lat="43.55134" lon="6.25297">
        <ele>364.3</ele>
        <time>2025-04-09T13:04:33.000Z</time>
      </trkpt>
      <trkpt lat="43.55134" lon="6.2531">
        <ele>366.5</ele>
        <time>2025-04-09T13:04:49.000Z</time>
      </trkpt>
      <trkpt lat="43.55132" lon="6.25322">
        <ele>368.7</ele>
        <time>2025-04-09T13:05:05.000Z</time>
      </trkpt>
      <trkpt lat="43.55136" lon="6.25334">
        <ele>370.7</ele>
        <time>2025-04-09T13:05:18.000Z</time>
      </trkpt>
      <trkpt lat="43.55137" lon="6.25334">
        <ele>371.4</ele>
        <time>2025-04-09T13:05:22.000Z</time>
      </trkpt>
      <trkpt lat="43.55137" lon="6.25334">
        <ele>371.4</ele>
        <time>2025-04-09T13:05:23.000Z</time>
      </trkpt>
      <trkpt lat="43.55137" lon="6.25335">
        <ele>371.4</ele>
        <time>2025-04-09T13:05:24.000Z</time>
      </trkpt>
      <trkpt lat="43.55138" lon="6.25335">
        <ele>371.5</ele>
        <time>2025-04-09T13:05:25.000Z</time>
      </trkpt>
      <trkpt lat="43.55134" lon="6.25347">
        <ele>373.7</ele>
        <time>2025-04-09T13:05:46.000Z</time>
      </trkpt>
      <trkpt lat="43.55131" lon="6.25359">
        <ele>375.8</ele>
        <time>2025-04-09T13:06:02.000Z</time>
      </trkpt>
      <trkpt lat="43.55133" lon="6.25371">
        <ele>378.4</ele>
        <time>2025-04-09T13:06:21.000Z</time>
      </trkpt>
      <trkpt lat="43.55135" lon="6.25383">
        <ele>380.1</ele>
        <time>2025-04-09T13:06:34.000Z</time>
      </trkpt>
      <trkpt lat="43.55131" lon="6.25395">
        <ele>381.8</ele>
        <time>2025-04-09T13:06:46.000Z</time>
      </trkpt>
      <trkpt lat="43.55133" lon="6.25408">
        <ele>384</ele>
        <time>2025-04-09T13:07:05.000Z</time>
      </trkpt>
      <trkpt lat="43.55136" lon="6.25419">
        <ele>384.9</ele>
        <time>2025-04-09T13:07:13.000Z</time>
      </trkpt>
      <trkpt lat="43.55135" lon="6.25433">
        <ele>386.5</ele>
        <time>2025-04-09T13:07:25.000Z</time>
      </trkpt>
      <trkpt lat="43.55137" lon="6.2543">
        <ele>387.6</ele>
        <time>2025-04-09T13:07:42.000Z</time>
      </trkpt>
      <trkpt lat="43.55137" lon="6.25431">
        <ele>387.6</ele>
        <time>2025-04-09T13:07:43.000Z</time>
      </trkpt>
      <trkpt lat="43.55137" lon="6.25432">
        <ele>387.6</ele>
        <time>2025-04-09T13:07:44.000Z</time>
      </trkpt>
      <trkpt lat="43.55138" lon="6.25434">
        <ele>387.7</ele>
        <time>2025-04-09T13:07:45.000Z</time>
      </trkpt>
      <trkpt lat="43.55139" lon="6.25435">
        <ele>387.7</ele>
        <time>2025-04-09T13:07:46.000Z</time>
      </trkpt>
      <trkpt lat="43.55142" lon="6.25447">
        <ele>388.3</ele>
        <time>2025-04-09T13:07:59.000Z</time>
      </trkpt>
      <trkpt lat="43.55145" lon="6.25459">
        <ele>388.5</ele>
        <time>2025-04-09T13:08:09.000Z</time>
      </trkpt>
      <trkpt lat="43.5515" lon="6.25471">
        <ele>389</ele>
        <time>2025-04-09T13:08:19.000Z</time>
      </trkpt>
      <trkpt lat="43.55155" lon="6.25482">
        <ele>389.7</ele>
        <time>2025-04-09T13:08:31.000Z</time>
      </trkpt>
      <trkpt lat="43.55158" lon="6.25494">
        <ele>390.4</ele>
        <time>2025-04-09T13:08:44.000Z</time>
      </trkpt>
      <trkpt lat="43.55159" lon="6.25506">
        <ele>391.1</ele>
        <time>2025-04-09T13:08:53.000Z</time>
      </trkpt>
      <trkpt lat="43.55164" lon="6.25517">
        <ele>391.6</ele>
        <time>2025-04-09T13:09:01.000Z</time>
      </trkpt>
      <trkpt lat="43.55167" lon="6.25529">
        <ele>391.8</ele>
        <time>2025-04-09T13:09:13.000Z</time>
      </trkpt>
      <trkpt lat="43.55168" lon="6.25542">
        <ele>392.4</ele>
        <time>2025-04-09T13:09:23.000Z</time>
      </trkpt>
      <trkpt lat="43.55166" lon="6.25555">
        <ele>393.6</ele>
        <time>2025-04-09T13:09:39.000Z</time>
      </trkpt>
      <trkpt lat="43.55168" lon="6.25563">
        <ele>394.2</ele>
        <time>2025-04-09T13:09:49.000Z</time>
      </trkpt>
      <trkpt lat="43.55168" lon="6.25562">
        <ele>394.2</ele>
        <time>2025-04-09T13:09:50.000Z</time>
      </trkpt>
      <trkpt lat="43.55168" lon="6.25562">
        <ele>394.2</ele>
        <time>2025-04-09T13:09:51.000Z</time>
      </trkpt>
      <trkpt lat="43.55168" lon="6.25562">
        <ele>394.3</ele>
        <time>2025-04-09T13:09:52.000Z</time>
      </trkpt>
      <trkpt lat="43.55168" lon="6.25562">
        <ele>394.3</ele>
        <time>2025-04-09T13:09:53.000Z</time>
      </trkpt>
      <trkpt lat="43.55169" lon="6.25567">
        <ele>394.3</ele>
        <time>2025-04-09T13:09:59.000Z</time>
      </trkpt>
      <trkpt lat="43.55169" lon="6.25566">
        <ele>394.3</ele>
        <time>2025-04-09T13:10:00.000Z</time>
      </trkpt>
      <trkpt lat="43.55173" lon="6.25565">
        <ele>394.3</ele>
        <time>2025-04-09T13:10:04.000Z</time>
      </trkpt>
      <trkpt lat="43.55174" lon="6.25565">
        <ele>394.3</ele>
        <time>2025-04-09T13:10:05.000Z</time>
      </trkpt>
      <trkpt lat="43.55174" lon="6.25566">
        <ele>394.4</ele>
        <time>2025-04-09T13:10:09.000Z</time>
      </trkpt>
      <trkpt lat="43.55174" lon="6.25566">
        <ele>394.5</ele>
        <time>2025-04-09T13:10:10.000Z</time>
      </trkpt>
      <trkpt lat="43.55175" lon="6.25566">
        <ele>394.5</ele>
        <time>2025-04-09T13:10:11.000Z</time>
      </trkpt>
      <trkpt lat="43.55175" lon="6.25566">
        <ele>394.5</ele>
        <time>2025-04-09T13:10:12.000Z</time>
      </trkpt>
      <trkpt lat="43.55175" lon="6.25566">
        <ele>394.5</ele>
        <time>2025-04-09T13:10:13.000Z</time>
      </trkpt>
      <trkpt lat="43.55176" lon="6.25566">
        <ele>394.6</ele>
        <time>2025-04-09T13:10:19.000Z</time>
      </trkpt>
      <trkpt lat="43.55176" lon="6.25566">
        <ele>394.6</ele>
        <time>2025-04-09T13:10:20.000Z</time>
      </trkpt>
      <trkpt lat="43.55176" lon="6.25566">
        <ele>394.6</ele>
        <time>2025-04-09T13:10:21.000Z</time>
      </trkpt>
      <trkpt lat="43.55175" lon="6.25566">
        <ele>394.5</ele>
        <time>2025-04-09T13:10:47.000Z</time>
      </trkpt>
      <trkpt lat="43.55175" lon="6.25567">
        <ele>394.4</ele>
        <time>2025-04-09T13:10:48.000Z</time>
      </trkpt>
      <trkpt lat="43.55174" lon="6.25582">
        <ele>394.4</ele>
        <time>2025-04-09T13:10:56.000Z</time>
      </trkpt>
      <trkpt lat="43.5517" lon="6.25594">
        <ele>394.5</ele>
        <time>2025-04-09T13:11:07.000Z</time>
      </trkpt>
      <trkpt lat="43.55171" lon="6.25594">
        <ele>394.5</ele>
        <time>2025-04-09T13:11:09.000Z</time>
      </trkpt>
      <trkpt lat="43.55171" lon="6.25593">
        <ele>394.5</ele>
        <time>2025-04-09T13:11:10.000Z</time>
      </trkpt>
      <trkpt lat="43.55171" lon="6.25594">
        <ele>394.6</ele>
        <time>2025-04-09T13:11:11.000Z</time>
      </trkpt>
      <trkpt lat="43.55172" lon="6.25594">
        <ele>394.6</ele>
        <time>2025-04-09T13:11:12.000Z</time>
      </trkpt>
      <trkpt lat="43.55171" lon="6.25595">
        <ele>394.6</ele>
        <time>2025-04-09T13:11:13.000Z</time>
      </trkpt>
      <trkpt lat="43.55172" lon="6.25596">
        <ele>394.6</ele>
        <time>2025-04-09T13:11:14.000Z</time>
      </trkpt>
      <trkpt lat="43.55169" lon="6.25608">
        <ele>394.9</ele>
        <time>2025-04-09T13:11:25.000Z</time>
      </trkpt>
      <trkpt lat="43.55166" lon="6.2562">
        <ele>396</ele>
        <time>2025-04-09T13:11:37.000Z</time>
      </trkpt>
      <trkpt lat="43.55162" lon="6.25633">
        <ele>398.7</ele>
        <time>2025-04-09T13:11:55.000Z</time>
      </trkpt>
      <trkpt lat="43.55162" lon="6.25646">
        <ele>400</ele>
        <time>2025-04-09T13:12:05.000Z</time>
      </trkpt>
      <trkpt lat="43.55161" lon="6.25658">
        <ele>402.3</ele>
        <time>2025-04-09T13:12:21.000Z</time>
      </trkpt>
      <trkpt lat="43.55156" lon="6.25669">
        <ele>404.7</ele>
        <time>2025-04-09T13:12:40.000Z</time>
      </trkpt>
      <trkpt lat="43.55161" lon="6.2568">
        <ele>405.3</ele>
        <time>2025-04-09T13:12:51.000Z</time>
      </trkpt>
      <trkpt lat="43.55163" lon="6.25693">
        <ele>405.7</ele>
        <time>2025-04-09T13:13:02.000Z</time>
      </trkpt>
      <trkpt lat="43.55164" lon="6.25706">
        <ele>406.2</ele>
        <time>2025-04-09T13:13:13.000Z</time>
      </trkpt>
      <trkpt lat="43.55172" lon="6.25714">
        <ele>406.7</ele>
        <time>2025-04-09T13:13:23.000Z</time>
      </trkpt>
      <trkpt lat="43.55174" lon="6.25727">
        <ele>407.2</ele>
        <time>2025-04-09T13:13:34.000Z</time>
      </trkpt>
      <trkpt lat="43.55174" lon="6.2574">
        <ele>407.7</ele>
        <time>2025-04-09T13:13:44.000Z</time>
      </trkpt>
      <trkpt lat="43.5518" lon="6.25751">
        <ele>407.7</ele>
        <time>2025-04-09T13:13:56.000Z</time>
      </trkpt>
      <trkpt lat="43.55185" lon="6.25762">
        <ele>407.6</ele>
        <time>2025-04-09T13:14:05.000Z</time>
      </trkpt>
      <trkpt lat="43.55192" lon="6.25771">
        <ele>407.1</ele>
        <time>2025-04-09T13:14:17.000Z</time>
      </trkpt>
      <trkpt lat="43.55192" lon="6.25784">
        <ele>406.6</ele>
        <time>2025-04-09T13:14:26.000Z</time>
      </trkpt>
      <trkpt lat="43.55195" lon="6.25798">
        <ele>405.5</ele>
        <time>2025-04-09T13:14:37.000Z</time>
      </trkpt>
      <trkpt lat="43.55192" lon="6.2581">
        <ele>404.4</ele>
        <time>2025-04-09T13:14:47.000Z</time>
      </trkpt>
      <trkpt lat="43.55192" lon="6.25822">
        <ele>403.7</ele>
        <time>2025-04-09T13:14:56.000Z</time>
      </trkpt>
      <trkpt lat="43.55192" lon="6.25822">
        <ele>403.7</ele>
        <time>2025-04-09T13:14:57.000Z</time>
      </trkpt>
      <trkpt lat="43.55192" lon="6.25822">
        <ele>403.6</ele>
        <time>2025-04-09T13:14:58.000Z</time>
      </trkpt>
      <trkpt lat="43.55192" lon="6.25822">
        <ele>403.3</ele>
        <time>2025-04-09T13:15:04.000Z</time>
      </trkpt>
      <trkpt lat="43.55192" lon="6.25822">
        <ele>403.3</ele>
        <time>2025-04-09T13:15:05.000Z</time>
      </trkpt>
      <trkpt lat="43.55193" lon="6.25822">
        <ele>403.2</ele>
        <time>2025-04-09T13:15:06.000Z</time>
      </trkpt>
      <trkpt lat="43.55193" lon="6.2582">
        <ele>403.1</ele>
        <time>2025-04-09T13:15:10.000Z</time>
      </trkpt>
      <trkpt lat="43.55193" lon="6.2582">
        <ele>403.1</ele>
        <time>2025-04-09T13:15:11.000Z</time>
      </trkpt>
      <trkpt lat="43.55193" lon="6.2582">
        <ele>403.1</ele>
        <time>2025-04-09T13:15:12.000Z</time>
      </trkpt>
      <trkpt lat="43.55193" lon="6.2582">
        <ele>403.1</ele>
        <time>2025-04-09T13:15:13.000Z</time>
      </trkpt>
      <trkpt lat="43.55193" lon="6.25819">
        <ele>403.1</ele>
        <time>2025-04-09T13:15:14.000Z</time>
      </trkpt>
      <trkpt lat="43.55193" lon="6.25818">
        <ele>403.1</ele>
        <time>2025-04-09T13:15:15.000Z</time>
      </trkpt>
      <trkpt lat="43.55193" lon="6.25818">
        <ele>403.1</ele>
        <time>2025-04-09T13:15:16.000Z</time>
      </trkpt>
      <trkpt lat="43.55193" lon="6.25818">
        <ele>403.1</ele>
        <time>2025-04-09T13:15:17.000Z</time>
      </trkpt>
      <trkpt lat="43.55193" lon="6.25818">
        <ele>403.1</ele>
        <time>2025-04-09T13:15:18.000Z</time>
      </trkpt>
      <trkpt lat="43.55194" lon="6.25818">
        <ele>403.1</ele>
        <time>2025-04-09T13:15:19.000Z</time>
      </trkpt>
      <trkpt lat="43.55194" lon="6.25818">
        <ele>403.1</ele>
        <time>2025-04-09T13:15:20.000Z</time>
      </trkpt>
      <trkpt lat="43.55194" lon="6.25818">
        <ele>403.1</ele>
        <time>2025-04-09T13:15:21.000Z</time>
      </trkpt>
      <trkpt lat="43.55194" lon="6.25817">
        <ele>403</ele>
        <time>2025-04-09T13:15:26.000Z</time>
      </trkpt>
      <trkpt lat="43.55194" lon="6.25817">
        <ele>403</ele>
        <time>2025-04-09T13:15:27.000Z</time>
      </trkpt>
      <trkpt lat="43.55194" lon="6.25817">
        <ele>403</ele>
        <time>2025-04-09T13:15:28.000Z</time>
      </trkpt>
      <trkpt lat="43.55194" lon="6.25818">
        <ele>403</ele>
        <time>2025-04-09T13:15:32.000Z</time>
      </trkpt>
      <trkpt lat="43.55194" lon="6.25818">
        <ele>403</ele>
        <time>2025-04-09T13:15:33.000Z</time>
      </trkpt>
      <trkpt lat="43.55194" lon="6.25818">
        <ele>402.9</ele>
        <time>2025-04-09T13:15:41.000Z</time>
      </trkpt>
      <trkpt lat="43.55194" lon="6.25818">
        <ele>402.9</ele>
        <time>2025-04-09T13:15:42.000Z</time>
      </trkpt>
      <trkpt lat="43.55194" lon="6.25818">
        <ele>402.9</ele>
        <time>2025-04-09T13:15:43.000Z</time>
      </trkpt>
      <trkpt lat="43.55194" lon="6.25818">
        <ele>402.9</ele>
        <time>2025-04-09T13:15:44.000Z</time>
      </trkpt>
      <trkpt lat="43.55194" lon="6.25818">
        <ele>402.9</ele>
        <time>2025-04-09T13:15:45.000Z</time>
      </trkpt>
      <trkpt lat="43.55194" lon="6.25818">
        <ele>402.8</ele>
        <time>2025-04-09T13:15:46.000Z</time>
      </trkpt>
      <trkpt lat="43.55192" lon="6.25816">
        <ele>402.4</ele>
        <time>2025-04-09T13:16:19.000Z</time>
      </trkpt>
      <trkpt lat="43.55193" lon="6.25816">
        <ele>402.4</ele>
        <time>2025-04-09T13:16:20.000Z</time>
      </trkpt>
      <trkpt lat="43.55192" lon="6.25816">
        <ele>402.3</ele>
        <time>2025-04-09T13:16:21.000Z</time>
      </trkpt>
      <trkpt lat="43.55192" lon="6.25815">
        <ele>402.3</ele>
        <time>2025-04-09T13:16:22.000Z</time>
      </trkpt>
      <trkpt lat="43.55191" lon="6.25815">
        <ele>402.3</ele>
        <time>2025-04-09T13:16:23.000Z</time>
      </trkpt>
      <trkpt lat="43.55191" lon="6.25814">
        <ele>401.7</ele>
        <time>2025-04-09T13:17:29.000Z</time>
      </trkpt>
      <trkpt lat="43.55191" lon="6.25814">
        <ele>401.7</ele>
        <time>2025-04-09T13:17:30.000Z</time>
      </trkpt>
      <trkpt lat="43.55191" lon="6.25814">
        <ele>401.7</ele>
        <time>2025-04-09T13:17:31.000Z</time>
      </trkpt>
      <trkpt lat="43.55191" lon="6.25814">
        <ele>401.7</ele>
        <time>2025-04-09T13:17:32.000Z</time>
      </trkpt>
      <trkpt lat="43.55191" lon="6.25814">
        <ele>401.7</ele>
        <time>2025-04-09T13:17:33.000Z</time>
      </trkpt>
      <trkpt lat="43.55191" lon="6.25814">
        <ele>401.7</ele>
        <time>2025-04-09T13:17:34.000Z</time>
      </trkpt>
      <trkpt lat="43.55191" lon="6.25814">
        <ele>401.7</ele>
        <time>2025-04-09T13:17:35.000Z</time>
      </trkpt>
      <trkpt lat="43.55191" lon="6.25813">
        <ele>401.7</ele>
        <time>2025-04-09T13:17:36.000Z</time>
      </trkpt>
      <trkpt lat="43.55191" lon="6.25813">
        <ele>401.6</ele>
        <time>2025-04-09T13:17:37.000Z</time>
      </trkpt>
      <trkpt lat="43.55191" lon="6.25813">
        <ele>401.6</ele>
        <time>2025-04-09T13:17:38.000Z</time>
      </trkpt>
      <trkpt lat="43.55192" lon="6.25813">
        <ele>401.3</ele>
        <time>2025-04-09T13:18:04.000Z</time>
      </trkpt>
      <trkpt lat="43.55192" lon="6.25813">
        <ele>401.3</ele>
        <time>2025-04-09T13:18:05.000Z</time>
      </trkpt>
      <trkpt lat="43.55192" lon="6.25813">
        <ele>401.3</ele>
        <time>2025-04-09T13:18:06.000Z</time>
      </trkpt>
      <trkpt lat="43.55192" lon="6.25813">
        <ele>401.3</ele>
        <time>2025-04-09T13:18:07.000Z</time>
      </trkpt>
      <trkpt lat="43.55191" lon="6.25812">
        <ele>401.2</ele>
        <time>2025-04-09T13:18:08.000Z</time>
      </trkpt>
      <trkpt lat="43.55191" lon="6.25812">
        <ele>400.9</ele>
        <time>2025-04-09T13:18:44.000Z</time>
      </trkpt>
      <trkpt lat="43.55191" lon="6.25812">
        <ele>400.8</ele>
        <time>2025-04-09T13:18:45.000Z</time>
      </trkpt>
      <trkpt lat="43.55191" lon="6.25812">
        <ele>400.8</ele>
        <time>2025-04-09T13:18:46.000Z</time>
      </trkpt>
      <trkpt lat="43.55191" lon="6.25812">
        <ele>400.8</ele>
        <time>2025-04-09T13:18:47.000Z</time>
      </trkpt>
      <trkpt lat="43.55191" lon="6.25812">
        <ele>400.8</ele>
        <time>2025-04-09T13:18:48.000Z</time>
      </trkpt>
      <trkpt lat="43.55191" lon="6.25812">
        <ele>400.6</ele>
        <time>2025-04-09T13:19:06.000Z</time>
      </trkpt>
      <trkpt lat="43.55191" lon="6.25812">
        <ele>400.6</ele>
        <time>2025-04-09T13:19:07.000Z</time>
      </trkpt>
      <trkpt lat="43.55191" lon="6.25812">
        <ele>400.6</ele>
        <time>2025-04-09T13:19:08.000Z</time>
      </trkpt>
      <trkpt lat="43.55191" lon="6.25812">
        <ele>400.6</ele>
        <time>2025-04-09T13:19:09.000Z</time>
      </trkpt>
      <trkpt lat="43.55191" lon="6.25812">
        <ele>400.6</ele>
        <time>2025-04-09T13:19:10.000Z</time>
      </trkpt>
      <trkpt lat="43.55191" lon="6.25812">
        <ele>400.6</ele>
        <time>2025-04-09T13:19:11.000Z</time>
      </trkpt>
      <trkpt lat="43.55191" lon="6.25812">
        <ele>400.5</ele>
        <time>2025-04-09T13:19:12.000Z</time>
      </trkpt>
      <trkpt lat="43.55191" lon="6.25813">
        <ele>400.5</ele>
        <time>2025-04-09T13:19:13.000Z</time>
      </trkpt>
      <trkpt lat="43.55193" lon="6.25826">
        <ele>400.4</ele>
        <time>2025-04-09T13:19:21.000Z</time>
      </trkpt>
      <trkpt lat="43.55194" lon="6.25839">
        <ele>400.4</ele>
        <time>2025-04-09T13:19:36.000Z</time>
      </trkpt>
      <trkpt lat="43.55193" lon="6.25852">
        <ele>400.5</ele>
        <time>2025-04-09T13:19:46.000Z</time>
      </trkpt>
      <trkpt lat="43.55194" lon="6.25865">
        <ele>401.2</ele>
        <time>2025-04-09T13:19:59.000Z</time>
      </trkpt>
      <trkpt lat="43.55194" lon="6.25878">
        <ele>402.5</ele>
        <time>2025-04-09T13:20:13.000Z</time>
      </trkpt>
      <trkpt lat="43.55194" lon="6.25891">
        <ele>403.4</ele>
        <time>2025-04-09T13:20:24.000Z</time>
      </trkpt>
      <trkpt lat="43.55195" lon="6.25904">
        <ele>404.6</ele>
        <time>2025-04-09T13:20:37.000Z</time>
      </trkpt>
      <trkpt lat="43.55196" lon="6.25917">
        <ele>406.2</ele>
        <time>2025-04-09T13:20:51.000Z</time>
      </trkpt>
      <trkpt lat="43.55197" lon="6.25929">
        <ele>407.9</ele>
        <time>2025-04-09T13:21:05.000Z</time>
      </trkpt>
      <trkpt lat="43.55198" lon="6.25942">
        <ele>409.4</ele>
        <time>2025-04-09T13:21:18.000Z</time>
      </trkpt>
      <trkpt lat="43.55201" lon="6.25954">
        <ele>410.5</ele>
        <time>2025-04-09T13:21:28.000Z</time>
      </trkpt>
      <trkpt lat="43.55203" lon="6.25957">
        <ele>410.9</ele>
        <time>2025-04-09T13:21:34.000Z</time>
      </trkpt>
      <trkpt lat="43.55203" lon="6.25957">
        <ele>411</ele>
        <time>2025-04-09T13:21:35.000Z</time>
      </trkpt>
      <trkpt lat="43.55203" lon="6.25957">
        <ele>411.3</ele>
        <time>2025-04-09T13:21:44.000Z</time>
      </trkpt>
      <trkpt lat="43.55204" lon="6.25957">
        <ele>411.4</ele>
        <time>2025-04-09T13:21:45.000Z</time>
      </trkpt>
      <trkpt lat="43.55204" lon="6.25958">
        <ele>411.4</ele>
        <time>2025-04-09T13:21:46.000Z</time>
      </trkpt>
      <trkpt lat="43.55206" lon="6.25956">
        <ele>411.5</ele>
        <time>2025-04-09T13:21:52.000Z</time>
      </trkpt>
      <trkpt lat="43.55206" lon="6.25956">
        <ele>411.5</ele>
        <time>2025-04-09T13:21:53.000Z</time>
      </trkpt>
      <trkpt lat="43.55206" lon="6.25956">
        <ele>411.5</ele>
        <time>2025-04-09T13:21:54.000Z</time>
      </trkpt>
      <trkpt lat="43.55207" lon="6.25957">
        <ele>411.5</ele>
        <time>2025-04-09T13:21:55.000Z</time>
      </trkpt>
      <trkpt lat="43.55207" lon="6.25958">
        <ele>411.5</ele>
        <time>2025-04-09T13:21:59.000Z</time>
      </trkpt>
      <trkpt lat="43.55207" lon="6.25958">
        <ele>411.5</ele>
        <time>2025-04-09T13:22:00.000Z</time>
      </trkpt>
      <trkpt lat="43.55207" lon="6.25959">
        <ele>411.5</ele>
        <time>2025-04-09T13:22:01.000Z</time>
      </trkpt>
      <trkpt lat="43.55207" lon="6.25959">
        <ele>411.5</ele>
        <time>2025-04-09T13:22:02.000Z</time>
      </trkpt>
      <trkpt lat="43.55207" lon="6.25959">
        <ele>411.5</ele>
        <time>2025-04-09T13:22:03.000Z</time>
      </trkpt>
      <trkpt lat="43.55207" lon="6.25959">
        <ele>411.6</ele>
        <time>2025-04-09T13:22:06.000Z</time>
      </trkpt>
      <trkpt lat="43.55207" lon="6.25959">
        <ele>411.6</ele>
        <time>2025-04-09T13:22:07.000Z</time>
      </trkpt>
      <trkpt lat="43.55207" lon="6.25959">
        <ele>411.6</ele>
        <time>2025-04-09T13:22:08.000Z</time>
      </trkpt>
      <trkpt lat="43.55206" lon="6.2596">
        <ele>411.6</ele>
        <time>2025-04-09T13:22:09.000Z</time>
      </trkpt>
      <trkpt lat="43.55207" lon="6.25961">
        <ele>411.6</ele>
        <time>2025-04-09T13:22:10.000Z</time>
      </trkpt>
      <trkpt lat="43.55207" lon="6.2597">
        <ele>409.5</ele>
        <time>2025-04-09T13:22:27.000Z</time>
      </trkpt>
      <trkpt lat="43.55207" lon="6.2597">
        <ele>409.9</ele>
        <time>2025-04-09T13:22:28.000Z</time>
      </trkpt>
      <trkpt lat="43.55207" lon="6.2597">
        <ele>410.5</ele>
        <time>2025-04-09T13:22:29.000Z</time>
      </trkpt>
      <trkpt lat="43.55207" lon="6.2597">
        <ele>413.8</ele>
        <time>2025-04-09T13:22:45.000Z</time>
      </trkpt>
      <trkpt lat="43.55208" lon="6.2597">
        <ele>413.6</ele>
        <time>2025-04-09T13:22:46.000Z</time>
      </trkpt>
      <trkpt lat="43.5521" lon="6.2597">
        <ele>412.8</ele>
        <time>2025-04-09T13:22:50.000Z</time>
      </trkpt>
      <trkpt lat="43.5521" lon="6.2597">
        <ele>412.7</ele>
        <time>2025-04-09T13:22:51.000Z</time>
      </trkpt>
      <trkpt lat="43.5521" lon="6.2597">
        <ele>412.3</ele>
        <time>2025-04-09T13:22:57.000Z</time>
      </trkpt>
      <trkpt lat="43.5521" lon="6.2597">
        <ele>412.2</ele>
        <time>2025-04-09T13:22:58.000Z</time>
      </trkpt>
      <trkpt lat="43.5521" lon="6.2597">
        <ele>412.2</ele>
        <time>2025-04-09T13:22:59.000Z</time>
      </trkpt>
      <trkpt lat="43.5521" lon="6.2597">
        <ele>412.1</ele>
        <time>2025-04-09T13:23:00.000Z</time>
      </trkpt>
      <trkpt lat="43.5521" lon="6.2597">
        <ele>412.1</ele>
        <time>2025-04-09T13:23:01.000Z</time>
      </trkpt>
      <trkpt lat="43.5521" lon="6.2597">
        <ele>411.7</ele>
        <time>2025-04-09T13:23:19.000Z</time>
      </trkpt>
      <trkpt lat="43.5521" lon="6.25971">
        <ele>411.7</ele>
        <time>2025-04-09T13:23:20.000Z</time>
      </trkpt>
      <trkpt lat="43.55209" lon="6.25971">
        <ele>411.7</ele>
        <time>2025-04-09T13:23:21.000Z</time>
      </trkpt>
      <trkpt lat="43.55209" lon="6.25972">
        <ele>411.7</ele>
        <time>2025-04-09T13:23:22.000Z</time>
      </trkpt>
      <trkpt lat="43.55209" lon="6.25973">
        <ele>411.7</ele>
        <time>2025-04-09T13:23:23.000Z</time>
      </trkpt>
      <trkpt lat="43.55209" lon="6.25974">
        <ele>411.7</ele>
        <time>2025-04-09T13:23:24.000Z</time>
      </trkpt>
      <trkpt lat="43.55209" lon="6.25975">
        <ele>411.7</ele>
        <time>2025-04-09T13:23:25.000Z</time>
      </trkpt>
      <trkpt lat="43.55209" lon="6.25976">
        <ele>411.7</ele>
        <time>2025-04-09T13:23:26.000Z</time>
      </trkpt>
      <trkpt lat="43.55213" lon="6.25987">
        <ele>411.8</ele>
        <time>2025-04-09T13:23:40.000Z</time>
      </trkpt>
      <trkpt lat="43.55215" lon="6.26">
        <ele>412</ele>
        <time>2025-04-09T13:23:51.000Z</time>
      </trkpt>
      <trkpt lat="43.55219" lon="6.26012">
        <ele>412.1</ele>
        <time>2025-04-09T13:24:02.000Z</time>
      </trkpt>
      <trkpt lat="43.5522" lon="6.26025">
        <ele>412.1</ele>
        <time>2025-04-09T13:24:12.000Z</time>
      </trkpt>
      <trkpt lat="43.55221" lon="6.26038">
        <ele>412.1</ele>
        <time>2025-04-09T13:24:20.000Z</time>
      </trkpt>
      <trkpt lat="43.5522" lon="6.26051">
        <ele>412</ele>
        <time>2025-04-09T13:24:30.000Z</time>
      </trkpt>
      <trkpt lat="43.55222" lon="6.26063">
        <ele>411.9</ele>
        <time>2025-04-09T13:24:39.000Z</time>
      </trkpt>
      <trkpt lat="43.55225" lon="6.26076">
        <ele>411.7</ele>
        <time>2025-04-09T13:24:49.000Z</time>
      </trkpt>
      <trkpt lat="43.55225" lon="6.26089">
        <ele>411.6</ele>
        <time>2025-04-09T13:24:58.000Z</time>
      </trkpt>
      <trkpt lat="43.55226" lon="6.26103">
        <ele>411.6</ele>
        <time>2025-04-09T13:25:06.000Z</time>
      </trkpt>
      <trkpt lat="43.55217" lon="6.26107">
        <ele>411.9</ele>
        <time>2025-04-09T13:25:22.000Z</time>
      </trkpt>
      <trkpt lat="43.55208" lon="6.2611">
        <ele>412.7</ele>
        <time>2025-04-09T13:25:44.000Z</time>
      </trkpt>
      <trkpt lat="43.5521" lon="6.26113">
        <ele>412.8</ele>
        <time>2025-04-09T13:25:51.000Z</time>
      </trkpt>
      <trkpt lat="43.5521" lon="6.26114">
        <ele>412.8</ele>
        <time>2025-04-09T13:25:52.000Z</time>
      </trkpt>
      <trkpt lat="43.5521" lon="6.26114">
        <ele>412.8</ele>
        <time>2025-04-09T13:25:53.000Z</time>
      </trkpt>
      <trkpt lat="43.55208" lon="6.26114">
        <ele>412.9</ele>
        <time>2025-04-09T13:25:56.000Z</time>
      </trkpt>
      <trkpt lat="43.55208" lon="6.26114">
        <ele>412.9</ele>
        <time>2025-04-09T13:25:57.000Z</time>
      </trkpt>
      <trkpt lat="43.55208" lon="6.26115">
        <ele>412.9</ele>
        <time>2025-04-09T13:25:58.000Z</time>
      </trkpt>
      <trkpt lat="43.55209" lon="6.26115">
        <ele>412.9</ele>
        <time>2025-04-09T13:26:02.000Z</time>
      </trkpt>
      <trkpt lat="43.55209" lon="6.26115">
        <ele>412.9</ele>
        <time>2025-04-09T13:26:03.000Z</time>
      </trkpt>
      <trkpt lat="43.55209" lon="6.26117">
        <ele>412.9</ele>
        <time>2025-04-09T13:26:09.000Z</time>
      </trkpt>
      <trkpt lat="43.55209" lon="6.26118">
        <ele>412.8</ele>
        <time>2025-04-09T13:26:10.000Z</time>
      </trkpt>
      <trkpt lat="43.55208" lon="6.26116">
        <ele>412.8</ele>
        <time>2025-04-09T13:26:17.000Z</time>
      </trkpt>
      <trkpt lat="43.55208" lon="6.26115">
        <ele>412.8</ele>
        <time>2025-04-09T13:26:18.000Z</time>
      </trkpt>
      <trkpt lat="43.55207" lon="6.26114">
        <ele>412.8</ele>
        <time>2025-04-09T13:26:19.000Z</time>
      </trkpt>
      <trkpt lat="43.55207" lon="6.26114">
        <ele>412.8</ele>
        <time>2025-04-09T13:26:27.000Z</time>
      </trkpt>
      <trkpt lat="43.55208" lon="6.26114">
        <ele>412.8</ele>
        <time>2025-04-09T13:26:28.000Z</time>
      </trkpt>
      <trkpt lat="43.55206" lon="6.26114">
        <ele>412.7</ele>
        <time>2025-04-09T13:26:34.000Z</time>
      </trkpt>
      <trkpt lat="43.55206" lon="6.26114">
        <ele>412.7</ele>
        <time>2025-04-09T13:26:35.000Z</time>
      </trkpt>
      <trkpt lat="43.55206" lon="6.26114">
        <ele>412.7</ele>
        <time>2025-04-09T13:26:36.000Z</time>
      </trkpt>
      <trkpt lat="43.55206" lon="6.26114">
        <ele>412.7</ele>
        <time>2025-04-09T13:26:37.000Z</time>
      </trkpt>
      <trkpt lat="43.55206" lon="6.26114">
        <ele>412.7</ele>
        <time>2025-04-09T13:26:38.000Z</time>
      </trkpt>
      <trkpt lat="43.55206" lon="6.26114">
        <ele>412.7</ele>
        <time>2025-04-09T13:26:39.000Z</time>
      </trkpt>
      <trkpt lat="43.55206" lon="6.26114">
        <ele>412.7</ele>
        <time>2025-04-09T13:26:40.000Z</time>
      </trkpt>
      <trkpt lat="43.55206" lon="6.26114">
        <ele>412.6</ele>
        <time>2025-04-09T13:26:41.000Z</time>
      </trkpt>
      <trkpt lat="43.55205" lon="6.26113">
        <ele>412.6</ele>
        <time>2025-04-09T13:26:47.000Z</time>
      </trkpt>
      <trkpt lat="43.55206" lon="6.26113">
        <ele>412.6</ele>
        <time>2025-04-09T13:26:48.000Z</time>
      </trkpt>
      <trkpt lat="43.55206" lon="6.26113">
        <ele>412.6</ele>
        <time>2025-04-09T13:26:49.000Z</time>
      </trkpt>
      <trkpt lat="43.55206" lon="6.26113">
        <ele>412.6</ele>
        <time>2025-04-09T13:26:50.000Z</time>
      </trkpt>
      <trkpt lat="43.55206" lon="6.26113">
        <ele>412.6</ele>
        <time>2025-04-09T13:26:51.000Z</time>
      </trkpt>
      <trkpt lat="43.55206" lon="6.26112">
        <ele>412.4</ele>
        <time>2025-04-09T13:27:17.000Z</time>
      </trkpt>
      <trkpt lat="43.55206" lon="6.26113">
        <ele>412.4</ele>
        <time>2025-04-09T13:27:18.000Z</time>
      </trkpt>
      <trkpt lat="43.55206" lon="6.26113">
        <ele>412.4</ele>
        <time>2025-04-09T13:27:19.000Z</time>
      </trkpt>
      <trkpt lat="43.55206" lon="6.26113">
        <ele>412.4</ele>
        <time>2025-04-09T13:27:20.000Z</time>
      </trkpt>
      <trkpt lat="43.55206" lon="6.26113">
        <ele>412.3</ele>
        <time>2025-04-09T13:27:21.000Z</time>
      </trkpt>
      <trkpt lat="43.55206" lon="6.26113">
        <ele>412.2</ele>
        <time>2025-04-09T13:27:29.000Z</time>
      </trkpt>
      <trkpt lat="43.55206" lon="6.26114">
        <ele>412.2</ele>
        <time>2025-04-09T13:27:30.000Z</time>
      </trkpt>
      <trkpt lat="43.55206" lon="6.26115">
        <ele>412.2</ele>
        <time>2025-04-09T13:27:31.000Z</time>
      </trkpt>
      <trkpt lat="43.55215" lon="6.26117">
        <ele>412</ele>
        <time>2025-04-09T13:27:48.000Z</time>
      </trkpt>
      <trkpt lat="43.55223" lon="6.2611">
        <ele>411.7</ele>
        <time>2025-04-09T13:28:00.000Z</time>
      </trkpt>
      <trkpt lat="43.55228" lon="6.26105">
        <ele>410.7</ele>
        <time>2025-04-09T13:28:27.000Z</time>
      </trkpt>
      <trkpt lat="43.55228" lon="6.26105">
        <ele>410.7</ele>
        <time>2025-04-09T13:28:28.000Z</time>
      </trkpt>
      <trkpt lat="43.55228" lon="6.26107">
        <ele>410.6</ele>
        <time>2025-04-09T13:28:31.000Z</time>
      </trkpt>
      <trkpt lat="43.55229" lon="6.26108">
        <ele>410.6</ele>
        <time>2025-04-09T13:28:32.000Z</time>
      </trkpt>
      <trkpt lat="43.55229" lon="6.2611">
        <ele>410.6</ele>
        <time>2025-04-09T13:28:33.000Z</time>
      </trkpt>
      <trkpt lat="43.55228" lon="6.26122">
        <ele>410.4</ele>
        <time>2025-04-09T13:28:46.000Z</time>
      </trkpt>
      <trkpt lat="43.55228" lon="6.26136">
        <ele>410.3</ele>
        <time>2025-04-09T13:28:55.000Z</time>
      </trkpt>
      <trkpt lat="43.55227" lon="6.26149">
        <ele>410.1</ele>
        <time>2025-04-09T13:29:05.000Z</time>
      </trkpt>
      <trkpt lat="43.55228" lon="6.26162">
        <ele>409.6</ele>
        <time>2025-04-09T13:29:16.000Z</time>
      </trkpt>
      <trkpt lat="43.55228" lon="6.26175">
        <ele>408.7</ele>
        <time>2025-04-09T13:29:26.000Z</time>
      </trkpt>
      <trkpt lat="43.55228" lon="6.26188">
        <ele>407.8</ele>
        <time>2025-04-09T13:29:36.000Z</time>
      </trkpt>
      <trkpt lat="43.55226" lon="6.26201">
        <ele>406.8</ele>
        <time>2025-04-09T13:29:47.000Z</time>
      </trkpt>
      <trkpt lat="43.55227" lon="6.26214">
        <ele>406.2</ele>
        <time>2025-04-09T13:29:55.000Z</time>
      </trkpt>
      <trkpt lat="43.55229" lon="6.26228">
        <ele>405.8</ele>
        <time>2025-04-09T13:30:05.000Z</time>
      </trkpt>
      <trkpt lat="43.55227" lon="6.26241">
        <ele>405.4</ele>
        <time>2025-04-09T13:30:13.000Z</time>
      </trkpt>
      <trkpt lat="43.55223" lon="6.26253">
        <ele>404.9</ele>
        <time>2025-04-09T13:30:22.000Z</time>
      </trkpt>
      <trkpt lat="43.55223" lon="6.26266">
        <ele>403.9</ele>
        <time>2025-04-09T13:30:30.000Z</time>
      </trkpt>
      <trkpt lat="43.55223" lon="6.2628">
        <ele>403.3</ele>
        <time>2025-04-09T13:30:38.000Z</time>
      </trkpt>
      <trkpt lat="43.55224" lon="6.26293">
        <ele>402.6</ele>
        <time>2025-04-09T13:30:45.000Z</time>
      </trkpt>
      <trkpt lat="43.55228" lon="6.26306">
        <ele>401.7</ele>
        <time>2025-04-09T13:30:52.000Z</time>
      </trkpt>
      <trkpt lat="43.55227" lon="6.26319">
        <ele>400.7</ele>
        <time>2025-04-09T13:31:01.000Z</time>
      </trkpt>
      <trkpt lat="43.55225" lon="6.26332">
        <ele>399.9</ele>
        <time>2025-04-09T13:31:10.000Z</time>
      </trkpt>
      <trkpt lat="43.55221" lon="6.26344">
        <ele>399.1</ele>
        <time>2025-04-09T13:31:20.000Z</time>
      </trkpt>
      <trkpt lat="43.55218" lon="6.26357">
        <ele>398.4</ele>
        <time>2025-04-09T13:31:28.000Z</time>
      </trkpt>
      <trkpt lat="43.55218" lon="6.2637">
        <ele>397.5</ele>
        <time>2025-04-09T13:31:39.000Z</time>
      </trkpt>
      <trkpt lat="43.55217" lon="6.26383">
        <ele>396.9</ele>
        <time>2025-04-09T13:31:47.000Z</time>
      </trkpt>
      <trkpt lat="43.55217" lon="6.26396">
        <ele>396.1</ele>
        <time>2025-04-09T13:31:56.000Z</time>
      </trkpt>
      <trkpt lat="43.55217" lon="6.26409">
        <ele>395.6</ele>
        <time>2025-04-09T13:32:03.000Z</time>
      </trkpt>
      <trkpt lat="43.55216" lon="6.26422">
        <ele>395.1</ele>
        <time>2025-04-09T13:32:16.000Z</time>
      </trkpt>
      <trkpt lat="43.55216" lon="6.26435">
        <ele>395</ele>
        <time>2025-04-09T13:32:23.000Z</time>
      </trkpt>
      <trkpt lat="43.55214" lon="6.26448">
        <ele>395</ele>
        <time>2025-04-09T13:32:32.000Z</time>
      </trkpt>
      <trkpt lat="43.55216" lon="6.2646">
        <ele>395.1</ele>
        <time>2025-04-09T13:32:40.000Z</time>
      </trkpt>
      <trkpt lat="43.55217" lon="6.26474">
        <ele>395.2</ele>
        <time>2025-04-09T13:32:52.000Z</time>
      </trkpt>
      <trkpt lat="43.55217" lon="6.26488">
        <ele>395.4</ele>
        <time>2025-04-09T13:33:02.000Z</time>
      </trkpt>
      <trkpt lat="43.55217" lon="6.26501">
        <ele>395.6</ele>
        <time>2025-04-09T13:33:10.000Z</time>
      </trkpt>
      <trkpt lat="43.55216" lon="6.26514">
        <ele>395.9</ele>
        <time>2025-04-09T13:33:19.000Z</time>
      </trkpt>
      <trkpt lat="43.55219" lon="6.26527">
        <ele>396.3</ele>
        <time>2025-04-09T13:33:26.000Z</time>
      </trkpt>
      <trkpt lat="43.55217" lon="6.26541">
        <ele>396.9</ele>
        <time>2025-04-09T13:33:37.000Z</time>
      </trkpt>
      <trkpt lat="43.55218" lon="6.26553">
        <ele>397.3</ele>
        <time>2025-04-09T13:33:46.000Z</time>
      </trkpt>
      <trkpt lat="43.55216" lon="6.26567">
        <ele>397.5</ele>
        <time>2025-04-09T13:33:53.000Z</time>
      </trkpt>
      <trkpt lat="43.55212" lon="6.26579">
        <ele>397.8</ele>
        <time>2025-04-09T13:34:02.000Z</time>
      </trkpt>
      <trkpt lat="43.55209" lon="6.26593">
        <ele>398.3</ele>
        <time>2025-04-09T13:34:12.000Z</time>
      </trkpt>
      <trkpt lat="43.55209" lon="6.26607">
        <ele>398.8</ele>
        <time>2025-04-09T13:34:20.000Z</time>
      </trkpt>
      <trkpt lat="43.55208" lon="6.26619">
        <ele>399.2</ele>
        <time>2025-04-09T13:34:28.000Z</time>
      </trkpt>
      <trkpt lat="43.55203" lon="6.2663">
        <ele>399.6</ele>
        <time>2025-04-09T13:34:36.000Z</time>
      </trkpt>
      <trkpt lat="43.55205" lon="6.26643">
        <ele>400.4</ele>
        <time>2025-04-09T13:34:46.000Z</time>
      </trkpt>
      <trkpt lat="43.55203" lon="6.26656">
        <ele>401.5</ele>
        <time>2025-04-09T13:34:56.000Z</time>
      </trkpt>
      <trkpt lat="43.55198" lon="6.26667">
        <ele>402.7</ele>
        <time>2025-04-09T13:35:06.000Z</time>
      </trkpt>
      <trkpt lat="43.55195" lon="6.26679">
        <ele>404.2</ele>
        <time>2025-04-09T13:35:17.000Z</time>
      </trkpt>
      <trkpt lat="43.55192" lon="6.26691">
        <ele>405.4</ele>
        <time>2025-04-09T13:35:26.000Z</time>
      </trkpt>
      <trkpt lat="43.5519" lon="6.26704">
        <ele>406.2</ele>
        <time>2025-04-09T13:35:36.000Z</time>
      </trkpt>
      <trkpt lat="43.55187" lon="6.26716">
        <ele>406.6</ele>
        <time>2025-04-09T13:35:44.000Z</time>
      </trkpt>
      <trkpt lat="43.55187" lon="6.26729">
        <ele>407.3</ele>
        <time>2025-04-09T13:35:53.000Z</time>
      </trkpt>
      <trkpt lat="43.55185" lon="6.26742">
        <ele>407.6</ele>
        <time>2025-04-09T13:36:02.000Z</time>
      </trkpt>
      <trkpt lat="43.55184" lon="6.26754">
        <ele>407.7</ele>
        <time>2025-04-09T13:36:10.000Z</time>
      </trkpt>
      <trkpt lat="43.55184" lon="6.26769">
        <ele>407.6</ele>
        <time>2025-04-09T13:36:19.000Z</time>
      </trkpt>
      <trkpt lat="43.55182" lon="6.26782">
        <ele>407.4</ele>
        <time>2025-04-09T13:36:27.000Z</time>
      </trkpt>
      <trkpt lat="43.55177" lon="6.26792">
        <ele>406.9</ele>
        <time>2025-04-09T13:36:37.000Z</time>
      </trkpt>
      <trkpt lat="43.55171" lon="6.26799">
        <ele>406</ele>
        <time>2025-04-09T13:36:49.000Z</time>
      </trkpt>
      <trkpt lat="43.55171" lon="6.26799">
        <ele>406</ele>
        <time>2025-04-09T13:36:50.000Z</time>
      </trkpt>
      <trkpt lat="43.55172" lon="6.26799">
        <ele>405.9</ele>
        <time>2025-04-09T13:36:54.000Z</time>
      </trkpt>
      <trkpt lat="43.55172" lon="6.26799">
        <ele>405.8</ele>
        <time>2025-04-09T13:36:55.000Z</time>
      </trkpt>
      <trkpt lat="43.55172" lon="6.268">
        <ele>405.7</ele>
        <time>2025-04-09T13:36:59.000Z</time>
      </trkpt>
      <trkpt lat="43.55172" lon="6.268">
        <ele>405.7</ele>
        <time>2025-04-09T13:37:00.000Z</time>
      </trkpt>
      <trkpt lat="43.55172" lon="6.268">
        <ele>405.7</ele>
        <time>2025-04-09T13:37:01.000Z</time>
      </trkpt>
      <trkpt lat="43.55172" lon="6.26797">
        <ele>405.5</ele>
        <time>2025-04-09T13:37:24.000Z</time>
      </trkpt>
      <trkpt lat="43.55172" lon="6.26797">
        <ele>405.5</ele>
        <time>2025-04-09T13:37:25.000Z</time>
      </trkpt>
      <trkpt lat="43.55172" lon="6.26797">
        <ele>405.5</ele>
        <time>2025-04-09T13:37:26.000Z</time>
      </trkpt>
      <trkpt lat="43.55172" lon="6.26797">
        <ele>405.5</ele>
        <time>2025-04-09T13:37:27.000Z</time>
      </trkpt>
      <trkpt lat="43.55172" lon="6.26797">
        <ele>405.5</ele>
        <time>2025-04-09T13:37:28.000Z</time>
      </trkpt>
      <trkpt lat="43.55172" lon="6.26797">
        <ele>405.4</ele>
        <time>2025-04-09T13:38:24.000Z</time>
      </trkpt>
      <trkpt lat="43.55172" lon="6.26797">
        <ele>405.4</ele>
        <time>2025-04-09T13:38:25.000Z</time>
      </trkpt>
      <trkpt lat="43.55172" lon="6.26797">
        <ele>405.4</ele>
        <time>2025-04-09T13:38:26.000Z</time>
      </trkpt>
      <trkpt lat="43.55172" lon="6.26797">
        <ele>405.4</ele>
        <time>2025-04-09T13:38:27.000Z</time>
      </trkpt>
      <trkpt lat="43.55172" lon="6.26797">
        <ele>405.4</ele>
        <time>2025-04-09T13:38:28.000Z</time>
      </trkpt>
      <trkpt lat="43.55172" lon="6.26798">
        <ele>405.4</ele>
        <time>2025-04-09T13:38:37.000Z</time>
      </trkpt>
      <trkpt lat="43.55172" lon="6.26798">
        <ele>405.4</ele>
        <time>2025-04-09T13:38:38.000Z</time>
      </trkpt>
      <trkpt lat="43.55172" lon="6.26798">
        <ele>405.4</ele>
        <time>2025-04-09T13:38:39.000Z</time>
      </trkpt>
      <trkpt lat="43.55172" lon="6.26798">
        <ele>405.4</ele>
        <time>2025-04-09T13:38:40.000Z</time>
      </trkpt>
      <trkpt lat="43.55172" lon="6.26798">
        <ele>405.4</ele>
        <time>2025-04-09T13:38:41.000Z</time>
      </trkpt>
      <trkpt lat="43.55172" lon="6.26799">
        <ele>405.4</ele>
        <time>2025-04-09T13:39:25.000Z</time>
      </trkpt>
      <trkpt lat="43.55172" lon="6.26799">
        <ele>405.4</ele>
        <time>2025-04-09T13:39:26.000Z</time>
      </trkpt>
      <trkpt lat="43.55172" lon="6.26798">
        <ele>405.4</ele>
        <time>2025-04-09T13:39:27.000Z</time>
      </trkpt>
      <trkpt lat="43.55172" lon="6.26798">
        <ele>405.4</ele>
        <time>2025-04-09T13:39:28.000Z</time>
      </trkpt>
      <trkpt lat="43.55172" lon="6.268">
        <ele>405.5</ele>
        <time>2025-04-09T13:40:22.000Z</time>
      </trkpt>
      <trkpt lat="43.55173" lon="6.268">
        <ele>405.5</ele>
        <time>2025-04-09T13:40:23.000Z</time>
      </trkpt>
      <trkpt lat="43.55173" lon="6.268">
        <ele>405.5</ele>
        <time>2025-04-09T13:40:24.000Z</time>
      </trkpt>
      <trkpt lat="43.55173" lon="6.268">
        <ele>405.5</ele>
        <time>2025-04-09T13:40:25.000Z</time>
      </trkpt>
      <trkpt lat="43.55173" lon="6.268">
        <ele>405.5</ele>
        <time>2025-04-09T13:40:26.000Z</time>
      </trkpt>
      <trkpt lat="43.55173" lon="6.268">
        <ele>405.7</ele>
        <time>2025-04-09T13:41:09.000Z</time>
      </trkpt>
      <trkpt lat="43.55173" lon="6.268">
        <ele>405.7</ele>
        <time>2025-04-09T13:41:10.000Z</time>
      </trkpt>
      <trkpt lat="43.55173" lon="6.268">
        <ele>405.7</ele>
        <time>2025-04-09T13:41:11.000Z</time>
      </trkpt>
      <trkpt lat="43.55173" lon="6.268">
        <ele>405.7</ele>
        <time>2025-04-09T13:41:12.000Z</time>
      </trkpt>
      <trkpt lat="43.55173" lon="6.268">
        <ele>405.7</ele>
        <time>2025-04-09T13:41:13.000Z</time>
      </trkpt>
      <trkpt lat="43.55173" lon="6.268">
        <ele>405.7</ele>
        <time>2025-04-09T13:41:24.000Z</time>
      </trkpt>
      <trkpt lat="43.55173" lon="6.268">
        <ele>405.7</ele>
        <time>2025-04-09T13:41:25.000Z</time>
      </trkpt>
      <trkpt lat="43.55173" lon="6.268">
        <ele>405.7</ele>
        <time>2025-04-09T13:41:26.000Z</time>
      </trkpt>
      <trkpt lat="43.55168" lon="6.26812">
        <ele>405.7</ele>
        <time>2025-04-09T13:41:36.000Z</time>
      </trkpt>
      <trkpt lat="43.55165" lon="6.26825">
        <ele>405.6</ele>
        <time>2025-04-09T13:41:44.000Z</time>
      </trkpt>
      <trkpt lat="43.55164" lon="6.26837">
        <ele>405.5</ele>
        <time>2025-04-09T13:41:52.000Z</time>
      </trkpt>
      <trkpt lat="43.55158" lon="6.26849">
        <ele>405.2</ele>
        <time>2025-04-09T13:42:01.000Z</time>
      </trkpt>
      <trkpt lat="43.55155" lon="6.26861">
        <ele>404.6</ele>
        <time>2025-04-09T13:42:10.000Z</time>
      </trkpt>
      <trkpt lat="43.55151" lon="6.26874">
        <ele>403.9</ele>
        <time>2025-04-09T13:42:18.000Z</time>
      </trkpt>
      <trkpt lat="43.55147" lon="6.26886">
        <ele>403.2</ele>
        <time>2025-04-09T13:42:26.000Z</time>
      </trkpt>
      <trkpt lat="43.55146" lon="6.26899">
        <ele>402.2</ele>
        <time>2025-04-09T13:42:35.000Z</time>
      </trkpt>
      <trkpt lat="43.55145" lon="6.26907">
        <ele>401.2</ele>
        <time>2025-04-09T13:42:47.000Z</time>
      </trkpt>
      <trkpt lat="43.55145" lon="6.26907">
        <ele>401.2</ele>
        <time>2025-04-09T13:42:48.000Z</time>
      </trkpt>
      <trkpt lat="43.55145" lon="6.26908">
        <ele>401</ele>
        <time>2025-04-09T13:42:56.000Z</time>
      </trkpt>
      <trkpt lat="43.55145" lon="6.26908">
        <ele>401</ele>
        <time>2025-04-09T13:42:57.000Z</time>
      </trkpt>
      <trkpt lat="43.55145" lon="6.26908">
        <ele>401</ele>
        <time>2025-04-09T13:42:58.000Z</time>
      </trkpt>
      <trkpt lat="43.55146" lon="6.26908">
        <ele>400.9</ele>
        <time>2025-04-09T13:43:02.000Z</time>
      </trkpt>
      <trkpt lat="43.55146" lon="6.26908">
        <ele>400.8</ele>
        <time>2025-04-09T13:43:03.000Z</time>
      </trkpt>
      <trkpt lat="43.55146" lon="6.26908">
        <ele>400.8</ele>
        <time>2025-04-09T13:43:04.000Z</time>
      </trkpt>
      <trkpt lat="43.55146" lon="6.26907">
        <ele>400.8</ele>
        <time>2025-04-09T13:43:05.000Z</time>
      </trkpt>
      <trkpt lat="43.55146" lon="6.26907">
        <ele>400.8</ele>
        <time>2025-04-09T13:43:06.000Z</time>
      </trkpt>
      <trkpt lat="43.55146" lon="6.26908">
        <ele>400.9</ele>
        <time>2025-04-09T13:43:07.000Z</time>
      </trkpt>
      <trkpt lat="43.55146" lon="6.26908">
        <ele>400.9</ele>
        <time>2025-04-09T13:43:08.000Z</time>
      </trkpt>
      <trkpt lat="43.55147" lon="6.26909">
        <ele>400.8</ele>
        <time>2025-04-09T13:43:14.000Z</time>
      </trkpt>
      <trkpt lat="43.55147" lon="6.26909">
        <ele>400.8</ele>
        <time>2025-04-09T13:43:15.000Z</time>
      </trkpt>
      <trkpt lat="43.55148" lon="6.26909">
        <ele>400.8</ele>
        <time>2025-04-09T13:43:16.000Z</time>
      </trkpt>
      <trkpt lat="43.55148" lon="6.26909">
        <ele>400.8</ele>
        <time>2025-04-09T13:43:17.000Z</time>
      </trkpt>
      <trkpt lat="43.55148" lon="6.26909">
        <ele>400.8</ele>
        <time>2025-04-09T13:43:18.000Z</time>
      </trkpt>
      <trkpt lat="43.55148" lon="6.26908">
        <ele>400.8</ele>
        <time>2025-04-09T13:43:24.000Z</time>
      </trkpt>
      <trkpt lat="43.55149" lon="6.26907">
        <ele>400.8</ele>
        <time>2025-04-09T13:43:25.000Z</time>
      </trkpt>
      <trkpt lat="43.5515" lon="6.26907">
        <ele>400.8</ele>
        <time>2025-04-09T13:43:26.000Z</time>
      </trkpt>
      <trkpt lat="43.5515" lon="6.26907">
        <ele>400.8</ele>
        <time>2025-04-09T13:43:27.000Z</time>
      </trkpt>
      <trkpt lat="43.5515" lon="6.26907">
        <ele>400.8</ele>
        <time>2025-04-09T13:43:28.000Z</time>
      </trkpt>
      <trkpt lat="43.55148" lon="6.26907">
        <ele>400.8</ele>
        <time>2025-04-09T13:43:32.000Z</time>
      </trkpt>
      <trkpt lat="43.55147" lon="6.26908">
        <ele>400.8</ele>
        <time>2025-04-09T13:43:33.000Z</time>
      </trkpt>
      <trkpt lat="43.55147" lon="6.26909">
        <ele>400.8</ele>
        <time>2025-04-09T13:43:34.000Z</time>
      </trkpt>
      <trkpt lat="43.55146" lon="6.26913">
        <ele>400.6</ele>
        <time>2025-04-09T13:43:42.000Z</time>
      </trkpt>
      <trkpt lat="43.55146" lon="6.26913">
        <ele>400.6</ele>
        <time>2025-04-09T13:43:43.000Z</time>
      </trkpt>
      <trkpt lat="43.55146" lon="6.26913">
        <ele>400.5</ele>
        <time>2025-04-09T13:43:50.000Z</time>
      </trkpt>
      <trkpt lat="43.55146" lon="6.26913">
        <ele>400.5</ele>
        <time>2025-04-09T13:43:51.000Z</time>
      </trkpt>
      <trkpt lat="43.55146" lon="6.26913">
        <ele>400.5</ele>
        <time>2025-04-09T13:43:52.000Z</time>
      </trkpt>
      <trkpt lat="43.55146" lon="6.26913">
        <ele>400.5</ele>
        <time>2025-04-09T13:43:53.000Z</time>
      </trkpt>
      <trkpt lat="43.55146" lon="6.26913">
        <ele>400.5</ele>
        <time>2025-04-09T13:43:54.000Z</time>
      </trkpt>
      <trkpt lat="43.55147" lon="6.26913">
        <ele>400.4</ele>
        <time>2025-04-09T13:43:57.000Z</time>
      </trkpt>
      <trkpt lat="43.55147" lon="6.26913">
        <ele>400.4</ele>
        <time>2025-04-09T13:43:58.000Z</time>
      </trkpt>
      <trkpt lat="43.55147" lon="6.26912">
        <ele>400.4</ele>
        <time>2025-04-09T13:44:02.000Z</time>
      </trkpt>
      <trkpt lat="43.55147" lon="6.26912">
        <ele>400.4</ele>
        <time>2025-04-09T13:44:03.000Z</time>
      </trkpt>
      <trkpt lat="43.55147" lon="6.26912">
        <ele>400.4</ele>
        <time>2025-04-09T13:44:04.000Z</time>
      </trkpt>
      <trkpt lat="43.55148" lon="6.26912">
        <ele>400.3</ele>
        <time>2025-04-09T13:45:20.000Z</time>
      </trkpt>
      <trkpt lat="43.55148" lon="6.26912">
        <ele>400.3</ele>
        <time>2025-04-09T13:45:21.000Z</time>
      </trkpt>
      <trkpt lat="43.55149" lon="6.26912">
        <ele>400.4</ele>
        <time>2025-04-09T13:45:25.000Z</time>
      </trkpt>
      <trkpt lat="43.55149" lon="6.26912">
        <ele>400.4</ele>
        <time>2025-04-09T13:45:26.000Z</time>
      </trkpt>
      <trkpt lat="43.55149" lon="6.26912">
        <ele>400.4</ele>
        <time>2025-04-09T13:45:34.000Z</time>
      </trkpt>
      <trkpt lat="43.55149" lon="6.26912">
        <ele>400.4</ele>
        <time>2025-04-09T13:45:35.000Z</time>
      </trkpt>
      <trkpt lat="43.55149" lon="6.26911">
        <ele>400.4</ele>
        <time>2025-04-09T13:45:36.000Z</time>
      </trkpt>
      <trkpt lat="43.55149" lon="6.26911">
        <ele>400.4</ele>
        <time>2025-04-09T13:45:37.000Z</time>
      </trkpt>
      <trkpt lat="43.55149" lon="6.26911">
        <ele>400.4</ele>
        <time>2025-04-09T13:45:38.000Z</time>
      </trkpt>
      <trkpt lat="43.55149" lon="6.26911">
        <ele>400.4</ele>
        <time>2025-04-09T13:45:46.000Z</time>
      </trkpt>
      <trkpt lat="43.55149" lon="6.26911">
        <ele>400.4</ele>
        <time>2025-04-09T13:45:47.000Z</time>
      </trkpt>
      <trkpt lat="43.55149" lon="6.26911">
        <ele>400.4</ele>
        <time>2025-04-09T13:45:48.000Z</time>
      </trkpt>
      <trkpt lat="43.55149" lon="6.26911">
        <ele>400.4</ele>
        <time>2025-04-09T13:45:49.000Z</time>
      </trkpt>
      <trkpt lat="43.55149" lon="6.26911">
        <ele>400.4</ele>
        <time>2025-04-09T13:45:50.000Z</time>
      </trkpt>
      <trkpt lat="43.55149" lon="6.26911">
        <ele>400.4</ele>
        <time>2025-04-09T13:45:51.000Z</time>
      </trkpt>
      <trkpt lat="43.55149" lon="6.26911">
        <ele>400.4</ele>
        <time>2025-04-09T13:45:52.000Z</time>
      </trkpt>
      <trkpt lat="43.55149" lon="6.26911">
        <ele>400.4</ele>
        <time>2025-04-09T13:45:53.000Z</time>
      </trkpt>
      <trkpt lat="43.55149" lon="6.26911">
        <ele>400.4</ele>
        <time>2025-04-09T13:45:54.000Z</time>
      </trkpt>
      <trkpt lat="43.55149" lon="6.26911">
        <ele>400.4</ele>
        <time>2025-04-09T13:45:55.000Z</time>
      </trkpt>
      <trkpt lat="43.55149" lon="6.26911">
        <ele>400.4</ele>
        <time>2025-04-09T13:45:56.000Z</time>
      </trkpt>
      <trkpt lat="43.55148" lon="6.26911">
        <ele>400.4</ele>
        <time>2025-04-09T13:46:04.000Z</time>
      </trkpt>
      <trkpt lat="43.55147" lon="6.26912">
        <ele>400.4</ele>
        <time>2025-04-09T13:46:05.000Z</time>
      </trkpt>
      <trkpt lat="43.55147" lon="6.26912">
        <ele>400.4</ele>
        <time>2025-04-09T13:46:06.000Z</time>
      </trkpt>
      <trkpt lat="43.55141" lon="6.26923">
        <ele>400.3</ele>
        <time>2025-04-09T13:46:17.000Z</time>
      </trkpt>
      <trkpt lat="43.55136" lon="6.26935">
        <ele>400.1</ele>
        <time>2025-04-09T13:46:28.000Z</time>
      </trkpt>
      <trkpt lat="43.55136" lon="6.26948">
        <ele>399.7</ele>
        <time>2025-04-09T13:46:39.000Z</time>
      </trkpt>
      <trkpt lat="43.55134" lon="6.26962">
        <ele>399.2</ele>
        <time>2025-04-09T13:46:49.000Z</time>
      </trkpt>
      <trkpt lat="43.55129" lon="6.26973">
        <ele>398.9</ele>
        <time>2025-04-09T13:46:57.000Z</time>
      </trkpt>
      <trkpt lat="43.55126" lon="6.26985">
        <ele>398.8</ele>
        <time>2025-04-09T13:47:07.000Z</time>
      </trkpt>
      <trkpt lat="43.55124" lon="6.26998">
        <ele>399</ele>
        <time>2025-04-09T13:47:20.000Z</time>
      </trkpt>
      <trkpt lat="43.5512" lon="6.2701">
        <ele>399.5</ele>
        <time>2025-04-09T13:47:31.000Z</time>
      </trkpt>
      <trkpt lat="43.55117" lon="6.27023">
        <ele>400.2</ele>
        <time>2025-04-09T13:47:42.000Z</time>
      </trkpt>
      <trkpt lat="43.55117" lon="6.27035">
        <ele>400.9</ele>
        <time>2025-04-09T13:47:49.000Z</time>
      </trkpt>
      <trkpt lat="43.55115" lon="6.27047">
        <ele>401.6</ele>
        <time>2025-04-09T13:47:56.000Z</time>
      </trkpt>
      <trkpt lat="43.55116" lon="6.2706">
        <ele>402.1</ele>
        <time>2025-04-09T13:48:03.000Z</time>
      </trkpt>
      <trkpt lat="43.55118" lon="6.27072">
        <ele>402.6</ele>
        <time>2025-04-09T13:48:10.000Z</time>
      </trkpt>
      <trkpt lat="43.5512" lon="6.27085">
        <ele>403</ele>
        <time>2025-04-09T13:48:18.000Z</time>
      </trkpt>
      <trkpt lat="43.55119" lon="6.27099">
        <ele>403.4</ele>
        <time>2025-04-09T13:48:27.000Z</time>
      </trkpt>
      <trkpt lat="43.55121" lon="6.27111">
        <ele>403.6</ele>
        <time>2025-04-09T13:48:36.000Z</time>
      </trkpt>
      <trkpt lat="43.55121" lon="6.27125">
        <ele>403.7</ele>
        <time>2025-04-09T13:48:45.000Z</time>
      </trkpt>
      <trkpt lat="43.5512" lon="6.27138">
        <ele>403.6</ele>
        <time>2025-04-09T13:48:52.000Z</time>
      </trkpt>
      <trkpt lat="43.55119" lon="6.2715">
        <ele>403.4</ele>
        <time>2025-04-09T13:49:01.000Z</time>
      </trkpt>
      <trkpt lat="43.55118" lon="6.27163">
        <ele>403</ele>
        <time>2025-04-09T13:49:10.000Z</time>
      </trkpt>
      <trkpt lat="43.55119" lon="6.27164">
        <ele>402.7</ele>
        <time>2025-04-09T13:49:15.000Z</time>
      </trkpt>
      <trkpt lat="43.55119" lon="6.27165">
        <ele>402.6</ele>
        <time>2025-04-09T13:49:16.000Z</time>
      </trkpt>
      <trkpt lat="43.55118" lon="6.27166">
        <ele>402.5</ele>
        <time>2025-04-09T13:49:17.000Z</time>
      </trkpt>
      <trkpt lat="43.55118" lon="6.27167">
        <ele>402.4</ele>
        <time>2025-04-09T13:49:18.000Z</time>
      </trkpt>
      <trkpt lat="43.55116" lon="6.27181">
        <ele>401.3</ele>
        <time>2025-04-09T13:49:26.000Z</time>
      </trkpt>
      <trkpt lat="43.55118" lon="6.27193">
        <ele>400.1</ele>
        <time>2025-04-09T13:49:34.000Z</time>
      </trkpt>
      <trkpt lat="43.55116" lon="6.27206">
        <ele>399.1</ele>
        <time>2025-04-09T13:49:42.000Z</time>
      </trkpt>
      <trkpt lat="43.55113" lon="6.27219">
        <ele>397.9</ele>
        <time>2025-04-09T13:49:53.000Z</time>
      </trkpt>
      <trkpt lat="43.55113" lon="6.27232">
        <ele>396.8</ele>
        <time>2025-04-09T13:50:02.000Z</time>
      </trkpt>
      <trkpt lat="43.55111" lon="6.27245">
        <ele>395.5</ele>
        <time>2025-04-09T13:50:12.000Z</time>
      </trkpt>
      <trkpt lat="43.55113" lon="6.27257">
        <ele>393.9</ele>
        <time>2025-04-09T13:50:22.000Z</time>
      </trkpt>
      <trkpt lat="43.55115" lon="6.2727">
        <ele>392.9</ele>
        <time>2025-04-09T13:50:30.000Z</time>
      </trkpt>
      <trkpt lat="43.55114" lon="6.27283">
        <ele>391.2</ele>
        <time>2025-04-09T13:50:41.000Z</time>
      </trkpt>
      <trkpt lat="43.55114" lon="6.27297">
        <ele>389.9</ele>
        <time>2025-04-09T13:50:51.000Z</time>
      </trkpt>
      <trkpt lat="43.55114" lon="6.27309">
        <ele>388.9</ele>
        <time>2025-04-09T13:50:59.000Z</time>
      </trkpt>
      <trkpt lat="43.55114" lon="6.27322">
        <ele>388.3</ele>
        <time>2025-04-09T13:51:05.000Z</time>
      </trkpt>
      <trkpt lat="43.55115" lon="6.27335">
        <ele>387.5</ele>
        <time>2025-04-09T13:51:13.000Z</time>
      </trkpt>
      <trkpt lat="43.55115" lon="6.27348">
        <ele>386.7</ele>
        <time>2025-04-09T13:51:23.000Z</time>
      </trkpt>
      <trkpt lat="43.55115" lon="6.27361">
        <ele>385.7</ele>
        <time>2025-04-09T13:51:34.000Z</time>
      </trkpt>
      <trkpt lat="43.55112" lon="6.27373">
        <ele>384.9</ele>
        <time>2025-04-09T13:51:43.000Z</time>
      </trkpt>
      <trkpt lat="43.55107" lon="6.27385">
        <ele>384.4</ele>
        <time>2025-04-09T13:51:52.000Z</time>
      </trkpt>
      <trkpt lat="43.55102" lon="6.27395">
        <ele>383.8</ele>
        <time>2025-04-09T13:52:09.000Z</time>
      </trkpt>
      <trkpt lat="43.551" lon="6.27409">
        <ele>383.7</ele>
        <time>2025-04-09T13:52:20.000Z</time>
      </trkpt>
      <trkpt lat="43.551" lon="6.27409">
        <ele>383.7</ele>
        <time>2025-04-09T13:52:24.000Z</time>
      </trkpt>
      <trkpt lat="43.551" lon="6.27409">
        <ele>383.7</ele>
        <time>2025-04-09T13:52:25.000Z</time>
      </trkpt>
      <trkpt lat="43.55101" lon="6.27409">
        <ele>383.7</ele>
        <time>2025-04-09T13:52:29.000Z</time>
      </trkpt>
      <trkpt lat="43.55101" lon="6.27409">
        <ele>383.7</ele>
        <time>2025-04-09T13:52:30.000Z</time>
      </trkpt>
      <trkpt lat="43.55101" lon="6.2741">
        <ele>383.7</ele>
        <time>2025-04-09T13:52:31.000Z</time>
      </trkpt>
      <trkpt lat="43.55099" lon="6.27423">
        <ele>383.7</ele>
        <time>2025-04-09T13:52:39.000Z</time>
      </trkpt>
      <trkpt lat="43.55102" lon="6.27436">
        <ele>383.9</ele>
        <time>2025-04-09T13:52:47.000Z</time>
      </trkpt>
      <trkpt lat="43.55104" lon="6.27448">
        <ele>384</ele>
        <time>2025-04-09T13:52:56.000Z</time>
      </trkpt>
      <trkpt lat="43.55098" lon="6.27459">
        <ele>383.9</ele>
        <time>2025-04-09T13:53:08.000Z</time>
      </trkpt>
      <trkpt lat="43.55094" lon="6.27471">
        <ele>383.8</ele>
        <time>2025-04-09T13:53:23.000Z</time>
      </trkpt>
      <trkpt lat="43.55089" lon="6.27481">
        <ele>383.8</ele>
        <time>2025-04-09T13:53:31.000Z</time>
      </trkpt>
      <trkpt lat="43.55085" lon="6.27494">
        <ele>384</ele>
        <time>2025-04-09T13:53:44.000Z</time>
      </trkpt>
      <trkpt lat="43.55082" lon="6.27507">
        <ele>384.2</ele>
        <time>2025-04-09T13:53:53.000Z</time>
      </trkpt>
      <trkpt lat="43.55079" lon="6.27518">
        <ele>384.5</ele>
        <time>2025-04-09T13:54:05.000Z</time>
      </trkpt>
      <trkpt lat="43.55078" lon="6.27531">
        <ele>384.8</ele>
        <time>2025-04-09T13:54:18.000Z</time>
      </trkpt>
      <trkpt lat="43.55077" lon="6.27544">
        <ele>385.3</ele>
        <time>2025-04-09T13:54:31.000Z</time>
      </trkpt>
      <trkpt lat="43.55076" lon="6.27557">
        <ele>386.1</ele>
        <time>2025-04-09T13:54:40.000Z</time>
      </trkpt>
      <trkpt lat="43.55077" lon="6.27572">
        <ele>387.6</ele>
        <time>2025-04-09T13:54:52.000Z</time>
      </trkpt>
      <trkpt lat="43.55077" lon="6.27585">
        <ele>388.5</ele>
        <time>2025-04-09T13:55:02.000Z</time>
      </trkpt>
      <trkpt lat="43.55079" lon="6.27598">
        <ele>389.4</ele>
        <time>2025-04-09T13:55:13.000Z</time>
      </trkpt>
      <trkpt lat="43.55079" lon="6.27611">
        <ele>389.9</ele>
        <time>2025-04-09T13:55:22.000Z</time>
      </trkpt>
      <trkpt lat="43.55078" lon="6.27624">
        <ele>390.4</ele>
        <time>2025-04-09T13:55:31.000Z</time>
      </trkpt>
      <trkpt lat="43.5508" lon="6.27637">
        <ele>391</ele>
        <time>2025-04-09T13:55:41.000Z</time>
      </trkpt>
      <trkpt lat="43.55082" lon="6.2765">
        <ele>391.3</ele>
        <time>2025-04-09T13:55:50.000Z</time>
      </trkpt>
      <trkpt lat="43.55084" lon="6.27663">
        <ele>391.4</ele>
        <time>2025-04-09T13:56:00.000Z</time>
      </trkpt>
      <trkpt lat="43.55086" lon="6.27676">
        <ele>391.4</ele>
        <time>2025-04-09T13:56:10.000Z</time>
      </trkpt>
      <trkpt lat="43.55088" lon="6.27689">
        <ele>391.4</ele>
        <time>2025-04-09T13:56:21.000Z</time>
      </trkpt>
      <trkpt lat="43.55091" lon="6.27702">
        <ele>391.5</ele>
        <time>2025-04-09T13:56:30.000Z</time>
      </trkpt>
      <trkpt lat="43.55093" lon="6.27715">
        <ele>391.6</ele>
        <time>2025-04-09T13:56:40.000Z</time>
      </trkpt>
      <trkpt lat="43.55096" lon="6.27727">
        <ele>391.7</ele>
        <time>2025-04-09T13:56:51.000Z</time>
      </trkpt>
      <trkpt lat="43.55098" lon="6.27739">
        <ele>391.9</ele>
        <time>2025-04-09T13:56:59.000Z</time>
      </trkpt>
      <trkpt lat="43.551" lon="6.27752">
        <ele>392.2</ele>
        <time>2025-04-09T13:57:10.000Z</time>
      </trkpt>
      <trkpt lat="43.55103" lon="6.27764">
        <ele>392.4</ele>
        <time>2025-04-09T13:57:19.000Z</time>
      </trkpt>
      <trkpt lat="43.55106" lon="6.27778">
        <ele>392.9</ele>
        <time>2025-04-09T13:57:28.000Z</time>
      </trkpt>
      <trkpt lat="43.55106" lon="6.27791">
        <ele>393.5</ele>
        <time>2025-04-09T13:57:39.000Z</time>
      </trkpt>
      <trkpt lat="43.55103" lon="6.27804">
        <ele>394.4</ele>
        <time>2025-04-09T13:57:51.000Z</time>
      </trkpt>
      <trkpt lat="43.55105" lon="6.27817">
        <ele>394.8</ele>
        <time>2025-04-09T13:57:59.000Z</time>
      </trkpt>
      <trkpt lat="43.55102" lon="6.2783">
        <ele>395.5</ele>
        <time>2025-04-09T13:58:08.000Z</time>
      </trkpt>
      <trkpt lat="43.55104" lon="6.27844">
        <ele>396.1</ele>
        <time>2025-04-09T13:58:17.000Z</time>
      </trkpt>
      <trkpt lat="43.55104" lon="6.27857">
        <ele>396.6</ele>
        <time>2025-04-09T13:58:24.000Z</time>
      </trkpt>
      <trkpt lat="43.55103" lon="6.27871">
        <ele>397.1</ele>
        <time>2025-04-09T13:58:33.000Z</time>
      </trkpt>
      <trkpt lat="43.551" lon="6.27883">
        <ele>397.8</ele>
        <time>2025-04-09T13:58:44.000Z</time>
      </trkpt>
      <trkpt lat="43.55096" lon="6.27895">
        <ele>398.9</ele>
        <time>2025-04-09T13:58:55.000Z</time>
      </trkpt>
      <trkpt lat="43.55098" lon="6.27903">
        <ele>399.5</ele>
        <time>2025-04-09T13:59:04.000Z</time>
      </trkpt>
      <trkpt lat="43.55098" lon="6.27903">
        <ele>399.6</ele>
        <time>2025-04-09T13:59:05.000Z</time>
      </trkpt>
      <trkpt lat="43.55099" lon="6.27904">
        <ele>399.9</ele>
        <time>2025-04-09T13:59:17.000Z</time>
      </trkpt>
      <trkpt lat="43.55099" lon="6.27904">
        <ele>399.9</ele>
        <time>2025-04-09T13:59:18.000Z</time>
      </trkpt>
      <trkpt lat="43.55099" lon="6.27904">
        <ele>399.9</ele>
        <time>2025-04-09T13:59:19.000Z</time>
      </trkpt>
      <trkpt lat="43.55099" lon="6.27904">
        <ele>399.9</ele>
        <time>2025-04-09T13:59:20.000Z</time>
      </trkpt>
      <trkpt lat="43.55099" lon="6.27904">
        <ele>399.9</ele>
        <time>2025-04-09T13:59:21.000Z</time>
      </trkpt>
      <trkpt lat="43.55099" lon="6.27904">
        <ele>399.9</ele>
        <time>2025-04-09T13:59:27.000Z</time>
      </trkpt>
      <trkpt lat="43.55099" lon="6.27905">
        <ele>399.9</ele>
        <time>2025-04-09T13:59:28.000Z</time>
      </trkpt>
      <trkpt lat="43.55099" lon="6.27906">
        <ele>399.9</ele>
        <time>2025-04-09T13:59:34.000Z</time>
      </trkpt>
      <trkpt lat="43.55099" lon="6.27906">
        <ele>399.9</ele>
        <time>2025-04-09T13:59:35.000Z</time>
      </trkpt>
      <trkpt lat="43.551" lon="6.27906">
        <ele>399.9</ele>
        <time>2025-04-09T13:59:52.000Z</time>
      </trkpt>
      <trkpt lat="43.551" lon="6.27906">
        <ele>399.9</ele>
        <time>2025-04-09T13:59:53.000Z</time>
      </trkpt>
      <trkpt lat="43.551" lon="6.27906">
        <ele>400.1</ele>
        <time>2025-04-09T14:00:00.000Z</time>
      </trkpt>
      <trkpt lat="43.551" lon="6.27906">
        <ele>400.1</ele>
        <time>2025-04-09T14:00:01.000Z</time>
      </trkpt>
      <trkpt lat="43.551" lon="6.27906">
        <ele>400.1</ele>
        <time>2025-04-09T14:00:03.000Z</time>
      </trkpt>
      <trkpt lat="43.551" lon="6.27906">
        <ele>400.1</ele>
        <time>2025-04-09T14:00:05.000Z</time>
      </trkpt>
      <trkpt lat="43.551" lon="6.27906">
        <ele>400.2</ele>
        <time>2025-04-09T14:00:14.000Z</time>
      </trkpt>
      <trkpt lat="43.551" lon="6.27906">
        <ele>400.3</ele>
        <time>2025-04-09T14:00:15.000Z</time>
      </trkpt>
      <trkpt lat="43.551" lon="6.27906">
        <ele>400.3</ele>
        <time>2025-04-09T14:00:16.000Z</time>
      </trkpt>
      <trkpt lat="43.551" lon="6.27906">
        <ele>400.3</ele>
        <time>2025-04-09T14:00:17.000Z</time>
      </trkpt>
      <trkpt lat="43.551" lon="6.27906">
        <ele>400.3</ele>
        <time>2025-04-09T14:00:18.000Z</time>
      </trkpt>
      <trkpt lat="43.551" lon="6.27906">
        <ele>400.4</ele>
        <time>2025-04-09T14:00:27.000Z</time>
      </trkpt>
      <trkpt lat="43.551" lon="6.27906">
        <ele>400.4</ele>
        <time>2025-04-09T14:00:28.000Z</time>
      </trkpt>
      <trkpt lat="43.551" lon="6.27906">
        <ele>400.4</ele>
        <time>2025-04-09T14:00:29.000Z</time>
      </trkpt>
      <trkpt lat="43.551" lon="6.27906">
        <ele>400.4</ele>
        <time>2025-04-09T14:00:30.000Z</time>
      </trkpt>
      <trkpt lat="43.551" lon="6.27906">
        <ele>400.5</ele>
        <time>2025-04-09T14:00:31.000Z</time>
      </trkpt>
      <trkpt lat="43.551" lon="6.27906">
        <ele>400.4</ele>
        <time>2025-04-09T14:00:37.000Z</time>
      </trkpt>
      <trkpt lat="43.55099" lon="6.27906">
        <ele>400.4</ele>
        <time>2025-04-09T14:00:38.000Z</time>
      </trkpt>
      <trkpt lat="43.55099" lon="6.27906">
        <ele>400.4</ele>
        <time>2025-04-09T14:00:39.000Z</time>
      </trkpt>
      <trkpt lat="43.55097" lon="6.27907">
        <ele>400.2</ele>
        <time>2025-04-09T14:00:47.000Z</time>
      </trkpt>
      <trkpt lat="43.55097" lon="6.27907">
        <ele>400.2</ele>
        <time>2025-04-09T14:00:48.000Z</time>
      </trkpt>
      <trkpt lat="43.55097" lon="6.27907">
        <ele>400.2</ele>
        <time>2025-04-09T14:00:49.000Z</time>
      </trkpt>
      <trkpt lat="43.55096" lon="6.27908">
        <ele>400.3</ele>
        <time>2025-04-09T14:02:21.000Z</time>
      </trkpt>
      <trkpt lat="43.55096" lon="6.27908">
        <ele>400.3</ele>
        <time>2025-04-09T14:02:22.000Z</time>
      </trkpt>
      <trkpt lat="43.55096" lon="6.27909">
        <ele>400.3</ele>
        <time>2025-04-09T14:02:23.000Z</time>
      </trkpt>
      <trkpt lat="43.55097" lon="6.27908">
        <ele>400.3</ele>
        <time>2025-04-09T14:02:31.000Z</time>
      </trkpt>
      <trkpt lat="43.55097" lon="6.27908">
        <ele>400.3</ele>
        <time>2025-04-09T14:02:32.000Z</time>
      </trkpt>
      <trkpt lat="43.55097" lon="6.27908">
        <ele>400.3</ele>
        <time>2025-04-09T14:02:33.000Z</time>
      </trkpt>
      <trkpt lat="43.55099" lon="6.27912">
        <ele>400.3</ele>
        <time>2025-04-09T14:03:16.000Z</time>
      </trkpt>
      <trkpt lat="43.55099" lon="6.27912">
        <ele>400.3</ele>
        <time>2025-04-09T14:03:17.000Z</time>
      </trkpt>
      <trkpt lat="43.55099" lon="6.27912">
        <ele>400.3</ele>
        <time>2025-04-09T14:03:18.000Z</time>
      </trkpt>
      <trkpt lat="43.55099" lon="6.27912">
        <ele>400.3</ele>
        <time>2025-04-09T14:03:19.000Z</time>
      </trkpt>
      <trkpt lat="43.55099" lon="6.27912">
        <ele>400.3</ele>
        <time>2025-04-09T14:03:20.000Z</time>
      </trkpt>
      <trkpt lat="43.55097" lon="6.27913">
        <ele>400.2</ele>
        <time>2025-04-09T14:03:31.000Z</time>
      </trkpt>
      <trkpt lat="43.55097" lon="6.27914">
        <ele>400.2</ele>
        <time>2025-04-09T14:03:32.000Z</time>
      </trkpt>
      <trkpt lat="43.55097" lon="6.27915">
        <ele>400.2</ele>
        <time>2025-04-09T14:03:33.000Z</time>
      </trkpt>
      <trkpt lat="43.55095" lon="6.27929">
        <ele>400.3</ele>
        <time>2025-04-09T14:03:46.000Z</time>
      </trkpt>
      <trkpt lat="43.55094" lon="6.27941">
        <ele>400.5</ele>
        <time>2025-04-09T14:03:53.000Z</time>
      </trkpt>
      <trkpt lat="43.55094" lon="6.27954">
        <ele>401.4</ele>
        <time>2025-04-09T14:04:06.000Z</time>
      </trkpt>
      <trkpt lat="43.55092" lon="6.27967">
        <ele>402.2</ele>
        <time>2025-04-09T14:04:16.000Z</time>
      </trkpt>
      <trkpt lat="43.55089" lon="6.27979">
        <ele>403</ele>
        <time>2025-04-09T14:04:24.000Z</time>
      </trkpt>
      <trkpt lat="43.55092" lon="6.27993">
        <ele>403.7</ele>
        <time>2025-04-09T14:04:35.000Z</time>
      </trkpt>
      <trkpt lat="43.55093" lon="6.28006">
        <ele>404</ele>
        <time>2025-04-09T14:04:43.000Z</time>
      </trkpt>
      <trkpt lat="43.55091" lon="6.28018">
        <ele>404.4</ele>
        <time>2025-04-09T14:04:50.000Z</time>
      </trkpt>
      <trkpt lat="43.55091" lon="6.28032">
        <ele>404.8</ele>
        <time>2025-04-09T14:05:00.000Z</time>
      </trkpt>
      <trkpt lat="43.55089" lon="6.28045">
        <ele>404.9</ele>
        <time>2025-04-09T14:05:09.000Z</time>
      </trkpt>
      <trkpt lat="43.55087" lon="6.28057">
        <ele>405</ele>
        <time>2025-04-09T14:05:17.000Z</time>
      </trkpt>
      <trkpt lat="43.55087" lon="6.2807">
        <ele>405</ele>
        <time>2025-04-09T14:05:25.000Z</time>
      </trkpt>
      <trkpt lat="43.55089" lon="6.28083">
        <ele>405.1</ele>
        <time>2025-04-09T14:05:34.000Z</time>
      </trkpt>
      <trkpt lat="43.5509" lon="6.28096">
        <ele>405.2</ele>
        <time>2025-04-09T14:05:43.000Z</time>
      </trkpt>
      <trkpt lat="43.55091" lon="6.28109">
        <ele>405.4</ele>
        <time>2025-04-09T14:05:52.000Z</time>
      </trkpt>
      <trkpt lat="43.55088" lon="6.28121">
        <ele>405.9</ele>
        <time>2025-04-09T14:06:02.000Z</time>
      </trkpt>
      <trkpt lat="43.55087" lon="6.28134">
        <ele>406.2</ele>
        <time>2025-04-09T14:06:10.000Z</time>
      </trkpt>
      <trkpt lat="43.55085" lon="6.28147">
        <ele>406.5</ele>
        <time>2025-04-09T14:06:20.000Z</time>
      </trkpt>
      <trkpt lat="43.55083" lon="6.28161">
        <ele>406.6</ele>
        <time>2025-04-09T14:06:28.000Z</time>
      </trkpt>
      <trkpt lat="43.5508" lon="6.28173">
        <ele>406.7</ele>
        <time>2025-04-09T14:06:35.000Z</time>
      </trkpt>
      <trkpt lat="43.55081" lon="6.28188">
        <ele>406.8</ele>
        <time>2025-04-09T14:06:42.000Z</time>
      </trkpt>
      <trkpt lat="43.55081" lon="6.282">
        <ele>406.9</ele>
        <time>2025-04-09T14:06:51.000Z</time>
      </trkpt>
      <trkpt lat="43.55082" lon="6.28214">
        <ele>407</ele>
        <time>2025-04-09T14:06:59.000Z</time>
      </trkpt>
      <trkpt lat="43.55079" lon="6.28228">
        <ele>406.8</ele>
        <time>2025-04-09T14:07:06.000Z</time>
      </trkpt>
      <trkpt lat="43.55075" lon="6.28239">
        <ele>406.7</ele>
        <time>2025-04-09T14:07:15.000Z</time>
      </trkpt>
      <trkpt lat="43.55069" lon="6.28249">
        <ele>406.4</ele>
        <time>2025-04-09T14:07:24.000Z</time>
      </trkpt>
      <trkpt lat="43.55065" lon="6.28262">
        <ele>406.2</ele>
        <time>2025-04-09T14:07:34.000Z</time>
      </trkpt>
      <trkpt lat="43.55062" lon="6.28275">
        <ele>406</ele>
        <time>2025-04-09T14:07:41.000Z</time>
      </trkpt>
      <trkpt lat="43.55061" lon="6.28287">
        <ele>405.9</ele>
        <time>2025-04-09T14:07:51.000Z</time>
      </trkpt>
      <trkpt lat="43.55059" lon="6.283">
        <ele>406</ele>
        <time>2025-04-09T14:08:03.000Z</time>
      </trkpt>
      <trkpt lat="43.55057" lon="6.28313">
        <ele>406.1</ele>
        <time>2025-04-09T14:08:09.000Z</time>
      </trkpt>
      <trkpt lat="43.55057" lon="6.28325">
        <ele>406.1</ele>
        <time>2025-04-09T14:08:14.000Z</time>
      </trkpt>
      <trkpt lat="43.5506" lon="6.28337">
        <ele>406.1</ele>
        <time>2025-04-09T14:08:21.000Z</time>
      </trkpt>
      <trkpt lat="43.55058" lon="6.2835">
        <ele>406.2</ele>
        <time>2025-04-09T14:08:28.000Z</time>
      </trkpt>
      <trkpt lat="43.55063" lon="6.28361">
        <ele>406.3</ele>
        <time>2025-04-09T14:08:37.000Z</time>
      </trkpt>
      <trkpt lat="43.55069" lon="6.28371">
        <ele>406.4</ele>
        <time>2025-04-09T14:08:45.000Z</time>
      </trkpt>
      <trkpt lat="43.55074" lon="6.28382">
        <ele>406.7</ele>
        <time>2025-04-09T14:08:52.000Z</time>
      </trkpt>
      <trkpt lat="43.55075" lon="6.28396">
        <ele>406.8</ele>
        <time>2025-04-09T14:09:01.000Z</time>
      </trkpt>
      <trkpt lat="43.55078" lon="6.28408">
        <ele>407</ele>
        <time>2025-04-09T14:09:08.000Z</time>
      </trkpt>
      <trkpt lat="43.55077" lon="6.28421">
        <ele>407.2</ele>
        <time>2025-04-09T14:09:17.000Z</time>
      </trkpt>
      <trkpt lat="43.55073" lon="6.28433">
        <ele>407.2</ele>
        <time>2025-04-09T14:09:25.000Z</time>
      </trkpt>
      <trkpt lat="43.55074" lon="6.28446">
        <ele>407.1</ele>
        <time>2025-04-09T14:09:34.000Z</time>
      </trkpt>
      <trkpt lat="43.55073" lon="6.28459">
        <ele>407</ele>
        <time>2025-04-09T14:09:50.000Z</time>
      </trkpt>
      <trkpt lat="43.5507" lon="6.28472">
        <ele>406.9</ele>
        <time>2025-04-09T14:10:01.000Z</time>
      </trkpt>
      <trkpt lat="43.55069" lon="6.28485">
        <ele>406.9</ele>
        <time>2025-04-09T14:10:13.000Z</time>
      </trkpt>
      <trkpt lat="43.55071" lon="6.2849">
        <ele>406.9</ele>
        <time>2025-04-09T14:10:21.000Z</time>
      </trkpt>
      <trkpt lat="43.55071" lon="6.2849">
        <ele>406.9</ele>
        <time>2025-04-09T14:10:22.000Z</time>
      </trkpt>
      <trkpt lat="43.55071" lon="6.2849">
        <ele>406.8</ele>
        <time>2025-04-09T14:10:23.000Z</time>
      </trkpt>
      <trkpt lat="43.55071" lon="6.2849">
        <ele>406.8</ele>
        <time>2025-04-09T14:10:24.000Z</time>
      </trkpt>
      <trkpt lat="43.55071" lon="6.2849">
        <ele>406.8</ele>
        <time>2025-04-09T14:10:25.000Z</time>
      </trkpt>
      <trkpt lat="43.55071" lon="6.28491">
        <ele>406.8</ele>
        <time>2025-04-09T14:10:26.000Z</time>
      </trkpt>
      <trkpt lat="43.5507" lon="6.28495">
        <ele>406.8</ele>
        <time>2025-04-09T14:10:34.000Z</time>
      </trkpt>
      <trkpt lat="43.5507" lon="6.28495">
        <ele>406.8</ele>
        <time>2025-04-09T14:10:35.000Z</time>
      </trkpt>
      <trkpt lat="43.55071" lon="6.28495">
        <ele>406.8</ele>
        <time>2025-04-09T14:10:36.000Z</time>
      </trkpt>
      <trkpt lat="43.55071" lon="6.28494">
        <ele>406.8</ele>
        <time>2025-04-09T14:10:37.000Z</time>
      </trkpt>
      <trkpt lat="43.55071" lon="6.28494">
        <ele>406.8</ele>
        <time>2025-04-09T14:10:38.000Z</time>
      </trkpt>
      <trkpt lat="43.55071" lon="6.28494">
        <ele>406.8</ele>
        <time>2025-04-09T14:10:42.000Z</time>
      </trkpt>
      <trkpt lat="43.55071" lon="6.28494">
        <ele>406.8</ele>
        <time>2025-04-09T14:10:43.000Z</time>
      </trkpt>
      <trkpt lat="43.55071" lon="6.28494">
        <ele>406.8</ele>
        <time>2025-04-09T14:10:50.000Z</time>
      </trkpt>
      <trkpt lat="43.55071" lon="6.28495">
        <ele>406.8</ele>
        <time>2025-04-09T14:10:51.000Z</time>
      </trkpt>
      <trkpt lat="43.55072" lon="6.28496">
        <ele>406.8</ele>
        <time>2025-04-09T14:11:01.000Z</time>
      </trkpt>
      <trkpt lat="43.55072" lon="6.28496">
        <ele>406.8</ele>
        <time>2025-04-09T14:11:02.000Z</time>
      </trkpt>
      <trkpt lat="43.55072" lon="6.28496">
        <ele>406.8</ele>
        <time>2025-04-09T14:11:03.000Z</time>
      </trkpt>
      <trkpt lat="43.55073" lon="6.28496">
        <ele>406.7</ele>
        <time>2025-04-09T14:11:09.000Z</time>
      </trkpt>
      <trkpt lat="43.55072" lon="6.28497">
        <ele>406.7</ele>
        <time>2025-04-09T14:11:10.000Z</time>
      </trkpt>
      <trkpt lat="43.55072" lon="6.28499">
        <ele>406.7</ele>
        <time>2025-04-09T14:11:11.000Z</time>
      </trkpt>
      <trkpt lat="43.55069" lon="6.28512">
        <ele>406.7</ele>
        <time>2025-04-09T14:11:18.000Z</time>
      </trkpt>
      <trkpt lat="43.55067" lon="6.28525">
        <ele>406.7</ele>
        <time>2025-04-09T14:11:25.000Z</time>
      </trkpt>
      <trkpt lat="43.55064" lon="6.28536">
        <ele>406.7</ele>
        <time>2025-04-09T14:11:34.000Z</time>
      </trkpt>
      <trkpt lat="43.55058" lon="6.28547">
        <ele>406.8</ele>
        <time>2025-04-09T14:11:43.000Z</time>
      </trkpt>
      <trkpt lat="43.55053" lon="6.28558">
        <ele>406.9</ele>
        <time>2025-04-09T14:11:51.000Z</time>
      </trkpt>
      <trkpt lat="43.55045" lon="6.28567">
        <ele>407</ele>
        <time>2025-04-09T14:12:00.000Z</time>
      </trkpt>
      <trkpt lat="43.5504" lon="6.28578">
        <ele>407.1</ele>
        <time>2025-04-09T14:12:08.000Z</time>
      </trkpt>
      <trkpt lat="43.55034" lon="6.28589">
        <ele>407.3</ele>
        <time>2025-04-09T14:12:17.000Z</time>
      </trkpt>
      <trkpt lat="43.5503" lon="6.28601">
        <ele>407.5</ele>
        <time>2025-04-09T14:12:25.000Z</time>
      </trkpt>
      <trkpt lat="43.55023" lon="6.28609">
        <ele>407.8</ele>
        <time>2025-04-09T14:12:34.000Z</time>
      </trkpt>
      <trkpt lat="43.55017" lon="6.28619">
        <ele>408</ele>
        <time>2025-04-09T14:12:43.000Z</time>
      </trkpt>
      <trkpt lat="43.55009" lon="6.28627">
        <ele>408.2</ele>
        <time>2025-04-09T14:12:52.000Z</time>
      </trkpt>
      <trkpt lat="43.55003" lon="6.28637">
        <ele>408.2</ele>
        <time>2025-04-09T14:13:01.000Z</time>
      </trkpt>
      <trkpt lat="43.54997" lon="6.28647">
        <ele>408.2</ele>
        <time>2025-04-09T14:13:09.000Z</time>
      </trkpt>
      <trkpt lat="43.54991" lon="6.28658">
        <ele>408.3</ele>
        <time>2025-04-09T14:13:18.000Z</time>
      </trkpt>
      <trkpt lat="43.54984" lon="6.28669">
        <ele>408.3</ele>
        <time>2025-04-09T14:13:26.000Z</time>
      </trkpt>
      <trkpt lat="43.54978" lon="6.2868">
        <ele>408.3</ele>
        <time>2025-04-09T14:13:33.000Z</time>
      </trkpt>
      <trkpt lat="43.54974" lon="6.28692">
        <ele>408.3</ele>
        <time>2025-04-09T14:13:41.000Z</time>
      </trkpt>
      <trkpt lat="43.54972" lon="6.28704">
        <ele>408.4</ele>
        <time>2025-04-09T14:13:48.000Z</time>
      </trkpt>
      <trkpt lat="43.54968" lon="6.28716">
        <ele>408.4</ele>
        <time>2025-04-09T14:13:56.000Z</time>
      </trkpt>
      <trkpt lat="43.54964" lon="6.28728">
        <ele>408.5</ele>
        <time>2025-04-09T14:14:05.000Z</time>
      </trkpt>
      <trkpt lat="43.54959" lon="6.2874">
        <ele>408.6</ele>
        <time>2025-04-09T14:14:14.000Z</time>
      </trkpt>
      <trkpt lat="43.54952" lon="6.28749">
        <ele>408.8</ele>
        <time>2025-04-09T14:14:24.000Z</time>
      </trkpt>
      <trkpt lat="43.54944" lon="6.28757">
        <ele>409</ele>
        <time>2025-04-09T14:14:34.000Z</time>
      </trkpt>
      <trkpt lat="43.54939" lon="6.28767">
        <ele>409.1</ele>
        <time>2025-04-09T14:14:42.000Z</time>
      </trkpt>
      <trkpt lat="43.54931" lon="6.28776">
        <ele>409.1</ele>
        <time>2025-04-09T14:14:50.000Z</time>
      </trkpt>
      <trkpt lat="43.54926" lon="6.28787">
        <ele>409.2</ele>
        <time>2025-04-09T14:14:59.000Z</time>
      </trkpt>
      <trkpt lat="43.54922" lon="6.288">
        <ele>409.3</ele>
        <time>2025-04-09T14:15:07.000Z</time>
      </trkpt>
      <trkpt lat="43.54915" lon="6.28809">
        <ele>409.3</ele>
        <time>2025-04-09T14:15:16.000Z</time>
      </trkpt>
      <trkpt lat="43.54908" lon="6.28818">
        <ele>409.4</ele>
        <time>2025-04-09T14:15:23.000Z</time>
      </trkpt>
      <trkpt lat="43.54906" lon="6.28831">
        <ele>409.5</ele>
        <time>2025-04-09T14:15:32.000Z</time>
      </trkpt>
      <trkpt lat="43.54901" lon="6.28842">
        <ele>409.6</ele>
        <time>2025-04-09T14:15:40.000Z</time>
      </trkpt>
      <trkpt lat="43.54896" lon="6.28853">
        <ele>409.8</ele>
        <time>2025-04-09T14:15:48.000Z</time>
      </trkpt>
      <trkpt lat="43.54889" lon="6.28863">
        <ele>410</ele>
        <time>2025-04-09T14:15:58.000Z</time>
      </trkpt>
      <trkpt lat="43.54886" lon="6.28874">
        <ele>410.2</ele>
        <time>2025-04-09T14:16:05.000Z</time>
      </trkpt>
      <trkpt lat="43.5488" lon="6.28885">
        <ele>410.4</ele>
        <time>2025-04-09T14:16:13.000Z</time>
      </trkpt>
      <trkpt lat="43.54875" lon="6.28896">
        <ele>410.6</ele>
        <time>2025-04-09T14:16:21.000Z</time>
      </trkpt>
      <trkpt lat="43.5487" lon="6.28907">
        <ele>410.8</ele>
        <time>2025-04-09T14:16:28.000Z</time>
      </trkpt>
      <trkpt lat="43.54865" lon="6.2892">
        <ele>411.1</ele>
        <time>2025-04-09T14:16:36.000Z</time>
      </trkpt>
      <trkpt lat="43.5486" lon="6.2893">
        <ele>411.4</ele>
        <time>2025-04-09T14:16:45.000Z</time>
      </trkpt>
      <trkpt lat="43.54853" lon="6.2894">
        <ele>411.5</ele>
        <time>2025-04-09T14:16:54.000Z</time>
      </trkpt>
      <trkpt lat="43.54847" lon="6.28949">
        <ele>411.5</ele>
        <time>2025-04-09T14:17:02.000Z</time>
      </trkpt>
      <trkpt lat="43.5484" lon="6.28958">
        <ele>411.4</ele>
        <time>2025-04-09T14:17:10.000Z</time>
      </trkpt>
      <trkpt lat="43.54834" lon="6.28967">
        <ele>411.2</ele>
        <time>2025-04-09T14:17:18.000Z</time>
      </trkpt>
      <trkpt lat="43.54827" lon="6.28974">
        <ele>411.1</ele>
        <time>2025-04-09T14:17:26.000Z</time>
      </trkpt>
      <trkpt lat="43.54819" lon="6.28983">
        <ele>411</ele>
        <time>2025-04-09T14:17:34.000Z</time>
      </trkpt>
      <trkpt lat="43.54811" lon="6.28992">
        <ele>410.6</ele>
        <time>2025-04-09T14:17:44.000Z</time>
      </trkpt>
      <trkpt lat="43.54805" lon="6.29001">
        <ele>410.2</ele>
        <time>2025-04-09T14:17:53.000Z</time>
      </trkpt>
      <trkpt lat="43.54797" lon="6.29011">
        <ele>410.1</ele>
        <time>2025-04-09T14:18:03.000Z</time>
      </trkpt>
      <trkpt lat="43.54789" lon="6.2902">
        <ele>410</ele>
        <time>2025-04-09T14:18:11.000Z</time>
      </trkpt>
      <trkpt lat="43.54781" lon="6.29027">
        <ele>410</ele>
        <time>2025-04-09T14:18:20.000Z</time>
      </trkpt>
      <trkpt lat="43.54772" lon="6.29033">
        <ele>410.1</ele>
        <time>2025-04-09T14:18:29.000Z</time>
      </trkpt>
      <trkpt lat="43.54766" lon="6.29043">
        <ele>410.3</ele>
        <time>2025-04-09T14:18:37.000Z</time>
      </trkpt>
      <trkpt lat="43.54759" lon="6.29051">
        <ele>410.3</ele>
        <time>2025-04-09T14:18:45.000Z</time>
      </trkpt>
      <trkpt lat="43.54751" lon="6.29059">
        <ele>410.2</ele>
        <time>2025-04-09T14:18:54.000Z</time>
      </trkpt>
      <trkpt lat="43.54745" lon="6.29069">
        <ele>410.2</ele>
        <time>2025-04-09T14:19:03.000Z</time>
      </trkpt>
      <trkpt lat="43.5474" lon="6.29081">
        <ele>410.1</ele>
        <time>2025-04-09T14:19:14.000Z</time>
      </trkpt>
      <trkpt lat="43.54734" lon="6.29091">
        <ele>410</ele>
        <time>2025-04-09T14:19:22.000Z</time>
      </trkpt>
      <trkpt lat="43.54728" lon="6.29101">
        <ele>409.8</ele>
        <time>2025-04-09T14:19:32.000Z</time>
      </trkpt>
      <trkpt lat="43.54723" lon="6.29111">
        <ele>409.5</ele>
        <time>2025-04-09T14:19:40.000Z</time>
      </trkpt>
      <trkpt lat="43.54723" lon="6.29116">
        <ele>409.1</ele>
        <time>2025-04-09T14:19:49.000Z</time>
      </trkpt>
      <trkpt lat="43.54723" lon="6.29116">
        <ele>409.1</ele>
        <time>2025-04-09T14:19:50.000Z</time>
      </trkpt>
      <trkpt lat="43.54725" lon="6.29117">
        <ele>408.7</ele>
        <time>2025-04-09T14:20:09.000Z</time>
      </trkpt>
      <trkpt lat="43.54725" lon="6.29117">
        <ele>408.7</ele>
        <time>2025-04-09T14:20:10.000Z</time>
      </trkpt>
      <trkpt lat="43.54725" lon="6.2912">
        <ele>408.6</ele>
        <time>2025-04-09T14:20:16.000Z</time>
      </trkpt>
      <trkpt lat="43.54725" lon="6.29121">
        <ele>408.6</ele>
        <time>2025-04-09T14:20:17.000Z</time>
      </trkpt>
      <trkpt lat="43.54725" lon="6.29121">
        <ele>408.6</ele>
        <time>2025-04-09T14:20:18.000Z</time>
      </trkpt>
      <trkpt lat="43.54725" lon="6.29123">
        <ele>408.5</ele>
        <time>2025-04-09T14:20:45.000Z</time>
      </trkpt>
      <trkpt lat="43.54725" lon="6.29123">
        <ele>408.4</ele>
        <time>2025-04-09T14:20:46.000Z</time>
      </trkpt>
      <trkpt lat="43.54725" lon="6.29122">
        <ele>408.6</ele>
        <time>2025-04-09T14:20:51.000Z</time>
      </trkpt>
      <trkpt lat="43.54725" lon="6.29122">
        <ele>408.6</ele>
        <time>2025-04-09T14:20:52.000Z</time>
      </trkpt>
      <trkpt lat="43.54724" lon="6.29122">
        <ele>408.6</ele>
        <time>2025-04-09T14:20:56.000Z</time>
      </trkpt>
      <trkpt lat="43.54724" lon="6.29121">
        <ele>408.6</ele>
        <time>2025-04-09T14:20:57.000Z</time>
      </trkpt>
      <trkpt lat="43.54724" lon="6.29121">
        <ele>408.6</ele>
        <time>2025-04-09T14:20:58.000Z</time>
      </trkpt>
      <trkpt lat="43.54724" lon="6.29121">
        <ele>408.7</ele>
        <time>2025-04-09T14:20:59.000Z</time>
      </trkpt>
      <trkpt lat="43.54724" lon="6.29121">
        <ele>408.7</ele>
        <time>2025-04-09T14:21:00.000Z</time>
      </trkpt>
      <trkpt lat="43.54724" lon="6.29122">
        <ele>408.7</ele>
        <time>2025-04-09T14:21:01.000Z</time>
      </trkpt>
      <trkpt lat="43.54718" lon="6.29124">
        <ele>408.7</ele>
        <time>2025-04-09T14:21:09.000Z</time>
      </trkpt>
      <trkpt lat="43.54717" lon="6.29124">
        <ele>408.7</ele>
        <time>2025-04-09T14:21:10.000Z</time>
      </trkpt>
      <trkpt lat="43.54719" lon="6.29124">
        <ele>408.7</ele>
        <time>2025-04-09T14:21:14.000Z</time>
      </trkpt>
      <trkpt lat="43.54719" lon="6.29123">
        <ele>408.7</ele>
        <time>2025-04-09T14:21:15.000Z</time>
      </trkpt>
      <trkpt lat="43.54719" lon="6.29123">
        <ele>408.7</ele>
        <time>2025-04-09T14:21:16.000Z</time>
      </trkpt>
      <trkpt lat="43.54719" lon="6.29123">
        <ele>408.7</ele>
        <time>2025-04-09T14:21:17.000Z</time>
      </trkpt>
      <trkpt lat="43.54719" lon="6.29123">
        <ele>408.7</ele>
        <time>2025-04-09T14:21:18.000Z</time>
      </trkpt>
      <trkpt lat="43.54719" lon="6.29123">
        <ele>408.7</ele>
        <time>2025-04-09T14:21:19.000Z</time>
      </trkpt>
      <trkpt lat="43.5472" lon="6.29124">
        <ele>408.7</ele>
        <time>2025-04-09T14:21:20.000Z</time>
      </trkpt>
      <trkpt lat="43.5472" lon="6.29124">
        <ele>408.7</ele>
        <time>2025-04-09T14:21:21.000Z</time>
      </trkpt>
      <trkpt lat="43.54723" lon="6.29123">
        <ele>408.7</ele>
        <time>2025-04-09T14:21:25.000Z</time>
      </trkpt>
      <trkpt lat="43.54723" lon="6.29122">
        <ele>408.7</ele>
        <time>2025-04-09T14:21:26.000Z</time>
      </trkpt>
      <trkpt lat="43.54723" lon="6.29121">
        <ele>408.7</ele>
        <time>2025-04-09T14:21:27.000Z</time>
      </trkpt>
      <trkpt lat="43.54727" lon="6.2912">
        <ele>408.7</ele>
        <time>2025-04-09T14:21:35.000Z</time>
      </trkpt>
      <trkpt lat="43.54727" lon="6.2912">
        <ele>408.7</ele>
        <time>2025-04-09T14:21:36.000Z</time>
      </trkpt>
      <trkpt lat="43.54726" lon="6.29121">
        <ele>408.7</ele>
        <time>2025-04-09T14:21:37.000Z</time>
      </trkpt>
      <trkpt lat="43.54726" lon="6.29121">
        <ele>408.7</ele>
        <time>2025-04-09T14:21:38.000Z</time>
      </trkpt>
      <trkpt lat="43.54726" lon="6.29122">
        <ele>408.7</ele>
        <time>2025-04-09T14:21:39.000Z</time>
      </trkpt>
      <trkpt lat="43.54725" lon="6.29123">
        <ele>408.7</ele>
        <time>2025-04-09T14:21:42.000Z</time>
      </trkpt>
      <trkpt lat="43.54725" lon="6.29123">
        <ele>408.7</ele>
        <time>2025-04-09T14:21:43.000Z</time>
      </trkpt>
      <trkpt lat="43.54726" lon="6.29123">
        <ele>408.7</ele>
        <time>2025-04-09T14:21:44.000Z</time>
      </trkpt>
      <trkpt lat="43.54726" lon="6.29123">
        <ele>408.6</ele>
        <time>2025-04-09T14:21:59.000Z</time>
      </trkpt>
      <trkpt lat="43.54726" lon="6.29123">
        <ele>408.6</ele>
        <time>2025-04-09T14:22:00.000Z</time>
      </trkpt>
      <trkpt lat="43.54726" lon="6.29123">
        <ele>408.6</ele>
        <time>2025-04-09T14:22:01.000Z</time>
      </trkpt>
      <trkpt lat="43.54727" lon="6.29118">
        <ele>408.4</ele>
        <time>2025-04-09T14:22:21.000Z</time>
      </trkpt>
      <trkpt lat="43.54726" lon="6.29119">
        <ele>408.3</ele>
        <time>2025-04-09T14:22:22.000Z</time>
      </trkpt>
      <trkpt lat="43.54726" lon="6.2912">
        <ele>408.3</ele>
        <time>2025-04-09T14:22:23.000Z</time>
      </trkpt>
      <trkpt lat="43.54718" lon="6.29129">
        <ele>408.3</ele>
        <time>2025-04-09T14:22:31.000Z</time>
      </trkpt>
      <trkpt lat="43.54712" lon="6.29138">
        <ele>408.2</ele>
        <time>2025-04-09T14:22:37.000Z</time>
      </trkpt>
      <trkpt lat="43.54706" lon="6.29148">
        <ele>408.1</ele>
        <time>2025-04-09T14:22:46.000Z</time>
      </trkpt>
      <trkpt lat="43.54698" lon="6.29154">
        <ele>408</ele>
        <time>2025-04-09T14:22:54.000Z</time>
      </trkpt>
      <trkpt lat="43.54693" lon="6.29166">
        <ele>407.9</ele>
        <time>2025-04-09T14:23:01.000Z</time>
      </trkpt>
      <trkpt lat="43.54691" lon="6.2918">
        <ele>407.6</ele>
        <time>2025-04-09T14:23:09.000Z</time>
      </trkpt>
      <trkpt lat="43.54697" lon="6.2919">
        <ele>407.1</ele>
        <time>2025-04-09T14:23:17.000Z</time>
      </trkpt>
      <trkpt lat="43.54707" lon="6.29193">
        <ele>406.3</ele>
        <time>2025-04-09T14:23:25.000Z</time>
      </trkpt>
      <trkpt lat="43.54715" lon="6.29199">
        <ele>405.1</ele>
        <time>2025-04-09T14:23:35.000Z</time>
      </trkpt>
      <trkpt lat="43.54721" lon="6.2921">
        <ele>404.5</ele>
        <time>2025-04-09T14:23:46.000Z</time>
      </trkpt>
      <trkpt lat="43.54725" lon="6.29221">
        <ele>404.2</ele>
        <time>2025-04-09T14:23:56.000Z</time>
      </trkpt>
      <trkpt lat="43.54731" lon="6.29232">
        <ele>404.3</ele>
        <time>2025-04-09T14:24:05.000Z</time>
      </trkpt>
      <trkpt lat="43.54735" lon="6.29243">
        <ele>404.3</ele>
        <time>2025-04-09T14:24:14.000Z</time>
      </trkpt>
      <trkpt lat="43.54738" lon="6.29256">
        <ele>404.5</ele>
        <time>2025-04-09T14:24:23.000Z</time>
      </trkpt>
      <trkpt lat="43.54739" lon="6.29268">
        <ele>404.5</ele>
        <time>2025-04-09T14:24:32.000Z</time>
      </trkpt>
      <trkpt lat="43.54736" lon="6.29281">
        <ele>404.4</ele>
        <time>2025-04-09T14:24:39.000Z</time>
      </trkpt>
      <trkpt lat="43.5473" lon="6.29291">
        <ele>404.2</ele>
        <time>2025-04-09T14:24:48.000Z</time>
      </trkpt>
      <trkpt lat="43.54724" lon="6.29301">
        <ele>403.8</ele>
        <time>2025-04-09T14:24:55.000Z</time>
      </trkpt>
      <trkpt lat="43.54721" lon="6.29314">
        <ele>403.2</ele>
        <time>2025-04-09T14:25:04.000Z</time>
      </trkpt>
      <trkpt lat="43.54722" lon="6.29326">
        <ele>402.6</ele>
        <time>2025-04-09T14:25:13.000Z</time>
      </trkpt>
      <trkpt lat="43.54722" lon="6.2934">
        <ele>402.4</ele>
        <time>2025-04-09T14:25:23.000Z</time>
      </trkpt>
      <trkpt lat="43.54715" lon="6.29349">
        <ele>402.5</ele>
        <time>2025-04-09T14:25:36.000Z</time>
      </trkpt>
      <trkpt lat="43.54714" lon="6.29362">
        <ele>402.7</ele>
        <time>2025-04-09T14:25:47.000Z</time>
      </trkpt>
      <trkpt lat="43.54713" lon="6.29366">
        <ele>402.9</ele>
        <time>2025-04-09T14:25:57.000Z</time>
      </trkpt>
      <trkpt lat="43.54713" lon="6.29366">
        <ele>402.9</ele>
        <time>2025-04-09T14:25:58.000Z</time>
      </trkpt>
      <trkpt lat="43.54713" lon="6.29365">
        <ele>402.9</ele>
        <time>2025-04-09T14:25:59.000Z</time>
      </trkpt>
      <trkpt lat="43.54713" lon="6.29365">
        <ele>402.9</ele>
        <time>2025-04-09T14:26:00.000Z</time>
      </trkpt>
      <trkpt lat="43.54713" lon="6.29365">
        <ele>402.9</ele>
        <time>2025-04-09T14:26:01.000Z</time>
      </trkpt>
      <trkpt lat="43.54713" lon="6.29365">
        <ele>402.9</ele>
        <time>2025-04-09T14:26:02.000Z</time>
      </trkpt>
      <trkpt lat="43.54713" lon="6.29365">
        <ele>402.9</ele>
        <time>2025-04-09T14:26:03.000Z</time>
      </trkpt>
      <trkpt lat="43.54713" lon="6.29365">
        <ele>402.9</ele>
        <time>2025-04-09T14:26:04.000Z</time>
      </trkpt>
      <trkpt lat="43.54711" lon="6.2937">
        <ele>403</ele>
        <time>2025-04-09T14:26:10.000Z</time>
      </trkpt>
      <trkpt lat="43.5471" lon="6.29371">
        <ele>403</ele>
        <time>2025-04-09T14:26:11.000Z</time>
      </trkpt>
      <trkpt lat="43.54702" lon="6.29381">
        <ele>403</ele>
        <time>2025-04-09T14:26:22.000Z</time>
      </trkpt>
      <trkpt lat="43.54695" lon="6.29392">
        <ele>402.7</ele>
        <time>2025-04-09T14:26:31.000Z</time>
      </trkpt>
      <trkpt lat="43.5469" lon="6.29403">
        <ele>402.3</ele>
        <time>2025-04-09T14:26:37.000Z</time>
      </trkpt>
      <trkpt lat="43.54686" lon="6.29415">
        <ele>401.6</ele>
        <time>2025-04-09T14:26:46.000Z</time>
      </trkpt>
      <trkpt lat="43.54686" lon="6.29417">
        <ele>401.4</ele>
        <time>2025-04-09T14:26:50.000Z</time>
      </trkpt>
      <trkpt lat="43.54685" lon="6.29418">
        <ele>401.3</ele>
        <time>2025-04-09T14:26:51.000Z</time>
      </trkpt>
      <trkpt lat="43.54685" lon="6.29419">
        <ele>401.3</ele>
        <time>2025-04-09T14:26:52.000Z</time>
      </trkpt>
      <trkpt lat="43.54685" lon="6.2942">
        <ele>401.3</ele>
        <time>2025-04-09T14:26:53.000Z</time>
      </trkpt>
      <trkpt lat="43.54685" lon="6.2942">
        <ele>401.3</ele>
        <time>2025-04-09T14:26:54.000Z</time>
      </trkpt>
      <trkpt lat="43.54684" lon="6.29422">
        <ele>401.2</ele>
        <time>2025-04-09T14:26:55.000Z</time>
      </trkpt>
      <trkpt lat="43.54684" lon="6.29421">
        <ele>401.2</ele>
        <time>2025-04-09T14:26:56.000Z</time>
      </trkpt>
      <trkpt lat="43.54685" lon="6.2942">
        <ele>400.9</ele>
        <time>2025-04-09T14:27:15.000Z</time>
      </trkpt>
      <trkpt lat="43.54685" lon="6.2942">
        <ele>400.9</ele>
        <time>2025-04-09T14:27:16.000Z</time>
      </trkpt>
      <trkpt lat="43.54679" lon="6.2943">
        <ele>400.8</ele>
        <time>2025-04-09T14:27:26.000Z</time>
      </trkpt>
      <trkpt lat="43.54673" lon="6.2944">
        <ele>400.7</ele>
        <time>2025-04-09T14:27:36.000Z</time>
      </trkpt>
      <trkpt lat="43.54666" lon="6.29451">
        <ele>400.5</ele>
        <time>2025-04-09T14:27:45.000Z</time>
      </trkpt>
      <trkpt lat="43.5466" lon="6.29461">
        <ele>400.2</ele>
        <time>2025-04-09T14:27:52.000Z</time>
      </trkpt>
      <trkpt lat="43.54652" lon="6.29469">
        <ele>399.9</ele>
        <time>2025-04-09T14:28:00.000Z</time>
      </trkpt>
      <trkpt lat="43.54644" lon="6.29476">
        <ele>399.6</ele>
        <time>2025-04-09T14:28:09.000Z</time>
      </trkpt>
      <trkpt lat="43.54636" lon="6.29484">
        <ele>399.2</ele>
        <time>2025-04-09T14:28:17.000Z</time>
      </trkpt>
      <trkpt lat="43.5463" lon="6.29493">
        <ele>398.9</ele>
        <time>2025-04-09T14:28:24.000Z</time>
      </trkpt>
      <trkpt lat="43.54626" lon="6.29506">
        <ele>398.4</ele>
        <time>2025-04-09T14:28:37.000Z</time>
      </trkpt>
      <trkpt lat="43.54625" lon="6.29521">
        <ele>398.1</ele>
        <time>2025-04-09T14:28:46.000Z</time>
      </trkpt>
      <trkpt lat="43.54624" lon="6.29535">
        <ele>398</ele>
        <time>2025-04-09T14:28:52.000Z</time>
      </trkpt>
      <trkpt lat="43.54623" lon="6.29547">
        <ele>397.8</ele>
        <time>2025-04-09T14:28:58.000Z</time>
      </trkpt>
      <trkpt lat="43.54624" lon="6.2956">
        <ele>397.6</ele>
        <time>2025-04-09T14:29:07.000Z</time>
      </trkpt>
      <trkpt lat="43.54625" lon="6.29575">
        <ele>397.5</ele>
        <time>2025-04-09T14:29:17.000Z</time>
      </trkpt>
      <trkpt lat="43.54622" lon="6.29587">
        <ele>397.4</ele>
        <time>2025-04-09T14:29:23.000Z</time>
      </trkpt>
      <trkpt lat="43.5462" lon="6.29599">
        <ele>397.3</ele>
        <time>2025-04-09T14:29:30.000Z</time>
      </trkpt>
      <trkpt lat="43.54618" lon="6.29613">
        <ele>397.3</ele>
        <time>2025-04-09T14:29:37.000Z</time>
      </trkpt>
      <trkpt lat="43.54616" lon="6.29626">
        <ele>397.3</ele>
        <time>2025-04-09T14:29:45.000Z</time>
      </trkpt>
      <trkpt lat="43.54616" lon="6.29639">
        <ele>397.4</ele>
        <time>2025-04-09T14:29:54.000Z</time>
      </trkpt>
      <trkpt lat="43.54616" lon="6.29652">
        <ele>397.5</ele>
        <time>2025-04-09T14:30:04.000Z</time>
      </trkpt>
      <trkpt lat="43.54612" lon="6.29664">
        <ele>397.7</ele>
        <time>2025-04-09T14:30:11.000Z</time>
      </trkpt>
      <trkpt lat="43.54606" lon="6.29674">
        <ele>398</ele>
        <time>2025-04-09T14:30:21.000Z</time>
      </trkpt>
      <trkpt lat="43.54604" lon="6.29681">
        <ele>398.5</ele>
        <time>2025-04-09T14:30:34.000Z</time>
      </trkpt>
      <trkpt lat="43.54604" lon="6.29681">
        <ele>398.5</ele>
        <time>2025-04-09T14:30:35.000Z</time>
      </trkpt>
      <trkpt lat="43.54604" lon="6.29681">
        <ele>398.5</ele>
        <time>2025-04-09T14:30:36.000Z</time>
      </trkpt>
      <trkpt lat="43.54604" lon="6.29681">
        <ele>398.6</ele>
        <time>2025-04-09T14:30:40.000Z</time>
      </trkpt>
      <trkpt lat="43.54603" lon="6.29682">
        <ele>398.6</ele>
        <time>2025-04-09T14:30:41.000Z</time>
      </trkpt>
      <trkpt lat="43.54604" lon="6.29682">
        <ele>398.7</ele>
        <time>2025-04-09T14:30:46.000Z</time>
      </trkpt>
      <trkpt lat="43.54604" lon="6.29682">
        <ele>398.7</ele>
        <time>2025-04-09T14:30:47.000Z</time>
      </trkpt>
      <trkpt lat="43.54604" lon="6.29682">
        <ele>398.7</ele>
        <time>2025-04-09T14:30:48.000Z</time>
      </trkpt>
      <trkpt lat="43.54603" lon="6.29682">
        <ele>398.9</ele>
        <time>2025-04-09T14:31:07.000Z</time>
      </trkpt>
      <trkpt lat="43.54603" lon="6.29682">
        <ele>398.9</ele>
        <time>2025-04-09T14:31:08.000Z</time>
      </trkpt>
      <trkpt lat="43.54603" lon="6.29682">
        <ele>398.9</ele>
        <time>2025-04-09T14:31:09.000Z</time>
      </trkpt>
      <trkpt lat="43.54603" lon="6.29683">
        <ele>398.9</ele>
        <time>2025-04-09T14:31:10.000Z</time>
      </trkpt>
      <trkpt lat="43.54603" lon="6.29683">
        <ele>398.9</ele>
        <time>2025-04-09T14:31:11.000Z</time>
      </trkpt>
      <trkpt lat="43.546" lon="6.29695">
        <ele>398.9</ele>
        <time>2025-04-09T14:31:23.000Z</time>
      </trkpt>
      <trkpt lat="43.54601" lon="6.29697">
        <ele>399</ele>
        <time>2025-04-09T14:31:47.000Z</time>
      </trkpt>
      <trkpt lat="43.54601" lon="6.29697">
        <ele>399</ele>
        <time>2025-04-09T14:31:48.000Z</time>
      </trkpt>
      <trkpt lat="43.54602" lon="6.29696">
        <ele>398.9</ele>
        <time>2025-04-09T14:32:39.000Z</time>
      </trkpt>
      <trkpt lat="43.54601" lon="6.29696">
        <ele>398.9</ele>
        <time>2025-04-09T14:32:40.000Z</time>
      </trkpt>
      <trkpt lat="43.54601" lon="6.29696">
        <ele>398.9</ele>
        <time>2025-04-09T14:32:41.000Z</time>
      </trkpt>
      <trkpt lat="43.54599" lon="6.29709">
        <ele>398.9</ele>
        <time>2025-04-09T14:32:51.000Z</time>
      </trkpt>
      <trkpt lat="43.54598" lon="6.2971">
        <ele>399.1</ele>
        <time>2025-04-09T14:32:57.000Z</time>
      </trkpt>
      <trkpt lat="43.54598" lon="6.2971">
        <ele>399.1</ele>
        <time>2025-04-09T14:32:58.000Z</time>
      </trkpt>
      <trkpt lat="43.54598" lon="6.2971">
        <ele>399.1</ele>
        <time>2025-04-09T14:32:59.000Z</time>
      </trkpt>
      <trkpt lat="43.54599" lon="6.29714">
        <ele>399.3</ele>
        <time>2025-04-09T14:33:12.000Z</time>
      </trkpt>
      <trkpt lat="43.54599" lon="6.29715">
        <ele>399.3</ele>
        <time>2025-04-09T14:33:13.000Z</time>
      </trkpt>
      <trkpt lat="43.54607" lon="6.29722">
        <ele>399.3</ele>
        <time>2025-04-09T14:33:21.000Z</time>
      </trkpt>
      <trkpt lat="43.54615" lon="6.29727">
        <ele>399.2</ele>
        <time>2025-04-09T14:33:30.000Z</time>
      </trkpt>
      <trkpt lat="43.54624" lon="6.29735">
        <ele>398.9</ele>
        <time>2025-04-09T14:33:42.000Z</time>
      </trkpt>
      <trkpt lat="43.54631" lon="6.29745">
        <ele>398.5</ele>
        <time>2025-04-09T14:33:49.000Z</time>
      </trkpt>
      <trkpt lat="43.54639" lon="6.29749">
        <ele>398</ele>
        <time>2025-04-09T14:33:57.000Z</time>
      </trkpt>
      <trkpt lat="43.54647" lon="6.29756">
        <ele>397.6</ele>
        <time>2025-04-09T14:34:04.000Z</time>
      </trkpt>
      <trkpt lat="43.54655" lon="6.29763">
        <ele>397.2</ele>
        <time>2025-04-09T14:34:15.000Z</time>
      </trkpt>
      <trkpt lat="43.54664" lon="6.29767">
        <ele>396.9</ele>
        <time>2025-04-09T14:34:22.000Z</time>
      </trkpt>
      <trkpt lat="43.54672" lon="6.29772">
        <ele>396.7</ele>
        <time>2025-04-09T14:34:31.000Z</time>
      </trkpt>
      <trkpt lat="43.54681" lon="6.29779">
        <ele>396.6</ele>
        <time>2025-04-09T14:34:40.000Z</time>
      </trkpt>
      <trkpt lat="43.5469" lon="6.29784">
        <ele>396.5</ele>
        <time>2025-04-09T14:34:48.000Z</time>
      </trkpt>
      <trkpt lat="43.54699" lon="6.29789">
        <ele>396.4</ele>
        <time>2025-04-09T14:34:56.000Z</time>
      </trkpt>
      <trkpt lat="43.54708" lon="6.29792">
        <ele>396.4</ele>
        <time>2025-04-09T14:35:04.000Z</time>
      </trkpt>
      <trkpt lat="43.54715" lon="6.298">
        <ele>396.4</ele>
        <time>2025-04-09T14:35:11.000Z</time>
      </trkpt>
      <trkpt lat="43.54724" lon="6.29805">
        <ele>396.4</ele>
        <time>2025-04-09T14:35:18.000Z</time>
      </trkpt>
      <trkpt lat="43.54733" lon="6.29809">
        <ele>396.4</ele>
        <time>2025-04-09T14:35:26.000Z</time>
      </trkpt>
      <trkpt lat="43.54742" lon="6.29814">
        <ele>396.5</ele>
        <time>2025-04-09T14:35:34.000Z</time>
      </trkpt>
      <trkpt lat="43.54751" lon="6.2982">
        <ele>396.6</ele>
        <time>2025-04-09T14:35:41.000Z</time>
      </trkpt>
      <trkpt lat="43.5476" lon="6.29826">
        <ele>396.8</ele>
        <time>2025-04-09T14:35:49.000Z</time>
      </trkpt>
      <trkpt lat="43.5477" lon="6.2983">
        <ele>397.2</ele>
        <time>2025-04-09T14:35:58.000Z</time>
      </trkpt>
      <trkpt lat="43.54777" lon="6.29834">
        <ele>398.4</ele>
        <time>2025-04-09T14:36:12.000Z</time>
      </trkpt>
      <trkpt lat="43.54777" lon="6.29834">
        <ele>398.5</ele>
        <time>2025-04-09T14:36:13.000Z</time>
      </trkpt>
      <trkpt lat="43.54777" lon="6.29831">
        <ele>398.7</ele>
        <time>2025-04-09T14:36:20.000Z</time>
      </trkpt>
      <trkpt lat="43.54776" lon="6.29831">
        <ele>398.7</ele>
        <time>2025-04-09T14:36:21.000Z</time>
      </trkpt>
      <trkpt lat="43.54776" lon="6.2983">
        <ele>399.4</ele>
        <time>2025-04-09T14:36:29.000Z</time>
      </trkpt>
      <trkpt lat="43.54776" lon="6.2983">
        <ele>399.4</ele>
        <time>2025-04-09T14:36:30.000Z</time>
      </trkpt>
      <trkpt lat="43.54776" lon="6.2983">
        <ele>399.5</ele>
        <time>2025-04-09T14:36:39.000Z</time>
      </trkpt>
      <trkpt lat="43.54776" lon="6.2983">
        <ele>399.6</ele>
        <time>2025-04-09T14:36:40.000Z</time>
      </trkpt>
      <trkpt lat="43.54777" lon="6.29829">
        <ele>399.6</ele>
        <time>2025-04-09T14:36:41.000Z</time>
      </trkpt>
      <trkpt lat="43.54777" lon="6.29828">
        <ele>399.5</ele>
        <time>2025-04-09T14:36:49.000Z</time>
      </trkpt>
      <trkpt lat="43.54777" lon="6.29828">
        <ele>399.5</ele>
        <time>2025-04-09T14:36:50.000Z</time>
      </trkpt>
      <trkpt lat="43.54777" lon="6.29827">
        <ele>399.4</ele>
        <time>2025-04-09T14:36:51.000Z</time>
      </trkpt>
      <trkpt lat="43.54776" lon="6.2983">
        <ele>399.4</ele>
        <time>2025-04-09T14:36:54.000Z</time>
      </trkpt>
      <trkpt lat="43.54776" lon="6.29831">
        <ele>399.3</ele>
        <time>2025-04-09T14:36:55.000Z</time>
      </trkpt>
      <trkpt lat="43.54777" lon="6.29835">
        <ele>399.3</ele>
        <time>2025-04-09T14:37:01.000Z</time>
      </trkpt>
      <trkpt lat="43.54777" lon="6.29834">
        <ele>399.2</ele>
        <time>2025-04-09T14:37:02.000Z</time>
      </trkpt>
      <trkpt lat="43.54778" lon="6.29834">
        <ele>399.2</ele>
        <time>2025-04-09T14:37:03.000Z</time>
      </trkpt>
      <trkpt lat="43.54779" lon="6.29834">
        <ele>399.1</ele>
        <time>2025-04-09T14:37:57.000Z</time>
      </trkpt>
      <trkpt lat="43.54779" lon="6.29834">
        <ele>399.1</ele>
        <time>2025-04-09T14:37:58.000Z</time>
      </trkpt>
      <trkpt lat="43.54779" lon="6.29834">
        <ele>399.1</ele>
        <time>2025-04-09T14:37:59.000Z</time>
      </trkpt>
      <trkpt lat="43.5478" lon="6.29834">
        <ele>399.1</ele>
        <time>2025-04-09T14:38:00.000Z</time>
      </trkpt>
      <trkpt lat="43.54777" lon="6.29838">
        <ele>399.1</ele>
        <time>2025-04-09T14:38:40.000Z</time>
      </trkpt>
      <trkpt lat="43.54776" lon="6.2984">
        <ele>399.1</ele>
        <time>2025-04-09T14:38:41.000Z</time>
      </trkpt>
      <trkpt lat="43.54771" lon="6.2985">
        <ele>399.1</ele>
        <time>2025-04-09T14:38:49.000Z</time>
      </trkpt>
      <trkpt lat="43.54768" lon="6.29863">
        <ele>398.9</ele>
        <time>2025-04-09T14:38:58.000Z</time>
      </trkpt>
      <trkpt lat="43.54765" lon="6.29876">
        <ele>398.7</ele>
        <time>2025-04-09T14:39:05.000Z</time>
      </trkpt>
      <trkpt lat="43.54761" lon="6.29887">
        <ele>398.6</ele>
        <time>2025-04-09T14:39:11.000Z</time>
      </trkpt>
      <trkpt lat="43.54759" lon="6.299">
        <ele>398.3</ele>
        <time>2025-04-09T14:39:19.000Z</time>
      </trkpt>
      <trkpt lat="43.54759" lon="6.29914">
        <ele>398.1</ele>
        <time>2025-04-09T14:39:27.000Z</time>
      </trkpt>
      <trkpt lat="43.54757" lon="6.29927">
        <ele>397.9</ele>
        <time>2025-04-09T14:39:36.000Z</time>
      </trkpt>
      <trkpt lat="43.54754" lon="6.29941">
        <ele>397.9</ele>
        <time>2025-04-09T14:39:45.000Z</time>
      </trkpt>
      <trkpt lat="43.54751" lon="6.29953">
        <ele>398</ele>
        <time>2025-04-09T14:39:53.000Z</time>
      </trkpt>
      <trkpt lat="43.54748" lon="6.29966">
        <ele>398.1</ele>
        <time>2025-04-09T14:40:01.000Z</time>
      </trkpt>
      <trkpt lat="43.54745" lon="6.29978">
        <ele>398.2</ele>
        <time>2025-04-09T14:40:07.000Z</time>
      </trkpt>
      <trkpt lat="43.54743" lon="6.29991">
        <ele>398.3</ele>
        <time>2025-04-09T14:40:17.000Z</time>
      </trkpt>
      <trkpt lat="43.54741" lon="6.30004">
        <ele>398.5</ele>
        <time>2025-04-09T14:40:27.000Z</time>
      </trkpt>
      <trkpt lat="43.54739" lon="6.30018">
        <ele>398.6</ele>
        <time>2025-04-09T14:40:35.000Z</time>
      </trkpt>
      <trkpt lat="43.54737" lon="6.3003">
        <ele>398.7</ele>
        <time>2025-04-09T14:40:43.000Z</time>
      </trkpt>
      <trkpt lat="43.54733" lon="6.30042">
        <ele>398.9</ele>
        <time>2025-04-09T14:40:51.000Z</time>
      </trkpt>
      <trkpt lat="43.54731" lon="6.30055">
        <ele>399.2</ele>
        <time>2025-04-09T14:40:59.000Z</time>
      </trkpt>
      <trkpt lat="43.54728" lon="6.30068">
        <ele>399.4</ele>
        <time>2025-04-09T14:41:07.000Z</time>
      </trkpt>
      <trkpt lat="43.54723" lon="6.3008">
        <ele>399.6</ele>
        <time>2025-04-09T14:41:15.000Z</time>
      </trkpt>
      <trkpt lat="43.54724" lon="6.30093">
        <ele>399.9</ele>
        <time>2025-04-09T14:41:24.000Z</time>
      </trkpt>
      <trkpt lat="43.5472" lon="6.30105">
        <ele>400.2</ele>
        <time>2025-04-09T14:41:32.000Z</time>
      </trkpt>
      <trkpt lat="43.54717" lon="6.30117">
        <ele>400.4</ele>
        <time>2025-04-09T14:41:40.000Z</time>
      </trkpt>
      <trkpt lat="43.54715" lon="6.3012">
        <ele>401.1</ele>
        <time>2025-04-09T14:42:01.000Z</time>
      </trkpt>
      <trkpt lat="43.54715" lon="6.3012">
        <ele>401.2</ele>
        <time>2025-04-09T14:42:07.000Z</time>
      </trkpt>
      <trkpt lat="43.54716" lon="6.3012">
        <ele>401.2</ele>
        <time>2025-04-09T14:42:08.000Z</time>
      </trkpt>
      <trkpt lat="43.54717" lon="6.30122">
        <ele>401.1</ele>
        <time>2025-04-09T14:42:16.000Z</time>
      </trkpt>
      <trkpt lat="43.54717" lon="6.30122">
        <ele>401.1</ele>
        <time>2025-04-09T14:42:17.000Z</time>
      </trkpt>
      <trkpt lat="43.54717" lon="6.30122">
        <ele>401.1</ele>
        <time>2025-04-09T14:42:18.000Z</time>
      </trkpt>
      <trkpt lat="43.54716" lon="6.30122">
        <ele>401</ele>
        <time>2025-04-09T14:42:27.000Z</time>
      </trkpt>
      <trkpt lat="43.54716" lon="6.30121">
        <ele>401</ele>
        <time>2025-04-09T14:42:28.000Z</time>
      </trkpt>
      <trkpt lat="43.54715" lon="6.3012">
        <ele>401</ele>
        <time>2025-04-09T14:42:29.000Z</time>
      </trkpt>
      <trkpt lat="43.54708" lon="6.30113">
        <ele>400.9</ele>
        <time>2025-04-09T14:42:37.000Z</time>
      </trkpt>
      <trkpt lat="43.54698" lon="6.30114">
        <ele>400.7</ele>
        <time>2025-04-09T14:42:43.000Z</time>
      </trkpt>
      <trkpt lat="43.54692" lon="6.30123">
        <ele>400.5</ele>
        <time>2025-04-09T14:42:52.000Z</time>
      </trkpt>
      <trkpt lat="43.54686" lon="6.30136">
        <ele>400.5</ele>
        <time>2025-04-09T14:42:59.000Z</time>
      </trkpt>
      <trkpt lat="43.54686" lon="6.30138">
        <ele>400.5</ele>
        <time>2025-04-09T14:43:02.000Z</time>
      </trkpt>
      <trkpt lat="43.54686" lon="6.30138">
        <ele>400.5</ele>
        <time>2025-04-09T14:43:03.000Z</time>
      </trkpt>
      <trkpt lat="43.54686" lon="6.30138">
        <ele>400.5</ele>
        <time>2025-04-09T14:43:04.000Z</time>
      </trkpt>
      <trkpt lat="43.54686" lon="6.30138">
        <ele>400.5</ele>
        <time>2025-04-09T14:43:09.000Z</time>
      </trkpt>
      <trkpt lat="43.54686" lon="6.30138">
        <ele>400.5</ele>
        <time>2025-04-09T14:43:10.000Z</time>
      </trkpt>
      <trkpt lat="43.54686" lon="6.30138">
        <ele>400.5</ele>
        <time>2025-04-09T14:43:11.000Z</time>
      </trkpt>
      <trkpt lat="43.54686" lon="6.30138">
        <ele>400.5</ele>
        <time>2025-04-09T14:43:12.000Z</time>
      </trkpt>
      <trkpt lat="43.54687" lon="6.30138">
        <ele>400.5</ele>
        <time>2025-04-09T14:43:13.000Z</time>
      </trkpt>
      <trkpt lat="43.54688" lon="6.30137">
        <ele>400.5</ele>
        <time>2025-04-09T14:43:14.000Z</time>
      </trkpt>
      <trkpt lat="43.54689" lon="6.30136">
        <ele>400.5</ele>
        <time>2025-04-09T14:43:15.000Z</time>
      </trkpt>
      <trkpt lat="43.5469" lon="6.30136">
        <ele>400.5</ele>
        <time>2025-04-09T14:43:16.000Z</time>
      </trkpt>
      <trkpt lat="43.5469" lon="6.30136">
        <ele>400.5</ele>
        <time>2025-04-09T14:43:21.000Z</time>
      </trkpt>
      <trkpt lat="43.5469" lon="6.30136">
        <ele>400.5</ele>
        <time>2025-04-09T14:43:22.000Z</time>
      </trkpt>
      <trkpt lat="43.5469" lon="6.30136">
        <ele>400.5</ele>
        <time>2025-04-09T14:43:23.000Z</time>
      </trkpt>
      <trkpt lat="43.54691" lon="6.30137">
        <ele>400.5</ele>
        <time>2025-04-09T14:43:44.000Z</time>
      </trkpt>
      <trkpt lat="43.54691" lon="6.30137">
        <ele>400.5</ele>
        <time>2025-04-09T14:43:45.000Z</time>
      </trkpt>
      <trkpt lat="43.54691" lon="6.30137">
        <ele>400.5</ele>
        <time>2025-04-09T14:43:46.000Z</time>
      </trkpt>
      <trkpt lat="43.54691" lon="6.30137">
        <ele>400.5</ele>
        <time>2025-04-09T14:43:47.000Z</time>
      </trkpt>
      <trkpt lat="43.54691" lon="6.30137">
        <ele>400.5</ele>
        <time>2025-04-09T14:43:48.000Z</time>
      </trkpt>
      <trkpt lat="43.54691" lon="6.30137">
        <ele>400.5</ele>
        <time>2025-04-09T14:43:54.000Z</time>
      </trkpt>
      <trkpt lat="43.54691" lon="6.30137">
        <ele>400.5</ele>
        <time>2025-04-09T14:43:55.000Z</time>
      </trkpt>
      <trkpt lat="43.54691" lon="6.30137">
        <ele>400.5</ele>
        <time>2025-04-09T14:43:56.000Z</time>
      </trkpt>
      <trkpt lat="43.54691" lon="6.30137">
        <ele>400.5</ele>
        <time>2025-04-09T14:43:57.000Z</time>
      </trkpt>
      <trkpt lat="43.54691" lon="6.30137">
        <ele>400.5</ele>
        <time>2025-04-09T14:43:58.000Z</time>
      </trkpt>
      <trkpt lat="43.5469" lon="6.3014">
        <ele>400.5</ele>
        <time>2025-04-09T14:44:05.000Z</time>
      </trkpt>
      <trkpt lat="43.5469" lon="6.30141">
        <ele>400.5</ele>
        <time>2025-04-09T14:44:06.000Z</time>
      </trkpt>
      <trkpt lat="43.54683" lon="6.3015">
        <ele>400.5</ele>
        <time>2025-04-09T14:44:15.000Z</time>
      </trkpt>
      <trkpt lat="43.54679" lon="6.30161">
        <ele>400.6</ele>
        <time>2025-04-09T14:44:26.000Z</time>
      </trkpt>
      <trkpt lat="43.54675" lon="6.30173">
        <ele>400.8</ele>
        <time>2025-04-09T14:44:38.000Z</time>
      </trkpt>
      <trkpt lat="43.5467" lon="6.30183">
        <ele>401</ele>
        <time>2025-04-09T14:44:47.000Z</time>
      </trkpt>
      <trkpt lat="43.54673" lon="6.30195">
        <ele>401.3</ele>
        <time>2025-04-09T14:44:55.000Z</time>
      </trkpt>
      <trkpt lat="43.54666" lon="6.30206">
        <ele>401.7</ele>
        <time>2025-04-09T14:45:06.000Z</time>
      </trkpt>
      <trkpt lat="43.5466" lon="6.30208">
        <ele>401.8</ele>
        <time>2025-04-09T14:45:11.000Z</time>
      </trkpt>
      <trkpt lat="43.5466" lon="6.30209">
        <ele>401.9</ele>
        <time>2025-04-09T14:45:12.000Z</time>
      </trkpt>
      <trkpt lat="43.5466" lon="6.30209">
        <ele>401.9</ele>
        <time>2025-04-09T14:45:13.000Z</time>
      </trkpt>
      <trkpt lat="43.54666" lon="6.30207">
        <ele>402</ele>
        <time>2025-04-09T14:45:39.000Z</time>
      </trkpt>
      <trkpt lat="43.54665" lon="6.30207">
        <ele>402</ele>
        <time>2025-04-09T14:45:40.000Z</time>
      </trkpt>
      <trkpt lat="43.54665" lon="6.30207">
        <ele>402</ele>
        <time>2025-04-09T14:45:41.000Z</time>
      </trkpt>
      <trkpt lat="43.54665" lon="6.30207">
        <ele>402</ele>
        <time>2025-04-09T14:45:42.000Z</time>
      </trkpt>
      <trkpt lat="43.54665" lon="6.30207">
        <ele>402</ele>
        <time>2025-04-09T14:45:43.000Z</time>
      </trkpt>
      <trkpt lat="43.54665" lon="6.30207">
        <ele>402.1</ele>
        <time>2025-04-09T14:45:44.000Z</time>
      </trkpt>
      <trkpt lat="43.54664" lon="6.30207">
        <ele>402.1</ele>
        <time>2025-04-09T14:45:45.000Z</time>
      </trkpt>
      <trkpt lat="43.54664" lon="6.30207">
        <ele>402.1</ele>
        <time>2025-04-09T14:45:46.000Z</time>
      </trkpt>
      <trkpt lat="43.54666" lon="6.30213">
        <ele>402.2</ele>
        <time>2025-04-09T14:45:59.000Z</time>
      </trkpt>
      <trkpt lat="43.54666" lon="6.30213">
        <ele>402.2</ele>
        <time>2025-04-09T14:46:00.000Z</time>
      </trkpt>
      <trkpt lat="43.54666" lon="6.30213">
        <ele>402.2</ele>
        <time>2025-04-09T14:46:01.000Z</time>
      </trkpt>
      <trkpt lat="43.54666" lon="6.30213">
        <ele>402.2</ele>
        <time>2025-04-09T14:46:02.000Z</time>
      </trkpt>
      <trkpt lat="43.54666" lon="6.30213">
        <ele>402.2</ele>
        <time>2025-04-09T14:46:03.000Z</time>
      </trkpt>
      <trkpt lat="43.54666" lon="6.30213">
        <ele>402.2</ele>
        <time>2025-04-09T14:46:04.000Z</time>
      </trkpt>
      <trkpt lat="43.54667" lon="6.30214">
        <ele>402.2</ele>
        <time>2025-04-09T14:46:05.000Z</time>
      </trkpt>
      <trkpt lat="43.54668" lon="6.30214">
        <ele>402.3</ele>
        <time>2025-04-09T14:46:26.000Z</time>
      </trkpt>
      <trkpt lat="43.54668" lon="6.30215">
        <ele>402.3</ele>
        <time>2025-04-09T14:46:27.000Z</time>
      </trkpt>
      <trkpt lat="43.54668" lon="6.30215">
        <ele>402.3</ele>
        <time>2025-04-09T14:46:28.000Z</time>
      </trkpt>
      <trkpt lat="43.54668" lon="6.30215">
        <ele>402.3</ele>
        <time>2025-04-09T14:46:29.000Z</time>
      </trkpt>
      <trkpt lat="43.54668" lon="6.30215">
        <ele>402.3</ele>
        <time>2025-04-09T14:46:30.000Z</time>
      </trkpt>
      <trkpt lat="43.54668" lon="6.30215">
        <ele>402.3</ele>
        <time>2025-04-09T14:46:31.000Z</time>
      </trkpt>
      <trkpt lat="43.54668" lon="6.30215">
        <ele>402.2</ele>
        <time>2025-04-09T14:46:36.000Z</time>
      </trkpt>
      <trkpt lat="43.54668" lon="6.30217">
        <ele>402.2</ele>
        <time>2025-04-09T14:46:37.000Z</time>
      </trkpt>
      <trkpt lat="43.54668" lon="6.30218">
        <ele>402.2</ele>
        <time>2025-04-09T14:46:38.000Z</time>
      </trkpt>
      <trkpt lat="43.54664" lon="6.30229">
        <ele>402.4</ele>
        <time>2025-04-09T14:46:54.000Z</time>
      </trkpt>
      <trkpt lat="43.5466" lon="6.30242">
        <ele>403.8</ele>
        <time>2025-04-09T14:47:20.000Z</time>
      </trkpt>
      <trkpt lat="43.54667" lon="6.30251">
        <ele>404.5</ele>
        <time>2025-04-09T14:47:30.000Z</time>
      </trkpt>
      <trkpt lat="43.54666" lon="6.30262">
        <ele>406.3</ele>
        <time>2025-04-09T14:47:45.000Z</time>
      </trkpt>
      <trkpt lat="43.54666" lon="6.30262">
        <ele>406.3</ele>
        <time>2025-04-09T14:47:46.000Z</time>
      </trkpt>
      <trkpt lat="43.54664" lon="6.30262">
        <ele>406.7</ele>
        <time>2025-04-09T14:47:54.000Z</time>
      </trkpt>
      <trkpt lat="43.54663" lon="6.30263">
        <ele>406.7</ele>
        <time>2025-04-09T14:47:55.000Z</time>
      </trkpt>
      <trkpt lat="43.54663" lon="6.30264">
        <ele>406.7</ele>
        <time>2025-04-09T14:47:56.000Z</time>
      </trkpt>
      <trkpt lat="43.54667" lon="6.30274">
        <ele>406.9</ele>
        <time>2025-04-09T14:48:10.000Z</time>
      </trkpt>
      <trkpt lat="43.54675" lon="6.3028">
        <ele>408.4</ele>
        <time>2025-04-09T14:48:28.000Z</time>
      </trkpt>
      <trkpt lat="43.54678" lon="6.30293">
        <ele>410.4</ele>
        <time>2025-04-09T14:48:57.000Z</time>
      </trkpt>
      <trkpt lat="43.54673" lon="6.30302">
        <ele>411.5</ele>
        <time>2025-04-09T14:49:22.000Z</time>
      </trkpt>
      <trkpt lat="43.54672" lon="6.30303">
        <ele>411.5</ele>
        <time>2025-04-09T14:49:25.000Z</time>
      </trkpt>
      <trkpt lat="43.54673" lon="6.30303">
        <ele>411.5</ele>
        <time>2025-04-09T14:49:26.000Z</time>
      </trkpt>
      <trkpt lat="43.54673" lon="6.30304">
        <ele>411.4</ele>
        <time>2025-04-09T14:49:27.000Z</time>
      </trkpt>
      <trkpt lat="43.54673" lon="6.30305">
        <ele>411.5</ele>
        <time>2025-04-09T14:49:28.000Z</time>
      </trkpt>
      <trkpt lat="43.54673" lon="6.30308">
        <ele>411.5</ele>
        <time>2025-04-09T14:49:34.000Z</time>
      </trkpt>
      <trkpt lat="43.54673" lon="6.30308">
        <ele>411.5</ele>
        <time>2025-04-09T14:49:35.000Z</time>
      </trkpt>
      <trkpt lat="43.54673" lon="6.30308">
        <ele>411.5</ele>
        <time>2025-04-09T14:49:36.000Z</time>
      </trkpt>
      <trkpt lat="43.54673" lon="6.30308">
        <ele>411.5</ele>
        <time>2025-04-09T14:49:37.000Z</time>
      </trkpt>
      <trkpt lat="43.54673" lon="6.30308">
        <ele>411.5</ele>
        <time>2025-04-09T14:49:38.000Z</time>
      </trkpt>
      <trkpt lat="43.54673" lon="6.30308">
        <ele>411.5</ele>
        <time>2025-04-09T14:49:39.000Z</time>
      </trkpt>
      <trkpt lat="43.54673" lon="6.30309">
        <ele>411.4</ele>
        <time>2025-04-09T14:49:40.000Z</time>
      </trkpt>
      <trkpt lat="43.54672" lon="6.30309">
        <ele>411.4</ele>
        <time>2025-04-09T14:49:41.000Z</time>
      </trkpt>
      <trkpt lat="43.54671" lon="6.30309">
        <ele>411.4</ele>
        <time>2025-04-09T14:49:42.000Z</time>
      </trkpt>
      <trkpt lat="43.54671" lon="6.30309">
        <ele>411.4</ele>
        <time>2025-04-09T14:49:43.000Z</time>
      </trkpt>
      <trkpt lat="43.54665" lon="6.3032">
        <ele>410.9</ele>
        <time>2025-04-09T14:50:01.000Z</time>
      </trkpt>
      <trkpt lat="43.5467" lon="6.3033">
        <ele>411.6</ele>
        <time>2025-04-09T14:50:15.000Z</time>
      </trkpt>
      <trkpt lat="43.54673" lon="6.30338">
        <ele>412.1</ele>
        <time>2025-04-09T14:50:24.000Z</time>
      </trkpt>
      <trkpt lat="43.54673" lon="6.30338">
        <ele>412.2</ele>
        <time>2025-04-09T14:50:25.000Z</time>
      </trkpt>
      <trkpt lat="43.54673" lon="6.30338">
        <ele>412.2</ele>
        <time>2025-04-09T14:50:26.000Z</time>
      </trkpt>
      <trkpt lat="43.54673" lon="6.30338">
        <ele>412.2</ele>
        <time>2025-04-09T14:50:27.000Z</time>
      </trkpt>
      <trkpt lat="43.54673" lon="6.30338">
        <ele>412.3</ele>
        <time>2025-04-09T14:50:28.000Z</time>
      </trkpt>
      <trkpt lat="43.54674" lon="6.30337">
        <ele>412.3</ele>
        <time>2025-04-09T14:50:29.000Z</time>
      </trkpt>
      <trkpt lat="43.54674" lon="6.30336">
        <ele>412.3</ele>
        <time>2025-04-09T14:50:30.000Z</time>
      </trkpt>
      <trkpt lat="43.54674" lon="6.30335">
        <ele>412.4</ele>
        <time>2025-04-09T14:50:31.000Z</time>
      </trkpt>
      <trkpt lat="43.54674" lon="6.30334">
        <ele>412.4</ele>
        <time>2025-04-09T14:50:32.000Z</time>
      </trkpt>
      <trkpt lat="43.54673" lon="6.30333">
        <ele>412.4</ele>
        <time>2025-04-09T14:50:33.000Z</time>
      </trkpt>
      <trkpt lat="43.54673" lon="6.30332">
        <ele>412.4</ele>
        <time>2025-04-09T14:50:34.000Z</time>
      </trkpt>
      <trkpt lat="43.54667" lon="6.30327">
        <ele>412.3</ele>
        <time>2025-04-09T14:50:46.000Z</time>
      </trkpt>
      <trkpt lat="43.54666" lon="6.30327">
        <ele>412.3</ele>
        <time>2025-04-09T14:50:47.000Z</time>
      </trkpt>
      <trkpt lat="43.54666" lon="6.30326">
        <ele>412.2</ele>
        <time>2025-04-09T14:50:48.000Z</time>
      </trkpt>
      <trkpt lat="43.54667" lon="6.30326">
        <ele>412.2</ele>
        <time>2025-04-09T14:50:49.000Z</time>
      </trkpt>
      <trkpt lat="43.54667" lon="6.30326">
        <ele>412.2</ele>
        <time>2025-04-09T14:50:50.000Z</time>
      </trkpt>
      <trkpt lat="43.54659" lon="6.30328">
        <ele>411.4</ele>
        <time>2025-04-09T14:51:11.000Z</time>
      </trkpt>
      <trkpt lat="43.5466" lon="6.30329">
        <ele>411.4</ele>
        <time>2025-04-09T14:51:12.000Z</time>
      </trkpt>
      <trkpt lat="43.54661" lon="6.30329">
        <ele>411.3</ele>
        <time>2025-04-09T14:51:13.000Z</time>
      </trkpt>
      <trkpt lat="43.5466" lon="6.30329">
        <ele>411.3</ele>
        <time>2025-04-09T14:51:14.000Z</time>
      </trkpt>
      <trkpt lat="43.5466" lon="6.30329">
        <ele>411.2</ele>
        <time>2025-04-09T14:51:15.000Z</time>
      </trkpt>
      <trkpt lat="43.54661" lon="6.30333">
        <ele>411.1</ele>
        <time>2025-04-09T14:51:19.000Z</time>
      </trkpt>
      <trkpt lat="43.54661" lon="6.30333">
        <ele>411.1</ele>
        <time>2025-04-09T14:51:20.000Z</time>
      </trkpt>
      <trkpt lat="43.54661" lon="6.30334">
        <ele>410.9</ele>
        <time>2025-04-09T14:51:29.000Z</time>
      </trkpt>
      <trkpt lat="43.5466" lon="6.30334">
        <ele>410.8</ele>
        <time>2025-04-09T14:51:30.000Z</time>
      </trkpt>
      <trkpt lat="43.5466" lon="6.30334">
        <ele>410.8</ele>
        <time>2025-04-09T14:51:31.000Z</time>
      </trkpt>
      <trkpt lat="43.54651" lon="6.30331">
        <ele>410.1</ele>
        <time>2025-04-09T14:51:51.000Z</time>
      </trkpt>
      <trkpt lat="43.5465" lon="6.3033">
        <ele>410</ele>
        <time>2025-04-09T14:51:52.000Z</time>
      </trkpt>
      <trkpt lat="43.54649" lon="6.30329">
        <ele>410</ele>
        <time>2025-04-09T14:51:53.000Z</time>
      </trkpt>
      <trkpt lat="43.54646" lon="6.3033">
        <ele>409.7</ele>
        <time>2025-04-09T14:51:59.000Z</time>
      </trkpt>
      <trkpt lat="43.54646" lon="6.3033">
        <ele>409.7</ele>
        <time>2025-04-09T14:52:00.000Z</time>
      </trkpt>
      <trkpt lat="43.54646" lon="6.3033">
        <ele>409.7</ele>
        <time>2025-04-09T14:52:01.000Z</time>
      </trkpt>
      <trkpt lat="43.54645" lon="6.3033">
        <ele>409.7</ele>
        <time>2025-04-09T14:52:02.000Z</time>
      </trkpt>
      <trkpt lat="43.54645" lon="6.30331">
        <ele>409.7</ele>
        <time>2025-04-09T14:52:03.000Z</time>
      </trkpt>
      <trkpt lat="43.54647" lon="6.3033">
        <ele>409.5</ele>
        <time>2025-04-09T14:52:16.000Z</time>
      </trkpt>
      <trkpt lat="43.54647" lon="6.3033">
        <ele>409.5</ele>
        <time>2025-04-09T14:52:17.000Z</time>
      </trkpt>
      <trkpt lat="43.54647" lon="6.30329">
        <ele>409.5</ele>
        <time>2025-04-09T14:52:18.000Z</time>
      </trkpt>
      <trkpt lat="43.54644" lon="6.30316">
        <ele>408.5</ele>
        <time>2025-04-09T14:52:49.000Z</time>
      </trkpt>
      <trkpt lat="43.54641" lon="6.30314">
        <ele>408.3</ele>
        <time>2025-04-09T14:52:56.000Z</time>
      </trkpt>
      <trkpt lat="43.54641" lon="6.30314">
        <ele>408.2</ele>
        <time>2025-04-09T14:52:57.000Z</time>
      </trkpt>
      <trkpt lat="43.54642" lon="6.30313">
        <ele>408.2</ele>
        <time>2025-04-09T14:52:58.000Z</time>
      </trkpt>
      <trkpt lat="43.54641" lon="6.30311">
        <ele>408.2</ele>
        <time>2025-04-09T14:52:59.000Z</time>
      </trkpt>
      <trkpt lat="43.54643" lon="6.30311">
        <ele>408.2</ele>
        <time>2025-04-09T14:53:00.000Z</time>
      </trkpt>
      <trkpt lat="43.54643" lon="6.3031">
        <ele>408.2</ele>
        <time>2025-04-09T14:53:01.000Z</time>
      </trkpt>
      <trkpt lat="43.5465" lon="6.303">
        <ele>407.8</ele>
        <time>2025-04-09T14:53:15.000Z</time>
      </trkpt>
      <trkpt lat="43.54646" lon="6.30302">
        <ele>407.7</ele>
        <time>2025-04-09T14:53:21.000Z</time>
      </trkpt>
      <trkpt lat="43.54646" lon="6.30302">
        <ele>407.7</ele>
        <time>2025-04-09T14:53:22.000Z</time>
      </trkpt>
      <trkpt lat="43.54645" lon="6.30302">
        <ele>407.7</ele>
        <time>2025-04-09T14:53:23.000Z</time>
      </trkpt>
      <trkpt lat="43.54646" lon="6.30302">
        <ele>407.6</ele>
        <time>2025-04-09T14:53:24.000Z</time>
      </trkpt>
      <trkpt lat="43.54647" lon="6.30302">
        <ele>407.6</ele>
        <time>2025-04-09T14:53:25.000Z</time>
      </trkpt>
      <trkpt lat="43.54648" lon="6.30305">
        <ele>407.8</ele>
        <time>2025-04-09T14:53:36.000Z</time>
      </trkpt>
      <trkpt lat="43.54648" lon="6.30304">
        <ele>407.8</ele>
        <time>2025-04-09T14:53:37.000Z</time>
      </trkpt>
      <trkpt lat="43.54648" lon="6.30303">
        <ele>407.8</ele>
        <time>2025-04-09T14:53:38.000Z</time>
      </trkpt>
      <trkpt lat="43.54648" lon="6.30303">
        <ele>407.8</ele>
        <time>2025-04-09T14:53:39.000Z</time>
      </trkpt>
      <trkpt lat="43.54648" lon="6.30301">
        <ele>407.8</ele>
        <time>2025-04-09T14:53:40.000Z</time>
      </trkpt>
      <trkpt lat="43.54647" lon="6.30295">
        <ele>407.7</ele>
        <time>2025-04-09T14:53:49.000Z</time>
      </trkpt>
      <trkpt lat="43.54647" lon="6.30295">
        <ele>407.7</ele>
        <time>2025-04-09T14:53:50.000Z</time>
      </trkpt>
      <trkpt lat="43.54646" lon="6.30295">
        <ele>407.7</ele>
        <time>2025-04-09T14:53:51.000Z</time>
      </trkpt>
      <trkpt lat="43.54645" lon="6.30293">
        <ele>407.5</ele>
        <time>2025-04-09T14:53:57.000Z</time>
      </trkpt>
      <trkpt lat="43.54646" lon="6.30293">
        <ele>407.4</ele>
        <time>2025-04-09T14:53:58.000Z</time>
      </trkpt>
      <trkpt lat="43.54647" lon="6.30292">
        <ele>407.4</ele>
        <time>2025-04-09T14:53:59.000Z</time>
      </trkpt>
      <trkpt lat="43.54649" lon="6.30289">
        <ele>407.5</ele>
        <time>2025-04-09T14:54:09.000Z</time>
      </trkpt>
      <trkpt lat="43.54648" lon="6.30289">
        <ele>407.4</ele>
        <time>2025-04-09T14:54:10.000Z</time>
      </trkpt>
      <trkpt lat="43.54649" lon="6.30288">
        <ele>407.3</ele>
        <time>2025-04-09T14:54:11.000Z</time>
      </trkpt>
      <trkpt lat="43.54649" lon="6.30288">
        <ele>407.3</ele>
        <time>2025-04-09T14:54:12.000Z</time>
      </trkpt>
      <trkpt lat="43.54649" lon="6.30287">
        <ele>407.3</ele>
        <time>2025-04-09T14:54:13.000Z</time>
      </trkpt>
      <trkpt lat="43.54649" lon="6.30286">
        <ele>407.4</ele>
        <time>2025-04-09T14:54:14.000Z</time>
      </trkpt>
      <trkpt lat="43.54652" lon="6.30286">
        <ele>407.3</ele>
        <time>2025-04-09T14:54:17.000Z</time>
      </trkpt>
      <trkpt lat="43.54652" lon="6.30285">
        <ele>407.3</ele>
        <time>2025-04-09T14:54:18.000Z</time>
      </trkpt>
      <trkpt lat="43.54653" lon="6.30284">
        <ele>407.3</ele>
        <time>2025-04-09T14:54:19.000Z</time>
      </trkpt>
      <trkpt lat="43.54653" lon="6.30283">
        <ele>407.3</ele>
        <time>2025-04-09T14:54:20.000Z</time>
      </trkpt>
      <trkpt lat="43.54652" lon="6.30282">
        <ele>407.3</ele>
        <time>2025-04-09T14:54:21.000Z</time>
      </trkpt>
      <trkpt lat="43.54651" lon="6.30275">
        <ele>407.3</ele>
        <time>2025-04-09T14:54:32.000Z</time>
      </trkpt>
      <trkpt lat="43.5465" lon="6.30275">
        <ele>407.2</ele>
        <time>2025-04-09T14:54:33.000Z</time>
      </trkpt>
      <trkpt lat="43.5465" lon="6.30276">
        <ele>407.2</ele>
        <time>2025-04-09T14:54:34.000Z</time>
      </trkpt>
      <trkpt lat="43.54658" lon="6.30274">
        <ele>407.2</ele>
        <time>2025-04-09T14:55:07.000Z</time>
      </trkpt>
      <trkpt lat="43.54659" lon="6.30274">
        <ele>407.3</ele>
        <time>2025-04-09T14:55:08.000Z</time>
      </trkpt>
      <trkpt lat="43.54659" lon="6.30273">
        <ele>407.3</ele>
        <time>2025-04-09T14:55:09.000Z</time>
      </trkpt>
      <trkpt lat="43.54662" lon="6.3027">
        <ele>407.6</ele>
        <time>2025-04-09T14:55:29.000Z</time>
      </trkpt>
      <trkpt lat="43.54664" lon="6.30269">
        <ele>407.6</ele>
        <time>2025-04-09T14:55:30.000Z</time>
      </trkpt>
      <trkpt lat="43.54664" lon="6.30269">
        <ele>407.6</ele>
        <time>2025-04-09T14:55:31.000Z</time>
      </trkpt>
      <trkpt lat="43.54664" lon="6.30269">
        <ele>407.6</ele>
        <time>2025-04-09T14:55:32.000Z</time>
      </trkpt>
      <trkpt lat="43.54664" lon="6.30269">
        <ele>407.6</ele>
        <time>2025-04-09T14:55:33.000Z</time>
      </trkpt>
      <trkpt lat="43.54664" lon="6.30269">
        <ele>407.7</ele>
        <time>2025-04-09T14:55:34.000Z</time>
      </trkpt>
      <trkpt lat="43.54664" lon="6.30269">
        <ele>407.7</ele>
        <time>2025-04-09T14:55:35.000Z</time>
      </trkpt>
      <trkpt lat="43.54664" lon="6.30269">
        <ele>407.7</ele>
        <time>2025-04-09T14:55:36.000Z</time>
      </trkpt>
      <trkpt lat="43.54665" lon="6.30268">
        <ele>407.7</ele>
        <time>2025-04-09T14:55:37.000Z</time>
      </trkpt>
      <trkpt lat="43.54665" lon="6.30268">
        <ele>407.7</ele>
        <time>2025-04-09T14:55:38.000Z</time>
      </trkpt>
      <trkpt lat="43.54665" lon="6.30268">
        <ele>407.8</ele>
        <time>2025-04-09T14:55:39.000Z</time>
      </trkpt>
      <trkpt lat="43.54665" lon="6.30268">
        <ele>407.8</ele>
        <time>2025-04-09T14:55:40.000Z</time>
      </trkpt>
      <trkpt lat="43.54664" lon="6.30268">
        <ele>407.8</ele>
        <time>2025-04-09T14:55:41.000Z</time>
      </trkpt>
      <trkpt lat="43.54665" lon="6.30269">
        <ele>407.9</ele>
        <time>2025-04-09T14:55:54.000Z</time>
      </trkpt>
      <trkpt lat="43.54665" lon="6.30268">
        <ele>408</ele>
        <time>2025-04-09T14:55:55.000Z</time>
      </trkpt>
      <trkpt lat="43.54668" lon="6.30256">
        <ele>408</ele>
        <time>2025-04-09T14:56:08.000Z</time>
      </trkpt>
      <trkpt lat="43.54664" lon="6.30245">
        <ele>407.7</ele>
        <time>2025-04-09T14:56:19.000Z</time>
      </trkpt>
      <trkpt lat="43.54665" lon="6.30244">
        <ele>407.7</ele>
        <time>2025-04-09T14:56:20.000Z</time>
      </trkpt>
      <trkpt lat="43.54665" lon="6.30243">
        <ele>407.7</ele>
        <time>2025-04-09T14:56:21.000Z</time>
      </trkpt>
      <trkpt lat="43.54664" lon="6.30243">
        <ele>407.6</ele>
        <time>2025-04-09T14:56:22.000Z</time>
      </trkpt>
      <trkpt lat="43.54664" lon="6.30241">
        <ele>407.6</ele>
        <time>2025-04-09T14:56:23.000Z</time>
      </trkpt>
      <trkpt lat="43.54664" lon="6.3024">
        <ele>407.5</ele>
        <time>2025-04-09T14:56:24.000Z</time>
      </trkpt>
      <trkpt lat="43.54662" lon="6.30228">
        <ele>406.7</ele>
        <time>2025-04-09T14:56:33.000Z</time>
      </trkpt>
      <trkpt lat="43.54657" lon="6.3023">
        <ele>405.7</ele>
        <time>2025-04-09T14:56:44.000Z</time>
      </trkpt>
      <trkpt lat="43.54657" lon="6.3023">
        <ele>405.6</ele>
        <time>2025-04-09T14:56:45.000Z</time>
      </trkpt>
      <trkpt lat="43.54657" lon="6.30233">
        <ele>404.9</ele>
        <time>2025-04-09T14:57:54.000Z</time>
      </trkpt>
      <trkpt lat="43.54657" lon="6.30233">
        <ele>404.9</ele>
        <time>2025-04-09T14:57:55.000Z</time>
      </trkpt>
      <trkpt lat="43.54656" lon="6.30233">
        <ele>404.9</ele>
        <time>2025-04-09T14:57:56.000Z</time>
      </trkpt>
      <trkpt lat="43.54656" lon="6.30233">
        <ele>404.9</ele>
        <time>2025-04-09T14:57:57.000Z</time>
      </trkpt>
      <trkpt lat="43.54656" lon="6.30233">
        <ele>404.9</ele>
        <time>2025-04-09T14:57:58.000Z</time>
      </trkpt>
      <trkpt lat="43.54655" lon="6.30233">
        <ele>404.9</ele>
        <time>2025-04-09T14:58:09.000Z</time>
      </trkpt>
      <trkpt lat="43.54655" lon="6.30233">
        <ele>404.9</ele>
        <time>2025-04-09T14:58:10.000Z</time>
      </trkpt>
      <trkpt lat="43.54655" lon="6.30233">
        <ele>404.9</ele>
        <time>2025-04-09T14:58:11.000Z</time>
      </trkpt>
      <trkpt lat="43.54655" lon="6.30233">
        <ele>404.9</ele>
        <time>2025-04-09T14:58:12.000Z</time>
      </trkpt>
      <trkpt lat="43.54655" lon="6.30233">
        <ele>404.9</ele>
        <time>2025-04-09T14:58:13.000Z</time>
      </trkpt>
      <trkpt lat="43.54655" lon="6.30233">
        <ele>404.9</ele>
        <time>2025-04-09T14:58:14.000Z</time>
      </trkpt>
      <trkpt lat="43.54655" lon="6.30231">
        <ele>404.8</ele>
        <time>2025-04-09T14:58:54.000Z</time>
      </trkpt>
      <trkpt lat="43.54655" lon="6.30232">
        <ele>404.9</ele>
        <time>2025-04-09T14:58:55.000Z</time>
      </trkpt>
      <trkpt lat="43.54655" lon="6.30229">
        <ele>405.1</ele>
        <time>2025-04-09T14:59:04.000Z</time>
      </trkpt>
      <trkpt lat="43.54655" lon="6.30229">
        <ele>405.1</ele>
        <time>2025-04-09T14:59:05.000Z</time>
      </trkpt>
      <trkpt lat="43.54655" lon="6.30229">
        <ele>405.1</ele>
        <time>2025-04-09T14:59:06.000Z</time>
      </trkpt>
      <trkpt lat="43.54655" lon="6.30229">
        <ele>405.1</ele>
        <time>2025-04-09T14:59:12.000Z</time>
      </trkpt>
      <trkpt lat="43.54656" lon="6.30229">
        <ele>405.2</ele>
        <time>2025-04-09T14:59:13.000Z</time>
      </trkpt>
      <trkpt lat="43.54654" lon="6.30226">
        <ele>405.1</ele>
        <time>2025-04-09T14:59:25.000Z</time>
      </trkpt>
      <trkpt lat="43.54654" lon="6.30226">
        <ele>405.1</ele>
        <time>2025-04-09T14:59:26.000Z</time>
      </trkpt>
      <trkpt lat="43.54654" lon="6.30226">
        <ele>405.1</ele>
        <time>2025-04-09T14:59:27.000Z</time>
      </trkpt>
      <trkpt lat="43.54655" lon="6.30226">
        <ele>405.1</ele>
        <time>2025-04-09T14:59:28.000Z</time>
      </trkpt>
      <trkpt lat="43.54655" lon="6.30226">
        <ele>405.1</ele>
        <time>2025-04-09T14:59:29.000Z</time>
      </trkpt>
      <trkpt lat="43.54654" lon="6.30227">
        <ele>405</ele>
        <time>2025-04-09T14:59:32.000Z</time>
      </trkpt>
      <trkpt lat="43.54655" lon="6.30227">
        <ele>405</ele>
        <time>2025-04-09T14:59:33.000Z</time>
      </trkpt>
      <trkpt lat="43.54654" lon="6.30227">
        <ele>404.9</ele>
        <time>2025-04-09T14:59:49.000Z</time>
      </trkpt>
      <trkpt lat="43.54654" lon="6.30228">
        <ele>404.9</ele>
        <time>2025-04-09T14:59:50.000Z</time>
      </trkpt>
      <trkpt lat="43.54646" lon="6.30236">
        <ele>404.8</ele>
        <time>2025-04-09T15:00:01.000Z</time>
      </trkpt>
      <trkpt lat="43.54642" lon="6.30248">
        <ele>404.8</ele>
        <time>2025-04-09T15:00:17.000Z</time>
      </trkpt>
      <trkpt lat="43.54634" lon="6.30255">
        <ele>404.8</ele>
        <time>2025-04-09T15:00:24.000Z</time>
      </trkpt>
      <trkpt lat="43.54634" lon="6.30268">
        <ele>404.9</ele>
        <time>2025-04-09T15:00:30.000Z</time>
      </trkpt>
      <trkpt lat="43.5463" lon="6.30281">
        <ele>405.4</ele>
        <time>2025-04-09T15:00:39.000Z</time>
      </trkpt>
      <trkpt lat="43.54624" lon="6.30291">
        <ele>405.7</ele>
        <time>2025-04-09T15:00:46.000Z</time>
      </trkpt>
      <trkpt lat="43.5462" lon="6.30304">
        <ele>405.9</ele>
        <time>2025-04-09T15:00:56.000Z</time>
      </trkpt>
      <trkpt lat="43.54616" lon="6.30316">
        <ele>406</ele>
        <time>2025-04-09T15:01:07.000Z</time>
      </trkpt>
      <trkpt lat="43.54609" lon="6.30325">
        <ele>406.3</ele>
        <time>2025-04-09T15:01:16.000Z</time>
      </trkpt>
      <trkpt lat="43.54604" lon="6.30337">
        <ele>406.5</ele>
        <time>2025-04-09T15:01:25.000Z</time>
      </trkpt>
      <trkpt lat="43.546" lon="6.30349">
        <ele>406.6</ele>
        <time>2025-04-09T15:01:33.000Z</time>
      </trkpt>
      <trkpt lat="43.54602" lon="6.30362">
        <ele>406.8</ele>
        <time>2025-04-09T15:01:43.000Z</time>
      </trkpt>
      <trkpt lat="43.54609" lon="6.30372">
        <ele>407.3</ele>
        <time>2025-04-09T15:01:54.000Z</time>
      </trkpt>
      <trkpt lat="43.54618" lon="6.30376">
        <ele>408.1</ele>
        <time>2025-04-09T15:02:02.000Z</time>
      </trkpt>
      <trkpt lat="43.54626" lon="6.30385">
        <ele>409</ele>
        <time>2025-04-09T15:02:12.000Z</time>
      </trkpt>
      <trkpt lat="43.54635" lon="6.30389">
        <ele>409.8</ele>
        <time>2025-04-09T15:02:21.000Z</time>
      </trkpt>
      <trkpt lat="43.54643" lon="6.30398">
        <ele>410.5</ele>
        <time>2025-04-09T15:02:31.000Z</time>
      </trkpt>
      <trkpt lat="43.54645" lon="6.3041">
        <ele>411.2</ele>
        <time>2025-04-09T15:02:41.000Z</time>
      </trkpt>
      <trkpt lat="43.54641" lon="6.30422">
        <ele>411.5</ele>
        <time>2025-04-09T15:02:49.000Z</time>
      </trkpt>
      <trkpt lat="43.54636" lon="6.30432">
        <ele>411.5</ele>
        <time>2025-04-09T15:02:57.000Z</time>
      </trkpt>
      <trkpt lat="43.54632" lon="6.30444">
        <ele>411.4</ele>
        <time>2025-04-09T15:03:06.000Z</time>
      </trkpt>
      <trkpt lat="43.54627" lon="6.30456">
        <ele>411.5</ele>
        <time>2025-04-09T15:03:16.000Z</time>
      </trkpt>
      <trkpt lat="43.54623" lon="6.30468">
        <ele>411.8</ele>
        <time>2025-04-09T15:03:25.000Z</time>
      </trkpt>
      <trkpt lat="43.54616" lon="6.30478">
        <ele>412</ele>
        <time>2025-04-09T15:03:33.000Z</time>
      </trkpt>
      <trkpt lat="43.54609" lon="6.30488">
        <ele>412.1</ele>
        <time>2025-04-09T15:03:41.000Z</time>
      </trkpt>
      <trkpt lat="43.54604" lon="6.30499">
        <ele>412.1</ele>
        <time>2025-04-09T15:03:49.000Z</time>
      </trkpt>
      <trkpt lat="43.54598" lon="6.30511">
        <ele>412</ele>
        <time>2025-04-09T15:03:57.000Z</time>
      </trkpt>
      <trkpt lat="43.54593" lon="6.30522">
        <ele>412</ele>
        <time>2025-04-09T15:04:06.000Z</time>
      </trkpt>
      <trkpt lat="43.54587" lon="6.30533">
        <ele>412</ele>
        <time>2025-04-09T15:04:14.000Z</time>
      </trkpt>
      <trkpt lat="43.5458" lon="6.30541">
        <ele>411.9</ele>
        <time>2025-04-09T15:04:22.000Z</time>
      </trkpt>
      <trkpt lat="43.54571" lon="6.30546">
        <ele>411.7</ele>
        <time>2025-04-09T15:04:32.000Z</time>
      </trkpt>
      <trkpt lat="43.54563" lon="6.30552">
        <ele>411.3</ele>
        <time>2025-04-09T15:04:42.000Z</time>
      </trkpt>
      <trkpt lat="43.54554" lon="6.30557">
        <ele>410.3</ele>
        <time>2025-04-09T15:04:52.000Z</time>
      </trkpt>
      <trkpt lat="43.54544" lon="6.3056">
        <ele>409.3</ele>
        <time>2025-04-09T15:04:59.000Z</time>
      </trkpt>
      <trkpt lat="43.54535" lon="6.30564">
        <ele>408.3</ele>
        <time>2025-04-09T15:05:09.000Z</time>
      </trkpt>
      <trkpt lat="43.54527" lon="6.30572">
        <ele>407.9</ele>
        <time>2025-04-09T15:05:17.000Z</time>
      </trkpt>
      <trkpt lat="43.54521" lon="6.30583">
        <ele>407.5</ele>
        <time>2025-04-09T15:05:24.000Z</time>
      </trkpt>
      <trkpt lat="43.54517" lon="6.30594">
        <ele>406.8</ele>
        <time>2025-04-09T15:05:33.000Z</time>
      </trkpt>
      <trkpt lat="43.54516" lon="6.30607">
        <ele>405.9</ele>
        <time>2025-04-09T15:05:42.000Z</time>
      </trkpt>
      <trkpt lat="43.54515" lon="6.30621">
        <ele>405.3</ele>
        <time>2025-04-09T15:05:49.000Z</time>
      </trkpt>
      <trkpt lat="43.54514" lon="6.30634">
        <ele>404.5</ele>
        <time>2025-04-09T15:05:57.000Z</time>
      </trkpt>
      <trkpt lat="43.54513" lon="6.30647">
        <ele>404</ele>
        <time>2025-04-09T15:06:04.000Z</time>
      </trkpt>
      <trkpt lat="43.54511" lon="6.30661">
        <ele>403.3</ele>
        <time>2025-04-09T15:06:13.000Z</time>
      </trkpt>
      <trkpt lat="43.54508" lon="6.30674">
        <ele>402.7</ele>
        <time>2025-04-09T15:06:21.000Z</time>
      </trkpt>
      <trkpt lat="43.54506" lon="6.30687">
        <ele>401.4</ele>
        <time>2025-04-09T15:06:32.000Z</time>
      </trkpt>
      <trkpt lat="43.54504" lon="6.30699">
        <ele>400.2</ele>
        <time>2025-04-09T15:06:42.000Z</time>
      </trkpt>
      <trkpt lat="43.54496" lon="6.30706">
        <ele>399.3</ele>
        <time>2025-04-09T15:06:52.000Z</time>
      </trkpt>
      <trkpt lat="43.54487" lon="6.30704">
        <ele>399.2</ele>
        <time>2025-04-09T15:07:00.000Z</time>
      </trkpt>
      <trkpt lat="43.54478" lon="6.30699">
        <ele>399.1</ele>
        <time>2025-04-09T15:07:10.000Z</time>
      </trkpt>
      <trkpt lat="43.54478" lon="6.30699">
        <ele>399.2</ele>
        <time>2025-04-09T15:07:12.000Z</time>
      </trkpt>
      <trkpt lat="43.54478" lon="6.30699">
        <ele>399.2</ele>
        <time>2025-04-09T15:07:13.000Z</time>
      </trkpt>
      <trkpt lat="43.54478" lon="6.30698">
        <ele>399.3</ele>
        <time>2025-04-09T15:07:22.000Z</time>
      </trkpt>
      <trkpt lat="43.54477" lon="6.30698">
        <ele>399.3</ele>
        <time>2025-04-09T15:07:23.000Z</time>
      </trkpt>
      <trkpt lat="43.54476" lon="6.30697">
        <ele>399.3</ele>
        <time>2025-04-09T15:07:24.000Z</time>
      </trkpt>
      <trkpt lat="43.54467" lon="6.30689">
        <ele>399.4</ele>
        <time>2025-04-09T15:07:35.000Z</time>
      </trkpt>
      <trkpt lat="43.54458" lon="6.30686">
        <ele>399.9</ele>
        <time>2025-04-09T15:07:44.000Z</time>
      </trkpt>
      <trkpt lat="43.54449" lon="6.30682">
        <ele>400.6</ele>
        <time>2025-04-09T15:07:54.000Z</time>
      </trkpt>
      <trkpt lat="43.54441" lon="6.30676">
        <ele>401</ele>
        <time>2025-04-09T15:08:08.000Z</time>
      </trkpt>
      <trkpt lat="43.5444" lon="6.30677">
        <ele>401.3</ele>
        <time>2025-04-09T15:08:15.000Z</time>
      </trkpt>
      <trkpt lat="43.5444" lon="6.30677">
        <ele>401.3</ele>
        <time>2025-04-09T15:08:16.000Z</time>
      </trkpt>
      <trkpt lat="43.5444" lon="6.30676">
        <ele>401.5</ele>
        <time>2025-04-09T15:08:27.000Z</time>
      </trkpt>
      <trkpt lat="43.5444" lon="6.30676">
        <ele>401.5</ele>
        <time>2025-04-09T15:08:28.000Z</time>
      </trkpt>
      <trkpt lat="43.5444" lon="6.30676">
        <ele>401.5</ele>
        <time>2025-04-09T15:08:29.000Z</time>
      </trkpt>
      <trkpt lat="43.54439" lon="6.30678">
        <ele>401.4</ele>
        <time>2025-04-09T15:08:34.000Z</time>
      </trkpt>
      <trkpt lat="43.5444" lon="6.30678">
        <ele>401.4</ele>
        <time>2025-04-09T15:08:35.000Z</time>
      </trkpt>
      <trkpt lat="43.5444" lon="6.30679">
        <ele>401.4</ele>
        <time>2025-04-09T15:08:36.000Z</time>
      </trkpt>
      <trkpt lat="43.54439" lon="6.3068">
        <ele>401.3</ele>
        <time>2025-04-09T15:08:47.000Z</time>
      </trkpt>
      <trkpt lat="43.54439" lon="6.30679">
        <ele>401.3</ele>
        <time>2025-04-09T15:08:48.000Z</time>
      </trkpt>
      <trkpt lat="43.54438" lon="6.30679">
        <ele>401.3</ele>
        <time>2025-04-09T15:08:49.000Z</time>
      </trkpt>
      <trkpt lat="43.5443" lon="6.30673">
        <ele>401.4</ele>
        <time>2025-04-09T15:09:02.000Z</time>
      </trkpt>
      <trkpt lat="43.54421" lon="6.30669">
        <ele>401.6</ele>
        <time>2025-04-09T15:09:13.000Z</time>
      </trkpt>
      <trkpt lat="43.54412" lon="6.30668">
        <ele>402</ele>
        <time>2025-04-09T15:09:23.000Z</time>
      </trkpt>
      <trkpt lat="43.54409" lon="6.30672">
        <ele>402.4</ele>
        <time>2025-04-09T15:09:32.000Z</time>
      </trkpt>
      <trkpt lat="43.54409" lon="6.30672">
        <ele>402.4</ele>
        <time>2025-04-09T15:09:33.000Z</time>
      </trkpt>
      <trkpt lat="43.54408" lon="6.30672">
        <ele>402.9</ele>
        <time>2025-04-09T15:10:06.000Z</time>
      </trkpt>
      <trkpt lat="43.54408" lon="6.30672">
        <ele>402.9</ele>
        <time>2025-04-09T15:10:07.000Z</time>
      </trkpt>
      <trkpt lat="43.54408" lon="6.30672">
        <ele>402.9</ele>
        <time>2025-04-09T15:10:08.000Z</time>
      </trkpt>
      <trkpt lat="43.54408" lon="6.30672">
        <ele>402.9</ele>
        <time>2025-04-09T15:10:09.000Z</time>
      </trkpt>
      <trkpt lat="43.54408" lon="6.30672">
        <ele>402.9</ele>
        <time>2025-04-09T15:10:10.000Z</time>
      </trkpt>
      <trkpt lat="43.54408" lon="6.30672">
        <ele>402.9</ele>
        <time>2025-04-09T15:10:11.000Z</time>
      </trkpt>
      <trkpt lat="43.54407" lon="6.30674">
        <ele>402.9</ele>
        <time>2025-04-09T15:11:10.000Z</time>
      </trkpt>
      <trkpt lat="43.54407" lon="6.30674">
        <ele>402.9</ele>
        <time>2025-04-09T15:11:11.000Z</time>
      </trkpt>
      <trkpt lat="43.54407" lon="6.30674">
        <ele>402.9</ele>
        <time>2025-04-09T15:11:12.000Z</time>
      </trkpt>
      <trkpt lat="43.54407" lon="6.30674">
        <ele>402.9</ele>
        <time>2025-04-09T15:11:13.000Z</time>
      </trkpt>
      <trkpt lat="43.54407" lon="6.30674">
        <ele>402.9</ele>
        <time>2025-04-09T15:11:14.000Z</time>
      </trkpt>
      <trkpt lat="43.54406" lon="6.30674">
        <ele>402.9</ele>
        <time>2025-04-09T15:11:20.000Z</time>
      </trkpt>
      <trkpt lat="43.54406" lon="6.30675">
        <ele>403</ele>
        <time>2025-04-09T15:11:21.000Z</time>
      </trkpt>
      <trkpt lat="43.54397" lon="6.30677">
        <ele>403</ele>
        <time>2025-04-09T15:11:37.000Z</time>
      </trkpt>
      <trkpt lat="43.54392" lon="6.30681">
        <ele>403.1</ele>
        <time>2025-04-09T15:11:50.000Z</time>
      </trkpt>
      <trkpt lat="43.54392" lon="6.30681">
        <ele>403.1</ele>
        <time>2025-04-09T15:11:51.000Z</time>
      </trkpt>
      <trkpt lat="43.54392" lon="6.30681">
        <ele>403.1</ele>
        <time>2025-04-09T15:11:52.000Z</time>
      </trkpt>
      <trkpt lat="43.54392" lon="6.3068">
        <ele>403.1</ele>
        <time>2025-04-09T15:11:53.000Z</time>
      </trkpt>
      <trkpt lat="43.54392" lon="6.30679">
        <ele>403.1</ele>
        <time>2025-04-09T15:11:56.000Z</time>
      </trkpt>
      <trkpt lat="43.54392" lon="6.30679">
        <ele>403.1</ele>
        <time>2025-04-09T15:11:57.000Z</time>
      </trkpt>
      <trkpt lat="43.54392" lon="6.30679">
        <ele>403.2</ele>
        <time>2025-04-09T15:11:58.000Z</time>
      </trkpt>
      <trkpt lat="43.54392" lon="6.30679">
        <ele>403.4</ele>
        <time>2025-04-09T15:12:24.000Z</time>
      </trkpt>
      <trkpt lat="43.54392" lon="6.30679">
        <ele>403.4</ele>
        <time>2025-04-09T15:12:25.000Z</time>
      </trkpt>
      <trkpt lat="43.54392" lon="6.30679">
        <ele>403.4</ele>
        <time>2025-04-09T15:12:26.000Z</time>
      </trkpt>
      <trkpt lat="43.54392" lon="6.30679">
        <ele>403.4</ele>
        <time>2025-04-09T15:12:27.000Z</time>
      </trkpt>
      <trkpt lat="43.54392" lon="6.30679">
        <ele>403.4</ele>
        <time>2025-04-09T15:12:28.000Z</time>
      </trkpt>
      <trkpt lat="43.54392" lon="6.30681">
        <ele>403.5</ele>
        <time>2025-04-09T15:12:47.000Z</time>
      </trkpt>
      <trkpt lat="43.54391" lon="6.30682">
        <ele>403.5</ele>
        <time>2025-04-09T15:12:48.000Z</time>
      </trkpt>
      <trkpt lat="43.54387" lon="6.3069">
        <ele>403.1</ele>
        <time>2025-04-09T15:13:14.000Z</time>
      </trkpt>
      <trkpt lat="43.54387" lon="6.3069">
        <ele>403.2</ele>
        <time>2025-04-09T15:13:15.000Z</time>
      </trkpt>
      <trkpt lat="43.54387" lon="6.30691">
        <ele>404.2</ele>
        <time>2025-04-09T15:13:19.000Z</time>
      </trkpt>
      <trkpt lat="43.54387" lon="6.30691">
        <ele>404.4</ele>
        <time>2025-04-09T15:13:20.000Z</time>
      </trkpt>
      <trkpt lat="43.54387" lon="6.30691">
        <ele>404</ele>
        <time>2025-04-09T15:13:27.000Z</time>
      </trkpt>
      <trkpt lat="43.54388" lon="6.30691">
        <ele>403.9</ele>
        <time>2025-04-09T15:13:28.000Z</time>
      </trkpt>
      <trkpt lat="43.54388" lon="6.30691">
        <ele>403.9</ele>
        <time>2025-04-09T15:13:29.000Z</time>
      </trkpt>
      <trkpt lat="43.54388" lon="6.3069">
        <ele>403.8</ele>
        <time>2025-04-09T15:13:30.000Z</time>
      </trkpt>
      <trkpt lat="43.54388" lon="6.30689">
        <ele>403.8</ele>
        <time>2025-04-09T15:13:31.000Z</time>
      </trkpt>
      <trkpt lat="43.54386" lon="6.30689">
        <ele>403.5</ele>
        <time>2025-04-09T15:13:39.000Z</time>
      </trkpt>
      <trkpt lat="43.54386" lon="6.30689">
        <ele>403.5</ele>
        <time>2025-04-09T15:13:40.000Z</time>
      </trkpt>
      <trkpt lat="43.54386" lon="6.30689">
        <ele>403.5</ele>
        <time>2025-04-09T15:13:41.000Z</time>
      </trkpt>
      <trkpt lat="43.54388" lon="6.3069">
        <ele>403.5</ele>
        <time>2025-04-09T15:13:44.000Z</time>
      </trkpt>
      <trkpt lat="43.54388" lon="6.3069">
        <ele>403.5</ele>
        <time>2025-04-09T15:13:45.000Z</time>
      </trkpt>
      <trkpt lat="43.54388" lon="6.3069">
        <ele>403.5</ele>
        <time>2025-04-09T15:13:46.000Z</time>
      </trkpt>
      <trkpt lat="43.54388" lon="6.3069">
        <ele>403.5</ele>
        <time>2025-04-09T15:13:47.000Z</time>
      </trkpt>
      <trkpt lat="43.54388" lon="6.3069">
        <ele>403.5</ele>
        <time>2025-04-09T15:13:48.000Z</time>
      </trkpt>
      <trkpt lat="43.54388" lon="6.30689">
        <ele>403.4</ele>
        <time>2025-04-09T15:14:01.000Z</time>
      </trkpt>
      <trkpt lat="43.54388" lon="6.30689">
        <ele>403.4</ele>
        <time>2025-04-09T15:14:02.000Z</time>
      </trkpt>
      <trkpt lat="43.54388" lon="6.30689">
        <ele>403.4</ele>
        <time>2025-04-09T15:14:03.000Z</time>
      </trkpt>
      <trkpt lat="43.54388" lon="6.30688">
        <ele>403.5</ele>
        <time>2025-04-09T15:14:07.000Z</time>
      </trkpt>
      <trkpt lat="43.54388" lon="6.30688">
        <ele>403.5</ele>
        <time>2025-04-09T15:14:08.000Z</time>
      </trkpt>
      <trkpt lat="43.54388" lon="6.30688">
        <ele>403.5</ele>
        <time>2025-04-09T15:14:14.000Z</time>
      </trkpt>
      <trkpt lat="43.54386" lon="6.30688">
        <ele>403.5</ele>
        <time>2025-04-09T15:14:15.000Z</time>
      </trkpt>
      <trkpt lat="43.54386" lon="6.30688">
        <ele>403.5</ele>
        <time>2025-04-09T15:14:16.000Z</time>
      </trkpt>
      <trkpt lat="43.54386" lon="6.30688">
        <ele>403.5</ele>
        <time>2025-04-09T15:14:17.000Z</time>
      </trkpt>
      <trkpt lat="43.54386" lon="6.30688">
        <ele>403.5</ele>
        <time>2025-04-09T15:14:18.000Z</time>
      </trkpt>
      <trkpt lat="43.54386" lon="6.30688">
        <ele>403.5</ele>
        <time>2025-04-09T15:14:32.000Z</time>
      </trkpt>
      <trkpt lat="43.54386" lon="6.30688">
        <ele>403.5</ele>
        <time>2025-04-09T15:14:33.000Z</time>
      </trkpt>
      <trkpt lat="43.54386" lon="6.30688">
        <ele>403.5</ele>
        <time>2025-04-09T15:14:34.000Z</time>
      </trkpt>
      <trkpt lat="43.54386" lon="6.30688">
        <ele>403.5</ele>
        <time>2025-04-09T15:14:35.000Z</time>
      </trkpt>
      <trkpt lat="43.54386" lon="6.30688">
        <ele>403.5</ele>
        <time>2025-04-09T15:14:36.000Z</time>
      </trkpt>
      <trkpt lat="43.54386" lon="6.30687">
        <ele>403.5</ele>
        <time>2025-04-09T15:14:52.000Z</time>
      </trkpt>
      <trkpt lat="43.54386" lon="6.30687">
        <ele>403.5</ele>
        <time>2025-04-09T15:14:53.000Z</time>
      </trkpt>
      <trkpt lat="43.54386" lon="6.30687">
        <ele>403.5</ele>
        <time>2025-04-09T15:14:54.000Z</time>
      </trkpt>
      <trkpt lat="43.54386" lon="6.30687">
        <ele>403.5</ele>
        <time>2025-04-09T15:14:55.000Z</time>
      </trkpt>
      <trkpt lat="43.54386" lon="6.30687">
        <ele>403.5</ele>
        <time>2025-04-09T15:14:56.000Z</time>
      </trkpt>
      <trkpt lat="43.54385" lon="6.30686">
        <ele>403.5</ele>
        <time>2025-04-09T15:15:19.000Z</time>
      </trkpt>
      <trkpt lat="43.54385" lon="6.30686">
        <ele>403.5</ele>
        <time>2025-04-09T15:15:20.000Z</time>
      </trkpt>
      <trkpt lat="43.54385" lon="6.30686">
        <ele>403.5</ele>
        <time>2025-04-09T15:15:21.000Z</time>
      </trkpt>
      <trkpt lat="43.54385" lon="6.30686">
        <ele>403.5</ele>
        <time>2025-04-09T15:15:22.000Z</time>
      </trkpt>
      <trkpt lat="43.54385" lon="6.30686">
        <ele>403.5</ele>
        <time>2025-04-09T15:15:23.000Z</time>
      </trkpt>
      <trkpt lat="43.54385" lon="6.30686">
        <ele>403.5</ele>
        <time>2025-04-09T15:15:24.000Z</time>
      </trkpt>
      <trkpt lat="43.54386" lon="6.30685">
        <ele>403.5</ele>
        <time>2025-04-09T15:15:29.000Z</time>
      </trkpt>
      <trkpt lat="43.54387" lon="6.30685">
        <ele>403.5</ele>
        <time>2025-04-09T15:15:30.000Z</time>
      </trkpt>
      <trkpt lat="43.54387" lon="6.30685">
        <ele>403.5</ele>
        <time>2025-04-09T15:15:31.000Z</time>
      </trkpt>
      <trkpt lat="43.54387" lon="6.30685">
        <ele>403.5</ele>
        <time>2025-04-09T15:15:32.000Z</time>
      </trkpt>
      <trkpt lat="43.54387" lon="6.30684">
        <ele>403.5</ele>
        <time>2025-04-09T15:15:33.000Z</time>
      </trkpt>
      <trkpt lat="43.54388" lon="6.30682">
        <ele>403.6</ele>
        <time>2025-04-09T15:15:44.000Z</time>
      </trkpt>
      <trkpt lat="43.54388" lon="6.30681">
        <ele>403.6</ele>
        <time>2025-04-09T15:15:45.000Z</time>
      </trkpt>
      <trkpt lat="43.54379" lon="6.30675">
        <ele>403.8</ele>
        <time>2025-04-09T15:15:59.000Z</time>
      </trkpt>
      <trkpt lat="43.54369" lon="6.30674">
        <ele>404.1</ele>
        <time>2025-04-09T15:16:06.000Z</time>
      </trkpt>
      <trkpt lat="43.54359" lon="6.30676">
        <ele>404.9</ele>
        <time>2025-04-09T15:16:17.000Z</time>
      </trkpt>
      <trkpt lat="43.5435" lon="6.30677">
        <ele>405.4</ele>
        <time>2025-04-09T15:16:24.000Z</time>
      </trkpt>
      <trkpt lat="43.5434" lon="6.30678">
        <ele>405.9</ele>
        <time>2025-04-09T15:16:33.000Z</time>
      </trkpt>
      <trkpt lat="43.54331" lon="6.30681">
        <ele>406.3</ele>
        <time>2025-04-09T15:16:41.000Z</time>
      </trkpt>
      <trkpt lat="43.54322" lon="6.30683">
        <ele>406.6</ele>
        <time>2025-04-09T15:16:48.000Z</time>
      </trkpt>
      <trkpt lat="43.54313" lon="6.3068">
        <ele>406.9</ele>
        <time>2025-04-09T15:16:54.000Z</time>
      </trkpt>
      <trkpt lat="43.54304" lon="6.30677">
        <ele>407.1</ele>
        <time>2025-04-09T15:17:01.000Z</time>
      </trkpt>
      <trkpt lat="43.54295" lon="6.30676">
        <ele>407.2</ele>
        <time>2025-04-09T15:17:08.000Z</time>
      </trkpt>
      <trkpt lat="43.54285" lon="6.30676">
        <ele>407.1</ele>
        <time>2025-04-09T15:17:16.000Z</time>
      </trkpt>
      <trkpt lat="43.54275" lon="6.30673">
        <ele>407.1</ele>
        <time>2025-04-09T15:17:23.000Z</time>
      </trkpt>
      <trkpt lat="43.54266" lon="6.30673">
        <ele>406.9</ele>
        <time>2025-04-09T15:17:29.000Z</time>
      </trkpt>
      <trkpt lat="43.54256" lon="6.30673">
        <ele>406.6</ele>
        <time>2025-04-09T15:17:37.000Z</time>
      </trkpt>
      <trkpt lat="43.54246" lon="6.30671">
        <ele>406.3</ele>
        <time>2025-04-09T15:17:45.000Z</time>
      </trkpt>
      <trkpt lat="43.54237" lon="6.30669">
        <ele>405.8</ele>
        <time>2025-04-09T15:17:53.000Z</time>
      </trkpt>
      <trkpt lat="43.54227" lon="6.30667">
        <ele>405.3</ele>
        <time>2025-04-09T15:18:01.000Z</time>
      </trkpt>
      <trkpt lat="43.54218" lon="6.30667">
        <ele>405</ele>
        <time>2025-04-09T15:18:07.000Z</time>
      </trkpt>
      <trkpt lat="43.54207" lon="6.30668">
        <ele>404.7</ele>
        <time>2025-04-09T15:18:14.000Z</time>
      </trkpt>
      <trkpt lat="43.54198" lon="6.30665">
        <ele>404.3</ele>
        <time>2025-04-09T15:18:21.000Z</time>
      </trkpt>
      <trkpt lat="43.54189" lon="6.30667">
        <ele>403.7</ele>
        <time>2025-04-09T15:18:30.000Z</time>
      </trkpt>
      <trkpt lat="43.5418" lon="6.30667">
        <ele>402.8</ele>
        <time>2025-04-09T15:18:39.000Z</time>
      </trkpt>
      <trkpt lat="43.5417" lon="6.30665">
        <ele>401.4</ele>
        <time>2025-04-09T15:18:47.000Z</time>
      </trkpt>
      <trkpt lat="43.5416" lon="6.30664">
        <ele>400.1</ele>
        <time>2025-04-09T15:18:54.000Z</time>
      </trkpt>
      <trkpt lat="43.5415" lon="6.30662">
        <ele>398.5</ele>
        <time>2025-04-09T15:19:02.000Z</time>
      </trkpt>
      <trkpt lat="43.5414" lon="6.30665">
        <ele>396.9</ele>
        <time>2025-04-09T15:19:11.000Z</time>
      </trkpt>
      <trkpt lat="43.54131" lon="6.30662">
        <ele>395</ele>
        <time>2025-04-09T15:19:20.000Z</time>
      </trkpt>
      <trkpt lat="43.54121" lon="6.30662">
        <ele>393.7</ele>
        <time>2025-04-09T15:19:28.000Z</time>
      </trkpt>
      <trkpt lat="43.54113" lon="6.30669">
        <ele>392.5</ele>
        <time>2025-04-09T15:19:39.000Z</time>
      </trkpt>
      <trkpt lat="43.54113" lon="6.30673">
        <ele>392.3</ele>
        <time>2025-04-09T15:19:47.000Z</time>
      </trkpt>
      <trkpt lat="43.54113" lon="6.30673">
        <ele>392.3</ele>
        <time>2025-04-09T15:19:48.000Z</time>
      </trkpt>
      <trkpt lat="43.54113" lon="6.30675">
        <ele>392</ele>
        <time>2025-04-09T15:20:42.000Z</time>
      </trkpt>
      <trkpt lat="43.54112" lon="6.30676">
        <ele>392</ele>
        <time>2025-04-09T15:20:43.000Z</time>
      </trkpt>
      <trkpt lat="43.54112" lon="6.30677">
        <ele>392</ele>
        <time>2025-04-09T15:20:44.000Z</time>
      </trkpt>
      <trkpt lat="43.54111" lon="6.30691">
        <ele>391.9</ele>
        <time>2025-04-09T15:20:53.000Z</time>
      </trkpt>
      <trkpt lat="43.54109" lon="6.30704">
        <ele>391.7</ele>
        <time>2025-04-09T15:21:01.000Z</time>
      </trkpt>
      <trkpt lat="43.54104" lon="6.30715">
        <ele>391</ele>
        <time>2025-04-09T15:21:08.000Z</time>
      </trkpt>
      <trkpt lat="43.54102" lon="6.30728">
        <ele>388.6</ele>
        <time>2025-04-09T15:21:17.000Z</time>
      </trkpt>
      <trkpt lat="43.54099" lon="6.3074">
        <ele>386.9</ele>
        <time>2025-04-09T15:21:25.000Z</time>
      </trkpt>
      <trkpt lat="43.54096" lon="6.30752">
        <ele>385.7</ele>
        <time>2025-04-09T15:21:32.000Z</time>
      </trkpt>
      <trkpt lat="43.54094" lon="6.30764">
        <ele>384.7</ele>
        <time>2025-04-09T15:21:39.000Z</time>
      </trkpt>
      <trkpt lat="43.54093" lon="6.30778">
        <ele>383.8</ele>
        <time>2025-04-09T15:21:46.000Z</time>
      </trkpt>
      <trkpt lat="43.54094" lon="6.30791">
        <ele>382.4</ele>
        <time>2025-04-09T15:21:54.000Z</time>
      </trkpt>
      <trkpt lat="43.54095" lon="6.30803">
        <ele>380.6</ele>
        <time>2025-04-09T15:22:01.000Z</time>
      </trkpt>
      <trkpt lat="43.54095" lon="6.30817">
        <ele>379</ele>
        <time>2025-04-09T15:22:09.000Z</time>
      </trkpt>
      <trkpt lat="43.54092" lon="6.3083">
        <ele>377.8</ele>
        <time>2025-04-09T15:22:17.000Z</time>
      </trkpt>
      <trkpt lat="43.54091" lon="6.30844">
        <ele>376.4</ele>
        <time>2025-04-09T15:22:27.000Z</time>
      </trkpt>
      <trkpt lat="43.54091" lon="6.30857">
        <ele>375.2</ele>
        <time>2025-04-09T15:22:36.000Z</time>
      </trkpt>
      <trkpt lat="43.54091" lon="6.30871">
        <ele>374.1</ele>
        <time>2025-04-09T15:22:44.000Z</time>
      </trkpt>
      <trkpt lat="43.54091" lon="6.30884">
        <ele>373.1</ele>
        <time>2025-04-09T15:22:52.000Z</time>
      </trkpt>
      <trkpt lat="43.54092" lon="6.30897">
        <ele>372.2</ele>
        <time>2025-04-09T15:23:00.000Z</time>
      </trkpt>
      <trkpt lat="43.54091" lon="6.3091">
        <ele>371.6</ele>
        <time>2025-04-09T15:23:08.000Z</time>
      </trkpt>
      <trkpt lat="43.54088" lon="6.30924">
        <ele>371.2</ele>
        <time>2025-04-09T15:23:14.000Z</time>
      </trkpt>
      <trkpt lat="43.54087" lon="6.30937">
        <ele>370.8</ele>
        <time>2025-04-09T15:23:22.000Z</time>
      </trkpt>
      <trkpt lat="43.54087" lon="6.3095">
        <ele>370.4</ele>
        <time>2025-04-09T15:23:30.000Z</time>
      </trkpt>
      <trkpt lat="43.54088" lon="6.30964">
        <ele>370.4</ele>
        <time>2025-04-09T15:23:37.000Z</time>
      </trkpt>
      <trkpt lat="43.54089" lon="6.30977">
        <ele>370.3</ele>
        <time>2025-04-09T15:23:44.000Z</time>
      </trkpt>
      <trkpt lat="43.54089" lon="6.30989">
        <ele>370</ele>
        <time>2025-04-09T15:23:51.000Z</time>
      </trkpt>
      <trkpt lat="43.54088" lon="6.31002">
        <ele>369.9</ele>
        <time>2025-04-09T15:23:58.000Z</time>
      </trkpt>
      <trkpt lat="43.54088" lon="6.31016">
        <ele>369.8</ele>
        <time>2025-04-09T15:24:06.000Z</time>
      </trkpt>
      <trkpt lat="43.54088" lon="6.3103">
        <ele>369.9</ele>
        <time>2025-04-09T15:24:14.000Z</time>
      </trkpt>
      <trkpt lat="43.54088" lon="6.31044">
        <ele>370.2</ele>
        <time>2025-04-09T15:24:23.000Z</time>
      </trkpt>
      <trkpt lat="43.54088" lon="6.31058">
        <ele>371</ele>
        <time>2025-04-09T15:24:32.000Z</time>
      </trkpt>
      <trkpt lat="43.54088" lon="6.31071">
        <ele>371.4</ele>
        <time>2025-04-09T15:24:39.000Z</time>
      </trkpt>
      <trkpt lat="43.54088" lon="6.31085">
        <ele>371.8</ele>
        <time>2025-04-09T15:24:47.000Z</time>
      </trkpt>
      <trkpt lat="43.54088" lon="6.31098">
        <ele>371.9</ele>
        <time>2025-04-09T15:24:54.000Z</time>
      </trkpt>
      <trkpt lat="43.54088" lon="6.31105">
        <ele>371.9</ele>
        <time>2025-04-09T15:25:02.000Z</time>
      </trkpt>
      <trkpt lat="43.54088" lon="6.31106">
        <ele>371.9</ele>
        <time>2025-04-09T15:25:03.000Z</time>
      </trkpt>
      <trkpt lat="43.54089" lon="6.31106">
        <ele>371.9</ele>
        <time>2025-04-09T15:25:04.000Z</time>
      </trkpt>
      <trkpt lat="43.54098" lon="6.31103">
        <ele>371.9</ele>
        <time>2025-04-09T15:25:14.000Z</time>
      </trkpt>
      <trkpt lat="43.54107" lon="6.31103">
        <ele>372</ele>
        <time>2025-04-09T15:25:25.000Z</time>
      </trkpt>
      <trkpt lat="43.54107" lon="6.31115">
        <ele>372</ele>
        <time>2025-04-09T15:25:33.000Z</time>
      </trkpt>
      <trkpt lat="43.54109" lon="6.31128">
        <ele>372.1</ele>
        <time>2025-04-09T15:25:43.000Z</time>
      </trkpt>
      <trkpt lat="43.54112" lon="6.31142">
        <ele>372.1</ele>
        <time>2025-04-09T15:25:50.000Z</time>
      </trkpt>
      <trkpt lat="43.54115" lon="6.31154">
        <ele>372.2</ele>
        <time>2025-04-09T15:25:57.000Z</time>
      </trkpt>
      <trkpt lat="43.54117" lon="6.31166">
        <ele>372.4</ele>
        <time>2025-04-09T15:26:04.000Z</time>
      </trkpt>
      <trkpt lat="43.54119" lon="6.31179">
        <ele>372.5</ele>
        <time>2025-04-09T15:26:12.000Z</time>
      </trkpt>
      <trkpt lat="43.5412" lon="6.31192">
        <ele>372.8</ele>
        <time>2025-04-09T15:26:20.000Z</time>
      </trkpt>
      <trkpt lat="43.54122" lon="6.31205">
        <ele>373.3</ele>
        <time>2025-04-09T15:26:30.000Z</time>
      </trkpt>
      <trkpt lat="43.54124" lon="6.31218">
        <ele>374</ele>
        <time>2025-04-09T15:26:38.000Z</time>
      </trkpt>
      <trkpt lat="43.54127" lon="6.31231">
        <ele>374.6</ele>
        <time>2025-04-09T15:26:46.000Z</time>
      </trkpt>
      <trkpt lat="43.54136" lon="6.31236">
        <ele>375</ele>
        <time>2025-04-09T15:26:56.000Z</time>
      </trkpt>
      <trkpt lat="43.54145" lon="6.31235">
        <ele>375.1</ele>
        <time>2025-04-09T15:27:04.000Z</time>
      </trkpt>
      <trkpt lat="43.54154" lon="6.31234">
        <ele>375.3</ele>
        <time>2025-04-09T15:27:13.000Z</time>
      </trkpt>
      <trkpt lat="43.54163" lon="6.31231">
        <ele>375.6</ele>
        <time>2025-04-09T15:27:21.000Z</time>
      </trkpt>
      <trkpt lat="43.54172" lon="6.31231">
        <ele>376.3</ele>
        <time>2025-04-09T15:27:29.000Z</time>
      </trkpt>
      <trkpt lat="43.54182" lon="6.31232">
        <ele>377.3</ele>
        <time>2025-04-09T15:27:39.000Z</time>
      </trkpt>
      <trkpt lat="43.5419" lon="6.31236">
        <ele>378</ele>
        <time>2025-04-09T15:27:46.000Z</time>
      </trkpt>
      <trkpt lat="43.54197" lon="6.31244">
        <ele>378.1</ele>
        <time>2025-04-09T15:27:54.000Z</time>
      </trkpt>
      <trkpt lat="43.54204" lon="6.31253">
        <ele>377.9</ele>
        <time>2025-04-09T15:28:03.000Z</time>
      </trkpt>
      <trkpt lat="43.5421" lon="6.31263">
        <ele>377.3</ele>
        <time>2025-04-09T15:28:13.000Z</time>
      </trkpt>
      <trkpt lat="43.54217" lon="6.31269">
        <ele>376.8</ele>
        <time>2025-04-09T15:28:21.000Z</time>
      </trkpt>
      <trkpt lat="43.54222" lon="6.31281">
        <ele>376.3</ele>
        <time>2025-04-09T15:28:30.000Z</time>
      </trkpt>
      <trkpt lat="43.54229" lon="6.31288">
        <ele>375.7</ele>
        <time>2025-04-09T15:28:38.000Z</time>
      </trkpt>
      <trkpt lat="43.54236" lon="6.31298">
        <ele>375.2</ele>
        <time>2025-04-09T15:28:46.000Z</time>
      </trkpt>
      <trkpt lat="43.54243" lon="6.31307">
        <ele>374.8</ele>
        <time>2025-04-09T15:28:54.000Z</time>
      </trkpt>
      <trkpt lat="43.54247" lon="6.31312">
        <ele>374.3</ele>
        <time>2025-04-09T15:29:04.000Z</time>
      </trkpt>
      <trkpt lat="43.54247" lon="6.31312">
        <ele>374.2</ele>
        <time>2025-04-09T15:29:05.000Z</time>
      </trkpt>
      <trkpt lat="43.54247" lon="6.31312">
        <ele>374.2</ele>
        <time>2025-04-09T15:29:06.000Z</time>
      </trkpt>
      <trkpt lat="43.54247" lon="6.31312">
        <ele>374.1</ele>
        <time>2025-04-09T15:29:09.000Z</time>
      </trkpt>
      <trkpt lat="43.54247" lon="6.31312">
        <ele>374</ele>
        <time>2025-04-09T15:29:10.000Z</time>
      </trkpt>
      <trkpt lat="43.54247" lon="6.31312">
        <ele>374</ele>
        <time>2025-04-09T15:29:11.000Z</time>
      </trkpt>
      <trkpt lat="43.54247" lon="6.31312">
        <ele>373.9</ele>
        <time>2025-04-09T15:29:12.000Z</time>
      </trkpt>
      <trkpt lat="43.54247" lon="6.31312">
        <ele>373.9</ele>
        <time>2025-04-09T15:29:12.000Z</time>
      </trkpt>
    </trkseg>
  </trk>
</gpx>